[[{"header":{"parameterUnit":"m.s-1","parameterCategory":1,"la1":30.6,"la2":29.2853,"lo1":-89.7004,"lo2":-87.6739,"dy":0.0162,"dx":0.0183,"nx":112,"ny":82,"refTime":"2024-03-16T06:00:00:Z","depth":0,"parameterNumber":2,"parameterNumberName":"U-component_of_WINDS"},"data":[0.0,0.0,0.0,0.0,0.0,0.0,0.0,0.0,0.0,0.0,0.0,0.0,0.0,0.0,0.0,0.0,0.0,0.0,0.0,0.0,0.0,0.0,0.0,0.0,0.0,0.0,0.0,0.0,0.0,0.0,0.0,0.0,0.0,0.0,0.0,0.0,0.0,0.0,0.0,0.0,0.0,0.0,0.0,0.0,0.0,0.0,0.0,0.0,0.0,0.0,0.0,0.0,0.0,0.0,0.0,0.0,0.0,0.0,0.0,0.0,0.0,0.0,0.0,0.0,0.0,0.0,0.0,0.0,0.0,0.0,0.0,0.0,0.0,0.0,0.0,0.0,0.0,0.0,0.0,0.0,0.0,0.0,0.0,0.0,0.0,0.0,0.0,0.0,0.0,0.0,0.0,1.7858,2.0751,2.2391,2.1859,2.219,2.1943,2.0772,0.0,0.0,0.0,0.0,0.0,0.0,0.0,0.0,0.0,0.0,0.0,0.0,0.0,0.0,0.0,0.0,0.0,0.0,0.0,0.0,0.0,0.0,0.0,0.0,0.0,0.0,0.0,0.0,0.0,0.0,0.0,0.0,0.0,0.0,0.0,0.0,0.0,0.0,0.0,0.0,0.0,0.0,0.0,0.0,0.0,0.0,0.0,0.0,0.0,0.0,0.0,0.0,0.0,0.0,0.0,0.0,0.0,0.0,0.0,0.0,0.0,0.0,0.0,0.0,0.0,0.0,0.0,0.0,0.0,0.0,0.0,0.0,0.0,0.0,0.0,0.0,0.0,0.0,0.0,0.0,0.0,0.0,0.0,0.0,0.0,0.0,0.0,0.0,0.0,0.0,0.0,0.0,0.0,0.0,0.0,0.0,0.0,0.0,0.0,0.0,0.0,0.0,0.0,0.0,1.817,1.8971,2.0148,2.1125,2.175,2.0603,2.0357,2.1514,0.0,0.0,0.0,0.0,0.0,0.0,0.0,0.0,0.0,0.0,0.0,0.0,0.0,0.0,0.0,0.0,0.0,0.0,0.0,0.0,0.0,0.0,0.0,0.0,0.0,0.0,0.0,0.0,0.0,0.0,0.0,0.0,0.0,0.0,0.0,0.0,0.0,0.0,0.0,0.0,0.0,0.0,0.0,0.0,0.0,0.0,0.0,0.0,0.0,0.0,0.0,0.0,0.0,0.0,0.0,0.0,0.0,0.0,0.0,0.0,0.0,0.0,0.0,0.0,0.0,0.0,0.0,0.0,0.0,0.0,0.0,0.0,0.0,0.0,0.0,0.0,0.0,0.0,0.0,0.0,0.0,0.0,0.0,0.0,0.0,0.0,0.0,0.0,0.0,0.0,0.0,0.0,0.0,0.0,0.0,0.0,0.0,0.0,0.0,0.0,0.0,0.0,0.0,1.7829,1.809,1.9773,2.0285,2.067,2.1054,2.0386,2.0277,2.1056,2.0723,0.0,0.0,0.0,0.0,0.0,0.0,0.0,0.0,0.0,0.0,0.0,0.0,0.0,0.0,0.0,0.0,0.0,0.0,0.0,0.0,0.0,0.0,0.0,0.0,0.0,0.0,0.0,0.0,0.0,0.0,0.0,0.0,0.0,0.0,0.0,0.0,0.0,0.0,0.0,0.0,0.0,0.0,0.0,0.0,0.0,0.0,0.0,0.0,0.0,0.0,0.0,0.0,0.0,0.0,0.0,0.0,0.0,0.0,0.0,0.0,0.0,0.0,0.0,0.0,0.0,0.0,0.0,0.0,0.0,0.0,0.0,0.0,0.0,0.0,0.0,0.0,0.0,0.0,0.0,0.0,0.0,0.0,0.0,0.0,0.0,0.0,0.0,0.0,0.0,0.0,0.0,0.0,0.0,0.0,0.0,0.0,0.0,0.0,0.0,0.0,0.0,0.0,1.7484,1.7545,1.9956,2.0225,2.0225,2.0225,2.0043,2.0188,2.0766,2.0264,0.0,0.0,0.0,0.0,0.0,0.0,0.0,0.0,0.0,0.0,0.0,0.0,0.0,0.0,0.0,0.0,0.0,0.0,0.0,0.0,0.0,0.0,0.0,0.0,0.0,0.0,0.0,0.0,0.0,0.0,0.0,0.0,0.0,0.0,0.0,0.0,0.0,0.0,0.0,0.0,0.0,0.0,0.0,0.0,0.0,0.0,0.0,0.0,0.0,0.0,0.0,0.0,0.0,0.0,0.0,0.0,0.0,0.0,0.0,0.0,0.0,0.0,0.0,0.0,0.0,0.0,0.0,0.0,0.0,0.0,0.0,0.0,0.0,0.0,0.0,0.0,0.0,0.0,0.0,0.0,0.0,0.0,0.0,0.0,0.0,0.0,0.0,0.0,0.0,0.0,0.0,0.0,0.0,0.0,0.0,0.0,0.0,0.0,0.0,0.0,0.0,0.0,1.7125,1.6713,1.9136,1.9378,1.9378,1.9378,1.8697,1.9253,2.1566,1.9542,0.0,0.0,0.0,0.0,0.0,0.0,0.0,0.0,0.0,0.0,0.0,0.0,0.0,0.0,0.0,0.0,0.0,0.0,0.0,0.0,0.0,0.0,0.0,0.0,0.0,0.0,0.0,0.0,0.0,0.0,0.0,0.0,0.0,0.0,0.0,0.0,0.0,0.0,0.0,0.0,0.0,0.0,0.0,0.0,0.0,0.0,0.0,0.0,0.0,0.0,0.0,0.0,0.0,0.0,0.0,0.0,0.0,0.0,0.0,0.0,0.0,0.0,0.0,0.0,0.0,0.0,0.0,0.0,0.0,0.0,0.0,0.0,0.0,0.0,0.0,0.0,0.0,0.0,0.0,0.0,0.0,0.0,0.0,0.0,0.0,0.0,0.0,0.0,0.0,0.0,0.0,0.0,0.0,0.0,0.0,0.0,0.0,0.0,0.0,0.0,0.0,0.0,1.8124,1.7738,0.0,1.8858,1.8554,1.8554,1.827,1.8926,2.0877,0.0,0.0,0.0,0.0,0.0,0.0,0.0,0.0,0.0,0.0,0.0,0.0,0.0,0.0,0.0,0.0,0.0,0.0,0.0,0.0,0.0,0.0,0.0,0.0,0.0,0.0,0.0,0.0,0.0,0.0,0.0,0.0,0.0,0.0,0.0,0.0,0.0,0.0,0.0,0.0,0.0,0.0,0.0,0.0,0.0,0.0,0.0,0.0,0.0,0.0,0.0,0.0,0.0,0.0,0.0,0.0,0.0,0.0,0.0,0.0,0.0,0.0,0.0,0.0,0.0,0.0,0.0,0.0,0.0,0.0,0.0,0.0,0.0,0.0,0.0,0.0,0.0,0.0,0.0,0.0,0.0,0.0,0.0,0.0,0.0,0.0,0.0,0.0,0.0,0.0,0.0,0.0,0.0,0.0,0.0,0.0,0.0,0.0,0.0,0.0,0.0,0.0,1.9104,1.8099,1.7666,0.0,1.8429,1.81,1.8107,1.7872,1.8513,2.0389,0.0,0.0,0.0,0.0,0.0,0.0,0.0,0.0,0.0,0.0,0.0,0.0,0.0,0.0,0.0,0.0,0.0,0.0,0.0,0.0,0.0,0.0,0.0,0.0,0.0,0.0,0.0,0.0,0.0,0.0,0.0,0.0,0.0,0.0,0.0,0.0,0.0,0.0,0.0,0.0,0.0,0.0,0.0,0.0,0.0,0.0,0.0,0.0,0.0,0.0,0.0,0.0,0.0,0.0,0.0,0.0,0.0,0.0,0.0,0.0,0.0,0.0,0.0,0.0,0.0,0.0,0.0,0.0,0.0,0.0,0.0,0.0,0.0,0.0,0.0,0.0,0.0,0.0,0.0,0.0,0.0,0.0,0.0,0.0,0.0,0.0,0.0,0.0,0.0,0.0,0.0,0.0,0.0,0.0,0.0,0.0,0.0,0.0,0.0,0.0,0.0,0.0,1.8284,1.6689,1.6084,1.7897,1.8091,1.8074,1.8097,1.7352,1.7938,0.0,0.0,0.0,0.0,0.0,0.0,0.0,0.0,0.0,0.0,0.0,0.0,0.0,0.0,0.0,0.0,0.0,0.0,0.0,0.0,0.0,0.0,0.0,0.0,0.0,0.0,0.0,0.0,0.0,0.0,0.0,0.0,0.0,0.0,0.0,0.0,0.0,0.0,0.0,0.0,0.0,0.0,0.0,0.0,0.0,0.0,0.0,0.0,0.0,0.0,0.0,0.0,0.0,0.0,0.0,0.0,0.0,0.0,0.0,0.0,0.0,0.0,0.0,0.0,0.0,0.0,0.0,0.0,0.0,0.0,0.0,0.0,0.0,0.0,0.0,0.0,0.0,0.0,0.0,0.0,0.0,0.0,0.0,0.0,0.0,0.0,0.0,0.0,0.0,0.0,0.0,0.0,0.0,0.0,0.0,0.0,0.0,0.0,0.0,0.0,0.0,0.0,0.0,1.9044,1.7023,1.5882,1.7113,1.6748,1.6628,1.7205,1.7049,1.7938,2.0363,0.0,0.0,0.0,0.0,0.0,0.0,0.0,0.0,0.0,0.0,0.0,0.0,0.0,0.0,0.0,0.0,0.0,0.0,0.0,0.0,0.0,0.0,0.0,0.0,0.0,0.0,0.0,0.0,0.0,0.0,0.0,0.0,0.0,0.0,0.0,0.0,0.0,0.0,0.0,0.0,0.0,0.0,0.0,0.0,0.0,0.0,0.0,0.0,0.0,0.0,0.0,0.0,0.0,0.0,0.0,0.0,0.0,0.0,0.0,0.0,0.0,0.0,0.0,0.0,0.0,0.0,0.0,0.0,0.0,0.0,0.0,0.0,0.0,0.0,0.0,0.0,0.0,0.0,0.0,0.0,0.0,0.0,0.0,0.0,0.0,0.0,0.0,0.0,0.0,0.0,0.0,0.0,0.0,0.0,0.0,0.0,0.0,0.0,0.0,0.0,0.0,0.0,1.8878,1.7376,1.6386,1.6739,1.6712,1.6857,1.734,1.738,1.8121,1.9914,0.0,0.0,0.0,0.0,0.0,0.0,0.0,0.0,0.0,0.0,0.0,0.0,0.0,0.0,0.0,0.0,0.0,0.0,0.0,0.0,0.0,0.0,0.0,0.0,0.0,0.0,0.0,0.0,0.0,0.0,0.0,0.0,0.0,0.0,0.0,0.0,0.0,0.0,0.0,0.0,0.0,0.0,0.0,0.0,0.0,0.0,0.0,0.0,0.0,0.0,0.0,0.0,0.0,0.0,0.0,0.0,0.0,0.0,0.0,0.0,0.0,0.0,0.0,0.0,0.0,0.0,0.0,0.0,0.0,0.0,0.0,0.0,0.0,0.0,0.0,0.0,0.0,0.0,0.0,0.0,0.0,0.0,0.0,0.0,0.0,0.0,0.0,0.0,0.0,0.0,0.0,0.0,0.0,0.0,0.0,0.0,0.0,0.0,0.0,0.0,0.0,0.0,1.8252,1.7701,1.7169,1.665,1.741,1.7999,1.8085,1.8098,1.8483,1.936,0.0,0.0,0.0,0.0,0.0,0.0,0.0,0.0,0.0,0.0,0.0,0.0,0.0,0.0,0.0,0.0,0.0,0.0,0.0,0.0,0.0,0.0,0.0,0.0,0.0,0.0,0.0,0.0,0.0,0.0,0.0,0.0,0.0,0.0,0.0,0.0,0.0,0.0,0.0,0.0,0.0,0.0,0.0,0.0,0.0,0.0,0.0,0.0,0.0,0.0,0.0,0.0,0.0,0.0,0.0,0.0,0.0,0.0,0.0,0.0,2.3512,0.0,0.0,0.0,0.0,0.0,0.0,0.0,0.0,0.0,0.0,0.0,0.0,0.0,0.0,0.0,0.0,0.0,0.0,0.0,0.0,0.0,0.0,0.0,0.0,0.0,0.0,0.0,0.0,0.0,0.0,0.0,0.0,0.0,0.0,0.0,0.0,0.0,0.0,0.0,0.0,0.0,1.8957,1.7382,1.6315,1.6497,1.6722,1.718,1.8031,1.81,1.8715,2.0151,0.0,0.0,0.0,0.0,0.0,0.0,0.0,0.0,0.0,0.0,0.0,0.0,0.0,0.0,0.0,0.0,0.0,0.0,0.0,0.0,0.0,0.0,0.0,0.0,0.0,0.0,0.0,0.0,0.0,0.0,0.0,0.0,0.0,0.0,0.0,0.0,0.0,0.0,0.0,0.0,0.0,0.0,0.0,0.0,0.0,0.0,0.0,0.0,0.0,0.0,0.0,0.0,0.0,0.0,0.0,0.0,0.0,0.0,0.0,0.0,0.0,2.4117,0.0,0.0,0.0,0.0,0.0,0.0,0.0,0.0,0.0,0.0,0.0,0.0,0.0,0.0,0.0,0.0,0.0,0.0,0.0,0.0,0.0,0.0,0.0,0.0,0.0,0.0,0.0,0.0,0.0,0.0,0.0,0.0,0.0,0.0,0.0,0.0,0.0,0.0,0.0,0.0,1.9087,1.7866,1.6995,1.6986,1.7411,1.7967,1.8608,1.902,1.9611,2.0458,2.1257,0.0,0.0,0.0,0.0,0.0,0.0,0.0,0.0,0.0,0.0,0.0,0.0,0.0,0.0,0.0,0.0,0.0,0.0,0.0,0.0,0.0,0.0,0.0,0.0,0.0,0.0,0.0,0.0,0.0,0.0,0.0,0.0,0.0,0.0,0.0,0.0,0.0,0.0,0.0,0.0,0.0,0.0,0.0,0.0,0.0,0.0,0.0,0.0,0.0,0.0,0.0,0.0,0.0,0.0,2.4825,2.5117,2.5117,2.4741,2.4106,2.4738,2.4888,2.4688,0.0,0.0,0.0,0.0,0.0,0.0,0.0,0.0,0.0,0.0,0.0,0.0,0.0,0.0,0.0,0.0,0.0,0.0,0.0,0.0,0.0,0.0,0.0,0.0,0.0,2.4254,2.406,0.0,0.0,0.0,0.0,0.0,0.0,0.0,0.0,0.0,0.0,0.0,0.0,1.9161,1.8569,1.8082,1.7738,1.8485,1.9127,1.9485,2.0132,2.0572,2.0728,2.202,2.2843,0.0,0.0,0.0,0.0,0.0,0.0,0.0,0.0,0.0,0.0,0.0,0.0,0.0,0.0,0.0,0.0,0.0,0.0,0.0,0.0,0.0,0.0,0.0,0.0,0.0,0.0,0.0,0.0,0.0,0.0,0.0,0.0,2.162,2.2168,0.0,0.0,0.0,0.0,0.0,0.0,0.0,0.0,0.0,0.0,0.0,0.0,0.0,0.0,2.4312,2.4405,2.4814,2.5539,2.5355,2.5665,2.6366,2.6366,2.5926,2.5208,2.5635,0.0,2.4188,2.4217,0.0,0.0,0.0,0.0,0.0,0.0,0.0,0.0,0.0,0.0,0.0,0.0,0.0,0.0,0.0,0.0,0.0,0.0,0.0,0.0,0.0,0.0,2.5256,2.5256,2.547,2.5518,0.0,2.375,2.2901,2.3157,0.0,0.0,0.0,0.0,0.0,0.0,0.0,0.0,1.986,1.8893,1.828,1.8444,1.8789,1.936,2.0277,2.044,2.0825,2.157,2.1843,2.2282,2.2959,2.2995,0.0,0.0,0.0,0.0,0.0,0.0,0.0,0.0,0.0,0.0,0.0,0.0,0.0,0.0,0.0,0.0,0.0,0.0,0.0,0.0,0.0,0.0,0.0,0.0,0.0,0.0,0.0,0.0,0.0,2.3378,2.3146,2.2882,2.3417,2.3889,0.0,0.0,0.0,0.0,0.0,0.0,0.0,0.0,0.0,2.419,2.4837,2.5114,2.5005,2.5467,2.5854,2.6223,2.6583,2.6704,2.6631,2.7548,2.7319,2.6283,2.702,2.6849,2.5953,2.5119,2.4927,2.513,0.0,0.0,0.0,0.0,0.0,2.4226,2.443,0.0,0.0,0.0,0.0,0.0,0.0,0.0,0.0,0.0,0.0,0.0,0.0,0.0,0.0,2.5663,2.5745,2.5517,2.4721,2.3781,2.3102,0.0,2.3081,2.2876,2.2584,0.0,0.0,0.0,0.0,0.0,1.9447,1.8694,1.8487,1.9198,1.9514,2.0099,2.113,2.1649,2.2063,2.2444,2.2902,2.3324,2.3656,2.3674,2.3747,0.0,0.0,0.0,0.0,0.0,0.0,0.0,0.0,0.0,0.0,0.0,0.0,0.0,0.0,0.0,0.0,0.0,0.0,0.0,0.0,0.0,0.0,0.0,0.0,0.0,0.0,0.0,0.0,2.3929,2.374,2.3135,2.3691,2.418,0.0,0.0,0.0,0.0,0.0,0.0,2.4542,2.4672,2.4838,2.5107,2.5652,2.6058,2.6319,2.6502,2.6924,2.753,2.7915,2.8007,2.7879,2.9072,2.8924,2.7786,2.8372,2.8378,2.7839,2.6446,2.5658,2.531,2.5163,2.4851,2.4487,2.4393,2.4431,2.452,2.4484,2.4724,2.4998,2.4791,0.0,2.5096,2.4648,0.0,0.0,0.0,0.0,2.4685,2.5493,0.0,2.594,2.6242,2.6127,2.5744,2.4962,2.4344,2.3772,0.0,2.3066,2.2961,2.2652,0.0,0.0,0.0,0.0,2.0111,1.9542,1.9155,1.9199,2.0001,2.0409,2.1025,2.2009,2.2648,2.3085,2.3287,2.3876,2.419,2.419,2.419,2.4079,2.384,0.0,0.0,0.0,0.0,0.0,0.0,0.0,0.0,0.0,0.0,0.0,0.0,0.0,0.0,0.0,0.0,0.0,0.0,0.0,0.0,0.0,0.0,0.0,0.0,0.0,0.0,0.0,0.0,0.0,2.1815,2.2574,0.0,0.0,0.0,0.0,2.4478,2.4284,2.4561,2.5578,2.5447,2.6046,2.7567,2.6946,2.7273,2.8792,2.7346,2.775,3.0008,2.9292,2.9732,3.1146,3.1237,3.0815,2.9995,2.9468,2.9241,2.9114,2.7881,2.6924,2.6206,2.6019,2.5343,2.4519,2.4706,2.5022,2.525,2.4705,2.5005,2.5538,2.4754,2.4654,2.4771,2.4575,2.4476,0.0,0.0,2.5348,2.5531,2.6337,2.6832,2.7103,2.7139,2.7179,2.6991,2.6276,2.5785,2.4941,0.0,2.2728,2.2632,2.2377,0.0,2.2615,2.2287,2.161,2.1119,2.1096,2.0894,2.0773,2.0841,2.1368,2.2061,2.2866,2.2976,2.3343,2.4079,2.4171,2.419,2.419,2.419,2.419,2.4171,2.4171,0.0,0.0,0.0,0.0,0.0,0.0,0.0,0.0,0.0,0.0,0.0,0.0,0.0,0.0,0.0,0.0,0.0,0.0,0.0,0.0,0.0,0.0,0.0,0.0,0.0,0.0,0.0,0.0,2.4259,2.5022,0.0,0.0,2.4874,2.5059,2.5261,2.5097,2.557,2.6977,2.6988,2.7677,2.9292,2.9072,2.9439,3.0522,2.9971,3.0118,3.098,3.1219,3.1347,3.1421,3.2467,3.221,3.1005,3.1469,3.1377,3.0881,3.0434,2.917,2.7401,2.6808,2.6263,2.5799,2.5356,2.5594,2.6069,2.5324,2.5688,2.6451,2.6293,2.6113,2.5968,2.6042,2.595,2.5907,2.6101,2.6172,2.6295,2.6845,2.7085,2.7212,2.7257,2.729,2.7034,2.6031,2.5703,2.5101,2.3465,2.3141,2.296,2.2406,2.2378,2.2237,2.1671,2.1356,2.1017,2.0492,2.0525,2.086,2.159,2.2021,2.2663,2.3692,2.3765,2.3895,2.4171,2.419,2.4116,2.3895,2.3876,2.3785,2.3563,2.3547,2.347,0.0,0.0,0.0,0.0,0.0,0.0,0.0,0.0,0.0,0.0,0.0,0.0,0.0,0.0,0.0,0.0,0.0,0.0,0.0,0.0,0.0,0.0,0.0,0.0,0.0,0.0,2.5433,2.5667,2.6358,2.658,2.606,2.5887,2.5978,2.6374,2.6293,2.6906,2.8521,2.8613,2.9347,3.0962,3.0618,3.0932,3.1991,3.1462,3.1462,3.1991,3.2415,3.2467,3.2247,3.3311,3.322,3.2236,3.2662,3.2723,3.2437,3.1883,3.0714,2.9107,2.8032,2.7207,2.6539,2.5994,2.63,2.6926,2.6405,2.6456,2.6821,2.6935,2.6821,2.667,2.7075,2.7106,2.7071,2.7346,2.742,2.7496,2.7918,2.7921,2.7834,2.7983,2.7954,2.7602,2.6572,2.6353,2.5897,2.4413,2.3748,2.317,2.244,2.231,2.2124,2.1637,2.1559,2.138,2.0829,2.0993,2.1512,2.2375,2.2718,2.3264,2.4115,2.419,2.419,2.419,2.4087,2.393,2.371,2.3574,2.3428,2.3187,2.312,2.3017,2.2811,0.0,0.0,0.0,0.0,0.0,0.0,0.0,0.0,0.0,0.0,0.0,0.0,0.0,0.0,0.0,0.0,0.0,0.0,0.0,0.0,0.0,0.0,0.0,2.3801,2.5115,2.596,2.5798,2.6316,2.6667,2.6686,2.6704,2.7034,2.7824,2.7897,2.8594,3.0191,3.0277,3.1011,3.2606,3.1519,3.1665,3.3238,3.1701,3.1701,3.3238,3.2885,3.3083,3.3817,3.3844,3.3825,3.377,3.2966,3.3085,3.3678,3.2121,3.1477,3.1274,2.9677,2.8081,2.6667,2.6649,2.7134,2.7798,2.7838,2.7328,2.6686,2.6704,2.6722,2.6869,2.7658,2.7897,2.8062,2.8847,2.9067,2.9161,2.9511,2.9298,2.9074,2.9415,2.9229,2.8755,2.801,2.7806,2.735,2.593,2.4445,2.3238,2.2474,2.2344,2.2344,2.231,2.231,0.0,2.231,2.2527,2.2822,2.3141,2.3482,2.3816,2.4151,2.419,2.4208,2.419,2.388,2.3691,2.3667,2.3353,2.317,2.317,2.2988,2.263,2.209,0.0,0.0,0.0,0.0,0.0,0.0,0.0,0.0,0.0,0.0,0.0,0.0,0.0,0.0,0.0,0.0,0.0,0.0,0.0,0.0,0.0,0.0,2.563,2.58,2.6003,2.6517,2.7537,2.8222,2.8537,2.8356,2.887,2.931,2.9531,3.0081,3.0852,3.1898,3.2156,3.2766,3.378,3.3698,3.3841,3.4301,3.3841,3.3841,3.4301,3.4582,3.4509,3.415,3.4499,3.4348,3.3788,3.3578,3.3597,3.377,3.3319,3.279,3.2114,3.0515,2.9246,2.8282,2.7699,2.7603,2.7871,2.8462,2.8539,2.8448,2.9017,2.9219,2.9365,3.0155,3.0393,3.04,3.0321,3.0524,3.0542,2.9748,2.9303,2.9074,2.9128,2.8606,2.823,2.8586,2.8213,2.7502,2.659,2.5641,2.4605,2.3308,2.3105,2.2919,2.2395,0.0,0.0,2.231,2.236,2.2527,2.2797,2.3141,2.3459,2.3816,2.4074,2.4094,0.0,2.3754,2.3483,2.3007,2.29,2.2762,2.2553,2.2474,2.2224,0.0,0.0,0.0,0.0,0.0,0.0,0.0,0.0,0.0,0.0,0.0,0.0,0.0,0.0,0.0,0.0,0.0,0.0,0.0,0.0,0.0,0.0,2.5736,2.6563,2.7986,2.7561,2.7562,2.8755,2.9415,2.9806,2.9971,3.043,3.0834,3.1182,3.1953,3.2664,3.3276,3.3834,3.4199,3.4452,3.4446,3.4473,3.4473,3.4473,3.4473,3.4473,3.5182,3.5253,3.4813,3.5305,3.5303,0.0,3.4467,3.4301,3.4283,3.3944,3.3331,0.0,0.0,0.0,0.0,0.0,2.8301,2.8429,2.9237,2.9512,2.9641,3.0448,3.0705,3.0852,3.1659,3.1898,3.1821,3.1428,3.1483,3.1373,3.0241,2.9861,2.9754,2.9887,2.9567,2.9279,2.9431,2.9093,2.8569,2.7807,0.0,0.0,2.4983,2.4002,2.3241,2.2835,2.2513,2.231,0.0,2.231,2.2398,2.2669,2.2855,2.3189,2.3671,2.3753,0.0,0.0,0.0,2.3049,2.2548,2.2643,0.0,0.0,0.0,2.1935,0.0,0.0,0.0,0.0,2.0485,1.9694,0.0,0.0,0.0,0.0,0.0,0.0,0.0,0.0,0.0,0.0,0.0,0.0,0.0,0.0,0.0,0.0,2.6273,2.6918,2.9932,2.9464,2.9094,2.9811,3.0163,3.0687,3.1568,3.1586,3.1953,3.2944,3.3533,3.4043,3.4496,0.0,0.0,0.0,0.0,3.449,3.4404,3.449,3.449,3.4444,3.5297,3.5657,3.5616,3.6117,3.6307,3.6176,3.5469,3.5091,3.4952,3.4228,3.3413,3.2527,3.1703,3.0919,3.0131,2.9489,2.925,0.0,0.0,0.0,0.0,3.1274,3.1531,3.1696,3.2614,3.2889,3.2783,3.2419,3.2277,3.2038,3.1063,3.0697,3.0712,3.1104,3.114,3.092,3.0362,3.0176,2.9922,2.9245,2.8416,2.757,2.6945,2.505,2.3579,2.3427,2.2852,0.0,2.2327,2.231,2.2388,2.2634,0.0,0.0,2.3544,2.3346,2.3323,2.3566,2.3084,2.2657,2.2355,2.2668,2.2452,2.1653,2.1972,2.1884,2.1409,2.2006,2.2103,2.1665,2.0281,1.9139,0.0,0.0,0.0,0.0,0.0,0.0,0.0,0.0,0.0,0.0,0.0,0.0,0.0,0.0,0.0,2.667,2.8245,2.9562,3.0018,3.0888,3.1525,3.1694,3.1374,3.1733,3.3183,3.2761,3.3256,3.5422,3.4739,3.4703,3.5828,3.6078,0.0,3.6637,3.6982,3.6859,3.6293,3.6859,3.6859,3.6293,0.0,0.0,3.6145,3.6497,3.6261,3.566,3.5921,3.563,3.4989,3.4815,3.3915,3.2533,3.1696,3.0913,3.0265,3.0742,3.0944,3.0962,3.1109,3.1164,3.1292,3.2118,3.2375,3.2651,3.4092,3.4532,0.0,3.4306,3.4103,3.3637,3.2328,3.1342,3.0783,3.1104,3.0751,3.0446,3.0886,3.0531,3.0074,2.9922,2.8772,2.7739,2.7621,2.6268,2.478,2.3579,2.3274,2.297,2.2395,2.231,2.2338,2.236,2.2573,2.2746,2.2873,2.3069,2.3117,2.2923,2.3148,2.3064,2.264,2.3192,2.3014,2.1954,2.2489,2.2555,2.2115,2.2254,2.2103,2.168,2.0401,1.9498,0.0,0.0,0.0,0.0,0.0,0.0,0.0,0.0,0.0,0.0,0.0,2.6171,2.7207,0.0,2.828,2.9118,3.0158,3.1092,3.179,3.2657,3.3034,3.2662,3.2247,3.2632,3.4247,3.4045,3.4385,3.5788,3.5915,3.6023,3.6274,3.6946,3.737,3.7474,3.7746,3.7719,3.7347,3.7719,3.7719,3.7347,3.7823,3.7836,3.746,3.7481,3.7288,3.6895,3.6617,3.6255,3.5823,3.5697,3.4778,3.3437,3.3447,3.2611,3.1458,3.1861,3.2265,3.2651,3.3054,3.3201,3.3348,3.4174,3.4449,3.4541,3.5089,3.5248,3.5137,3.4606,3.4357,3.4022,3.31,3.2185,3.1555,3.171,3.119,3.0751,3.1123,3.0903,3.0649,3.0649,2.9736,2.8958,2.8958,2.7723,2.6218,2.4729,2.3866,2.3274,2.2902,2.253,2.231,2.231,2.2426,2.2563,2.2695,2.2848,2.2815,2.2527,2.3425,2.355,2.2699,2.3487,2.3369,2.2169,2.2599,2.274,2.2504,2.2823,2.2869,2.2637,2.1721,2.064,0.0,0.0,0.0,0.0,0.0,0.0,0.0,0.0,2.5259,2.6342,2.6951,2.7748,2.926,2.9636,3.017,3.1552,3.19,3.2463,3.3779,3.4379,3.4444,3.3722,3.3442,3.3899,3.5349,3.532,3.5451,3.5927,3.6858,3.7214,3.6713,3.7784,3.8374,3.8248,3.8292,3.8261,3.8125,3.8261,3.8261,3.8125,3.8494,3.867,3.8681,3.8482,3.828,3.8096,3.7109,3.664,3.6526,3.6273,3.5556,3.4673,3.5316,3.479,3.364,3.3194,3.3413,3.4069,3.4725,3.4943,3.5053,3.5775,3.5994,3.5951,3.5645,3.5582,3.5432,3.4722,3.4454,3.4214,3.3735,3.3068,3.2493,3.2493,3.2053,3.163,3.163,3.163,3.1579,3.1427,3.0818,3.0277,3.0125,2.8839,2.7368,2.6015,2.4678,2.3714,2.3427,2.2885,2.2462,2.2327,2.231,2.2388,2.2599,2.2608,2.2579,2.2513,2.3748,2.3972,2.2736,2.3813,2.3755,2.2378,2.2707,2.2862,2.2862,2.3355,2.3595,2.3595,2.3086,2.1884,2.1491,2.1972,2.2521,2.2521,2.3517,2.4581,0.0,0.0,2.8122,2.849,2.9411,3.0196,3.0337,3.0982,3.1552,3.1686,3.333,3.4564,3.4507,3.5614,3.63,3.5965,3.5909,3.6229,3.711,3.656,3.6565,3.7566,3.7327,3.7423,3.8025,3.8584,3.9102,3.9508,3.9739,3.9529,3.887,3.9512,3.9512,3.887,3.895,3.895,3.8965,3.8687,3.8217,3.7579,3.6952,3.6416,3.596,3.5695,3.5643,3.5755,3.5826,3.6551,3.7314,3.5208,3.4516,3.4605,3.4694,3.4729,3.4747,3.4836,3.4871,3.4995,3.5669,3.5881,3.5913,3.6087,3.5671,3.5031,3.4525,3.3829,3.3288,3.3288,3.322,3.3152,3.3152,3.3152,3.2966,3.229,3.1562,3.0869,3.0226,2.8839,2.7502,2.6691,2.5879,2.4881,2.3562,2.3325,2.3038,2.2378,2.231,2.231,2.2349,2.2349,2.2592,2.3241,2.4066,2.4062,2.3095,2.4356,2.4328,2.2686,2.3218,2.349,2.349,2.3565,2.3595,2.3595,2.3535,2.2535,2.2032,2.2716,0.0,0.0,2.5344,2.6704,2.7514,2.8651,2.9762,3.0495,3.1013,3.1797,3.3205,3.3313,3.3613,0.0,3.5322,3.5603,3.5787,3.6586,3.6952,3.6368,3.7129,3.7643,3.7496,3.7624,3.7935,3.8558,3.8779,3.8954,3.9136,3.933,3.959,3.9939,4.0051,3.9935,3.9631,3.9935,3.9935,3.9631,3.9631,3.9631,3.9597,3.9109,3.8345,3.749,3.7241,3.721,3.7316,3.764,3.7644,3.7481,3.7481,3.7689,3.7905,3.7053,3.7023,3.745,3.745,3.745,3.7362,3.692,3.7097,3.7337,3.6939,3.7138,3.7433,3.7305,3.7052,3.6666,3.6017,3.5267,3.459,3.4134,3.3711,3.3406,3.3406,3.3406,3.3186,3.2425,3.2036,3.1596,3.0869,2.9854,2.9042,2.8738,2.6928,2.5389,2.4763,2.4306,2.3748,2.3021,2.2564,2.231,2.231,2.231,2.2615,2.3342,2.4069,2.4392,2.4104,2.4804,2.4729,2.3733,2.3631,2.3595,2.3595,2.3595,2.3595,2.3595,2.3595,2.278,2.2564,0.0,0.0,2.5526,2.7186,2.8852,2.9754,3.0918,3.2028,3.2773,3.3125,3.3843,3.558,3.5359,3.5379,3.6915,3.6841,3.6675,3.6975,3.7304,3.7276,3.6688,3.7459,3.79,3.7533,3.823,3.8761,3.887,3.9569,3.9851,3.9595,3.9743,3.9901,4.0104,4.007,4.007,4.007,4.007,4.007,4.007,4.007,4.007,4.0054,3.9123,3.8414,3.7902,3.7629,3.7748,3.8244,3.8894,3.899,3.8728,3.8728,3.8512,3.8184,3.8322,3.8643,3.8971,3.8971,3.8971,3.8884,3.8384,3.8576,3.8824,3.7914,3.7988,3.8345,3.7984,3.7905,3.7787,3.7229,3.6518,3.5808,3.525,3.4556,3.3972,3.3765,3.3722,3.346,3.2517,3.234,3.2041,3.1125,3.0496,3.0079,2.9878,2.7955,2.6387,2.5964,2.5067,2.432,2.3748,2.3224,2.2919,2.2919,2.2919,2.3139,2.3663,2.4391,2.4809,2.4789,2.5061,2.495,2.4389,2.4061,2.3789,2.3595,2.3789,2.3789,2.3595,2.343,2.2617,2.3173,0.0,2.5811,2.688,2.9029,3.0992,3.1356,3.3604,3.5617,3.5507,3.6204,3.6804,3.6699,3.6642,3.6569,3.6381,3.7408,3.8141,3.7888,3.7654,3.7477,3.7489,3.6817,3.667,0.0,3.823,3.858,3.8327,3.9027,3.9303,3.9035,3.9714,4.0104,4.007,4.007,4.007,4.007,4.007,4.007,4.007,4.007,4.007,4.002,3.8599,3.8294,3.8885,3.7937,3.7659,3.795,3.8401,3.8774,3.9003,3.9003,3.8924,3.8896,3.8863,3.8453,3.7953,3.7953,3.7953,3.7936,3.7919,3.7936,3.7936,3.7919,3.7889,3.7905,3.7905,3.7905,3.7905,3.7872,3.7313,3.6738,3.6721,3.6113,3.5357,3.4717,3.4558,3.4152,3.2771,3.2494,3.2062,3.0654,3.0303,2.9962,2.9321,2.9047,2.8349,2.686,2.5389,2.4506,2.4472,2.4455,2.4438,2.4438,2.4438,2.4455,2.4472,2.5152,2.533,2.4806,2.5061,2.495,2.4389,2.4502,2.4268,2.3595,2.4268,2.4253,2.3595,2.2981,2.1796,2.4293,2.5883,2.7638,2.9521,3.1797,3.3826,3.4699,3.5766,3.6581,3.6536,3.5397,3.4552,3.4949,3.4122,3.4016,3.5982,3.7129,3.8052,3.8917,3.9712,3.9398,3.7227,3.8003,0.0,0.0,0.0,0.0,3.9514,3.9949,4.0227,4.0242,4.0627,4.0595,4.0104,4.0561,4.0578,4.007,4.007,4.007,4.007,4.007,4.007,4.0054,3.9073,3.8768,3.8954,3.8622,3.8554,3.8667,3.935,3.9311,3.8949,3.8949,3.8602,3.8149,3.8149,3.8026,3.7894,3.8391,3.8216,3.7937,3.8455,3.8606,3.8448,3.7983,3.8556,3.9227,3.872,3.8548,3.8432,3.7967,3.7275,3.658,3.6124,3.5831,3.5532,3.5308,3.4936,3.4336,3.3339,3.2777,3.2205,3.1214,3.0667,2.9935,2.8785,2.8379,2.8027,2.7503,2.615,2.522,2.522,2.478,2.4506,2.4506,2.4506,2.4726,2.5203,2.5456,2.5614,2.5617,2.575,2.5622,2.5087,2.5198,2.4956,2.4283,2.4462,2.4283,2.3595,2.2981,2.2134,2.5629,2.7434,2.9431,3.1439,3.3484,3.523,3.608,3.6433,3.6479,3.6176,3.4505,3.314,3.3288,3.2429,3.2423,3.459,3.5889,3.7205,3.8886,3.9551,3.9293,3.7765,3.8459,3.8542,0.0,0.0,0.0,3.989,4.0339,4.0736,4.1016,4.1154,4.1102,4.0865,4.1339,4.1238,4.0493,4.0476,4.0341,4.007,4.007,4.007,4.0054,3.9326,3.914,3.9377,3.9106,3.8975,3.9008,3.9478,3.9209,3.8525,3.8525,3.8019,3.7413,3.7607,3.7537,3.7461,3.8214,3.8206,3.7914,3.8414,3.8562,3.8443,3.7932,3.8508,3.9172,3.8635,3.8525,3.8427,3.7916,3.7277,3.6582,3.6095,3.5792,3.5506,3.5268,3.4849,3.4258,3.3326,3.2788,3.2195,3.1243,3.071,3.0291,2.9839,2.896,2.8092,2.7334,2.6385,2.5706,2.5476,2.526,2.5094,2.5094,2.5094,2.5309,2.5773,2.5806,2.5914,2.6064,2.619,2.6099,2.5772,2.5879,2.5525,2.4582,2.4821,2.4507,2.3595,2.2557,2.1714,2.7165,2.9194,3.1217,3.2678,3.4202,3.5398,3.5648,3.5717,3.5481,3.4613,3.3593,3.2574,0.0,0.0,3.1732,3.2416,3.4004,3.5931,3.8172,3.7703,3.7653,0.0,0.0,0.0,0.0,0.0,0.0,3.9532,0.0,4.0839,4.1205,4.1271,4.1627,4.2269,4.2286,4.1948,4.1221,4.117,4.0781,4.007,4.007,4.007,4.0054,3.936,3.9428,4.0037,3.9343,3.8974,3.8908,3.8908,3.843,3.7812,3.7812,3.7342,3.6739,3.7374,3.717,3.6682,3.7506,3.7786,3.7754,3.778,3.778,3.7812,3.7812,3.7828,3.7918,3.786,3.786,3.786,3.7812,3.7243,3.6676,3.6644,3.6079,3.5379,3.4678,3.4531,3.414,3.284,3.2556,3.215,3.0788,3.0563,3.0911,3.2052,3.0518,2.8573,2.6621,2.6286,2.6023,2.5358,2.5863,2.6238,2.6238,2.6238,2.6238,2.6181,2.6197,2.6141,2.61,2.6271,2.6334,2.6289,2.6434,2.5863,2.4581,2.5224,2.4836,2.3522,2.1697,2.0543,2.9788,3.1668,3.3313,3.4838,3.6217,3.6957,3.6061,3.5365,3.4656,3.378,3.1357,2.9298,0.0,0.0,0.0,3.2384,3.5288,0.0,4.0553,4.1889,0.0,4.064,0.0,4.0689,3.968,4.0855,0.0,0.0,4.1215,4.156,4.1839,4.2499,4.2675,4.2303,4.2286,4.1948,4.1221,4.0646,4.0273,4.007,4.007,4.007,4.007,3.9884,3.9901,4.007,3.9884,3.9495,3.8908,3.8908,3.8423,3.7669,3.7669,3.743,3.7231,3.7397,3.7353,3.7218,3.7395,3.7227,3.6917,3.7587,3.7745,3.7669,3.7669,3.8399,3.9192,3.8592,3.8419,3.8294,3.781,3.7093,3.645,3.5948,3.5641,3.5457,3.5269,3.4861,3.441,3.4069,3.3612,3.2917,3.1559,3.1319,3.0923,2.9766,2.9134,2.8719,2.8545,2.7583,2.6908,2.6716,2.686,2.693,2.693,2.693,2.6699,2.6103,2.606,2.5649,2.4749,2.5238,2.5321,2.4924,2.4991,2.4875,2.453,2.4287,2.3766,2.2905,2.1077,1.9622,3.2023,3.3779,3.5225,3.6434,3.6841,3.6647,3.557,3.4058,3.2538,3.1309,2.9152,0.0,2.6929,0.0,0.0,0.0,0.0,0.0,3.9957,4.1554,4.2228,0.0,4.2075,0.0,4.1038,4.2084,4.2697,0.0,4.2279,4.2351,4.2583,4.3132,4.3217,4.2811,4.2777,4.2269,4.1221,4.046,4.007,4.007,4.007,4.007,4.007,4.007,4.007,4.007,0.0,3.9847,3.9402,3.8998,3.8535,3.8008,3.7652,3.7449,3.7449,3.7734,3.7838,3.7838,3.7838,3.7614,3.7398,3.7571,3.7587,3.7521,3.7521,3.8108,3.866,3.8167,3.805,3.8025,3.7628,3.7041,3.6387,3.6028,3.5714,3.5504,3.5504,3.548,3.5447,3.5477,3.4975,3.4329,3.354,3.292,3.2145,3.0906,2.9765,2.9019,2.8946,2.7766,2.6836,2.6541,2.6774,2.696,2.696,2.6642,2.6274,2.5824,2.5461,2.4846,2.3768,2.4362,2.4423,2.3718,2.3535,2.3339,2.3035,2.2538,2.1937,2.124,1.9227,1.8276,3.39,3.5579,3.6934,3.7715,3.6877,3.5621,3.4665,3.2421,3.0059,2.8385,0.0,2.6326,2.5565,2.5503,2.6438,2.9036,0.0,3.3676,3.8366,3.9507,4.0597,4.2715,4.2641,4.2451,4.2451,4.3075,4.3497,4.3497,4.3292,4.3225,4.3287,4.3442,4.3427,4.3132,4.3132,4.2455,4.1068,4.0409,4.007,4.007,4.007,4.007,4.007,4.007,4.007,4.0087,0.0,0.0,4.0028,3.9253,3.8918,3.8735,3.785,3.7599,3.7749,3.8317,3.8527,3.8527,3.8527,3.8527,3.8407,3.7659,3.7464,3.7539,3.7539,3.7599,3.7674,3.7674,3.7614,3.7524,3.7434,3.6941,3.6462,3.6372,3.5923,3.5504,3.5504,3.6104,3.6651,3.6789,3.6323,3.5894,3.5764,3.4652,3.3696,3.3285,3.1329,2.9525,2.8481,2.7328,2.6351,2.5627,2.612,2.6461,2.6461,2.5865,2.544,2.5336,2.4609,2.385,2.3007,2.336,2.3242,2.2321,2.186,2.1235,2.0514,2.001,1.9263,1.8307,1.6025,1.5463,3.5148,3.6887,3.8196,3.8735,3.7805,3.6216,3.4089,3.159,0.0,0.0,2.6458,2.574,2.5581,2.6112,2.7604,3.0805,0.0,0.0,0.0,0.0,4.2119,0.0,0.0,0.0,0.0,0.0,0.0,0.0,0.0,0.0,4.3885,4.4066,4.3409,4.1627,4.1593,4.117,4.029,4.0138,4.007,4.007,4.007,4.007,4.007,4.007,4.007,4.0104,0.0,0.0,4.0077,3.9828,3.9629,3.9431,3.8545,3.8571,3.9095,3.92,3.9245,3.9245,3.9245,3.9245,3.9035,3.7808,3.7778,3.8227,3.8227,3.8616,3.9065,3.9065,3.8661,3.8093,3.7554,3.6941,3.6357,3.5804,3.5594,3.5504,3.5504,3.6151,3.6724,3.671,3.6594,3.6388,3.5803,3.4974,3.3798,3.2113,3.1462,3.0493,2.8569,2.7241,2.6242,2.5528,2.5558,2.5614,2.5614,2.5506,2.5177,2.4576,2.3709,2.2921,2.2128,2.151,2.0744,1.9824,1.9058,1.8126,1.6979,1.6224,1.4651,1.2346,1.0217,0.7643,3.627,3.8051,3.9294,3.9356,3.7481,3.513,3.3165,0.0,0.0,0.0,2.5854,2.5551,2.5546,2.5891,0.0,2.9468,0.0,0.0,0.0,0.0,0.0,0.0,0.0,0.0,0.0,0.0,0.0,0.0,0.0,0.0,4.3918,4.3442,4.2599,4.1221,4.0832,4.0443,4.007,4.007,4.007,4.007,4.007,4.007,4.007,4.007,4.029,4.0679,4.1052,0.0,4.1124,4.0607,4.0356,4.0173,3.9617,3.9424,3.9454,3.9798,3.9709,3.9469,3.9813,3.9709,3.9364,3.9065,3.8945,3.8931,3.8931,3.9155,3.9349,3.899,3.8901,3.8691,3.7674,3.7195,3.6806,3.6163,3.5744,3.5733,3.6538,3.6669,3.6875,3.7672,3.7507,3.7061,3.6327,3.5564,3.4467,3.262,3.1496,3.0172,2.8215,2.6951,2.6084,2.5838,2.5591,2.5398,2.5398,2.4614,2.4026,2.3644,2.2469,2.1146,1.9857,1.8791,1.7573,1.6233,1.5633,1.4236,1.2092,0.9926,0.8122,0.6452,0.4065,0.1294,3.6633,3.8515,3.9795,3.964,3.6977,3.3996,3.2445,2.9358,0.0,2.5687,2.5499,2.5498,2.5525,2.5566,2.614,0.0,2.8588,3.0601,0.0,0.0,0.0,0.0,0.0,0.0,0.0,0.0,0.0,0.0,0.0,0.0,4.3465,4.2612,4.1742,4.0967,4.051,4.0286,4.0286,4.0171,4.0171,4.0286,4.0171,4.007,4.0087,4.024,4.0646,4.1221,4.1542,0.0,0.0,4.1507,4.1148,4.1158,4.0595,4.0172,3.9888,4.0262,4.0172,3.9888,4.0277,4.0068,3.9709,4.0232,3.9963,3.9424,3.9424,3.9424,3.9305,3.8766,3.8901,3.8916,3.7719,3.73,3.7045,3.6432,3.5878,3.5846,3.7071,3.6919,3.6948,3.8157,3.7962,3.7338,3.6722,3.5845,3.4768,3.3332,3.1647,2.9975,2.8306,2.6869,2.5952,2.5948,2.5266,2.4704,2.4385,2.3022,2.2165,2.2165,2.0445,1.894,1.7901,1.5762,1.3616,1.1514,1.0856,0.8998,0.5887,0.2894,0.0858,-0.0362,-0.2982,-0.5441,3.5409,3.7488,3.9032,3.9487,3.6977,3.3996,3.2445,0.0,2.6545,2.5688,2.5505,2.5515,2.5581,2.5605,2.6172,2.7908,0.0,2.976,0.0,0.0,0.0,0.0,0.0,0.0,0.0,0.0,0.0,0.0,0.0,0.0,0.0,4.2181,4.1533,4.0256,4.0611,4.0827,4.0827,4.0319,4.0319,4.0827,4.0336,4.007,4.0104,4.0781,4.1136,4.1271,0.0,0.0,0.0,4.2272,4.2253,4.2627,4.105,4.0726,4.113,4.0591,4.0741,4.113,4.0591,4.0367,4.0322,4.0382,3.9963,3.9424,3.9424,3.9424,3.9409,3.9349,3.8916,3.8317,3.7599,3.6985,3.6417,3.5744,3.5549,3.5569,3.5683,3.6165,3.6661,3.6783,3.6783,3.6661,3.66,3.5265,3.3874,3.3221,3.2199,3.0911,2.9429,2.7477,2.6002,2.5199,2.3791,2.2428,2.1175,2.0147,1.9522,1.9522,1.6936,1.6148,1.7764,1.2675,0.8369,0.5207,0.3666,0.1216,-0.2109,-0.3966,-0.6454,-0.9553,-1.1827,-1.4227,3.5218,3.7128,3.8265,3.8035,3.54,3.2458,3.0781,0.0,2.59,2.5466,2.5447,2.5509,2.5527,2.5618,2.5871,2.6529,0.0,0.0,3.1041,0.0,0.0,0.0,0.0,0.0,0.0,0.0,0.0,0.0,0.0,0.0,0.0,4.1233,4.0999,4.0138,4.0607,4.0903,4.0903,4.1059,4.1241,4.1446,4.0891,4.0834,4.1315,4.1257,4.1694,4.2591,0.0,0.0,0.0,4.3492,4.3087,4.277,4.191,4.1504,4.1399,4.1534,4.125,4.0816,4.0935,4.0472,3.9873,4.0277,3.9963,3.9424,3.9424,3.9424,3.9334,3.8916,3.8901,3.8751,3.7689,3.7225,3.6971,3.6716,3.6641,3.6775,3.7273,3.7192,3.7105,3.7187,3.6825,3.6205,3.5204,3.447,3.3516,3.2148,3.1338,3.0098,2.7986,2.6142,2.3933,2.1,2.0812,2.0443,1.9287,1.7639,1.6747,1.7129,1.3479,1.0767,0.9563,0.5651,0.2393,-0.0141,-0.3909,-0.6569,-0.8164,-1.3045,-1.5556,-1.5742,-1.7595,-1.9464,3.3808,3.5673,3.6757,3.6262,3.3797,3.111,0.0,0.0,2.5447,2.5322,2.539,2.5483,2.5502,2.5586,2.5644,2.5608,0.0,2.6374,2.886,3.0324,0.0,0.0,0.0,0.0,0.0,0.0,0.0,0.0,0.0,0.0,0.0,4.0625,4.0655,4.0121,4.0797,4.1178,4.1178,4.1578,4.181,4.1793,4.1178,4.1242,4.1827,4.1614,4.2219,4.347,0.0,0.0,0.0,4.461,4.4289,4.3841,4.3087,4.2622,4.2395,4.2196,4.1609,4.0995,4.107,4.0487,3.9783,4.0247,3.9963,3.9424,3.9424,3.9424,3.932,3.8841,3.8901,3.8901,3.7943,3.7554,3.7404,3.7404,3.7404,3.7541,3.8116,3.7797,3.7398,3.7296,3.6601,3.5589,3.421,3.3518,3.2749,3.1389,3.0394,2.8938,2.6676,2.5119,2.2863,1.9268,1.7171,1.629,1.7012,1.4104,1.2308,1.2305,0.8302,0.4483,0.1241,-0.1627,-0.4732,-0.824,-1.1538,-1.3579,-1.4357,-1.9934,-2.1992,-2.0936,-2.2445,-2.3965,3.0522,3.2615,3.4257,3.4312,3.2397,3.0297,0.0,2.7286,2.539,2.5303,2.5341,2.5425,2.5482,2.5566,2.5605,2.5608,2.5543,0.0,2.8856,3.0418,0.0,0.0,0.0,0.0,0.0,0.0,0.0,0.0,0.0,0.0,0.0,4.0625,4.0655,4.0121,4.1196,4.181,4.181,4.181,4.181,4.1793,4.1178,4.102,4.1221,4.1948,4.2692,0.0,0.0,0.0,0.0,4.5524,4.5843,4.6307,4.452,4.4177,4.4476,4.2229,4.1788,4.2147,4.0861,4.0397,4.0382,4.0397,3.9963,3.9424,3.9424,3.9424,3.9424,3.9409,3.8931,3.8407,3.8377,3.7898,3.7404,3.7404,3.7404,3.7404,3.7404,3.7404,3.7225,3.6611,3.5712,3.4761,3.4128,3.2464,3.1254,3.118,2.9474,2.7528,2.6018,2.5021,2.3705,2.166,1.2797,0.8974,1.3741,0.9227,0.5532,0.4213,0.0739,-0.2573,-0.5496,-0.8438,-1.3255,-2.0095,-1.9226,-1.9579,-2.1304,-2.3283,-2.4624,-2.5366,-2.6722,-2.8248,2.9602,3.0788,3.1448,3.1584,3.0189,2.8564,2.7659,2.64,2.539,2.5303,2.539,2.5467,2.549,2.559,2.5642,2.5612,2.5589,0.0,0.0,0.0,0.0,0.0,0.0,0.0,0.0,0.0,0.0,0.0,0.0,0.0,0.0,0.0,4.0449,4.0655,4.181,4.2221,4.1793,4.2562,4.2814,4.2528,4.2353,4.2661,4.3306,4.3144,0.0,0.0,0.0,0.0,0.0,4.6288,4.6601,4.7045,4.5246,4.4611,4.4553,4.2727,4.1893,4.1639,4.1205,4.0487,3.9798,4.0247,3.9963,3.9424,3.9424,3.9424,3.9424,3.9424,3.926,3.9095,3.9095,3.8945,3.8886,3.9349,3.911,3.8671,3.8399,3.8002,3.7272,3.5963,3.5099,3.3965,3.1885,3.0711,2.9272,2.7048,2.5311,2.399,2.3318,1.8655,1.3676,0.9194,0.4231,0.2685,0.6118,0.3074,-0.0148,-0.2674,-0.5722,-0.9466,-1.376,-1.5262,-1.7546,-2.0865,-2.3302,-2.5052,-2.6034,-2.772,-2.8529,-2.8545,-2.9389,-2.9995,2.7604,2.8666,2.9218,2.9413,2.8464,2.7328,2.6726,2.5967,2.537,2.5341,2.5409,2.5486,2.5524,2.5585,2.5622,2.56,2.5846,0.0,0.0,0.0,0.0,0.0,0.0,0.0,0.0,0.0,0.0,0.0,0.0,0.0,0.0,0.0,4.0984,4.1578,4.208,4.2162,4.1793,4.2752,4.3015,4.2622,4.2622,4.3071,4.3957,4.3566,0.0,0.0,0.0,0.0,0.0,4.6872,4.7194,4.7373,4.5504,4.4812,4.4584,4.2968,4.1953,4.1339,4.11,4.0307,3.9484,3.9903,3.9753,3.9469,3.9709,3.9783,3.9783,3.9783,3.9963,4.0113,3.9843,3.9963,4.0142,4.0053,3.9594,3.9031,3.8543,3.7416,3.605,3.4617,3.3,3.1026,2.8435,2.79,2.6334,2.1738,1.93,1.7471,1.6102,1.1095,0.5764,0.0953,-0.3659,-0.6053,-0.5024,-0.5751,-0.7392,-1.0289,-1.1837,-1.4698,-1.9365,-2.0565,-2.2091,-2.4266,-2.7,-2.8601,-2.907,-3.0128,-3.0547,-3.0425,-3.1651,-3.2196,0.0,2.634,2.7395,2.7654,2.7091,2.6495,2.6505,2.589,0.0,2.539,2.5399,2.5447,2.5572,2.5535,2.5523,2.5599,0.0,0.0,0.0,0.0,0.0,0.0,0.0,0.0,0.0,0.0,0.0,0.0,0.0,0.0,0.0,0.0,4.208,4.2616,4.208,4.181,4.1853,4.24,4.2483,4.2171,4.2171,4.2636,4.3504,4.3504,0.0,0.0,0.0,0.0,0.0,4.7287,4.7523,4.7241,4.5488,4.4812,4.4584,4.2968,4.1968,4.1369,4.0756,4.0113,3.9559,3.9559,3.9499,3.9544,4.0247,4.0442,4.0412,4.0457,4.0905,4.122,4.0487,4.0771,4.0905,3.9534,3.8865,3.8274,3.7625,3.553,3.3639,3.2765,2.9378,2.5936,2.3608,2.3375,2.1391,1.4977,1.1357,0.8283,0.5118,0.2352,-0.0712,-0.4342,-1.0977,-1.5955,-1.7826,-1.5741,-1.5427,-1.7881,-1.7382,-1.8772,-2.2696,-2.4398,-2.6694,-2.9546,-3.0212,-3.0655,-3.0784,-3.1065,-3.1223,-3.1389,-3.3535,-3.4659,2.3753,0.0,2.4972,2.5533,2.5528,2.5417,0.0,2.5437,2.5303,0.0,0.0,0.0,0.0,2.5506,2.5542,0.0,0.0,0.0,0.0,0.0,0.0,0.0,0.0,0.0,0.0,0.0,0.0,0.0,0.0,0.0,0.0,0.0,4.1853,4.1997,4.1895,4.2021,4.248,4.2162,4.2326,4.2933,4.2933,4.3409,4.4316,4.4316,0.0,0.0,0.0,0.0,4.5827,4.6484,4.6371,4.5713,4.5023,4.4812,4.4584,4.2968,4.2267,4.2102,4.1953,4.1474,4.092,4.092,4.0247,3.9634,4.0801,4.0801,4.0502,4.101,4.1265,4.1068,3.9583,3.9295,3.9078,3.7969,3.6584,3.5251,3.4436,3.1235,2.8877,3.0248,2.3252,1.644,1.4462,1.1239,0.7658,0.3545,0.0836,-0.1793,-0.4572,-0.7659,-1.1578,-1.6835,-1.7917,-1.8767,-1.9968,-1.8165,-1.7896,-2.0268,-2.1955,-2.3816,-2.5959,-2.7569,-2.9139,-3.0637,-3.2137,-3.3185,-3.3772,-3.384,-3.4094,-3.4526,-3.5309,-3.5883,2.2011,2.303,2.4154,2.4828,2.501,2.5046,2.5253,2.5303,2.5303,0.0,0.0,0.0,0.0,0.0,0.0,0.0,0.0,0.0,0.0,0.0,0.0,0.0,0.0,0.0,0.0,0.0,0.0,0.0,0.0,0.0,0.0,0.0,4.2203,4.2203,4.1664,4.1534,4.1853,4.1534,4.187,4.2775,4.2775,4.3439,4.4587,4.4587,0.0,0.0,0.0,0.0,4.5927,4.5769,4.5435,4.4969,4.4356,4.4143,4.4036,4.316,4.2626,4.2357,4.2357,4.1938,4.1217,4.0124,3.9659,3.9616,4.0097,3.9794,3.9497,4.0715,4.0654,4.0003,3.8814,3.8092,3.7206,3.5265,3.2982,3.1308,3.1454,2.5513,1.9936,1.9011,1.2451,0.6352,0.4216,0.0256,-0.3639,-0.6526,-1.1039,-1.4117,-1.4103,-1.6326,-1.9167,-2.2314,-2.2304,-2.2555,-2.3615,-2.3117,-2.2913,-2.3315,-2.4916,-2.6931,-2.934,-3.0592,-3.1916,-3.3288,-3.4276,-3.4776,-3.4871,-3.5044,-3.5316,-3.5612,-3.6507,-3.7128,2.0683,2.2232,2.3879,2.4571,2.4847,2.5041,2.5253,2.5303,2.5322,0.0,0.0,0.0,0.0,2.5493,0.0,0.0,0.0,0.0,0.0,0.0,0.0,0.0,0.0,0.0,0.0,0.0,0.0,0.0,0.0,0.0,0.0,0.0,0.0,4.2577,4.149,4.0856,4.078,4.078,4.1332,4.2445,4.2339,4.3098,4.4587,4.4705,0.0,0.0,0.0,0.0,4.588,4.5117,4.4675,4.4372,4.3585,4.317,4.3076,4.3076,4.2639,4.2006,4.2006,4.1577,4.0705,3.8795,3.8711,3.924,3.8823,3.8068,3.7686,3.8783,3.888,3.8347,3.7118,3.5923,3.4435,3.1834,2.8128,2.535,2.5784,1.7621,0.8991,0.4533,-0.018,-0.4457,-0.7606,-1.0751,-1.362,-1.5777,-2.1933,-2.5392,-2.2829,-2.3903,-2.4928,-2.4928,-2.5717,-2.6676,-2.7754,-2.8647,-2.8641,-2.7281,-2.7726,-2.9445,-3.2642,-3.3512,-3.4622,-3.6132,-3.6131,-3.5878,-3.5357,-3.577,-3.6017,-3.6194,-3.7588,-3.8399,2.1927,2.2394,2.2569,2.33,2.4157,2.491,2.5233,2.5303,2.5303,2.5303,0.0,0.0,0.0,2.5459,0.0,0.0,0.0,0.0,0.0,0.0,0.0,0.0,0.0,0.0,0.0,0.0,0.0,0.0,0.0,0.0,0.0,0.0,0.0,4.1937,4.1251,4.0703,4.0254,4.0204,4.1186,4.3061,4.2533,4.3098,4.4604,4.5246,4.5186,0.0,0.0,4.519,4.3467,4.4417,4.396,4.2784,4.3199,4.2725,4.185,4.185,4.1196,4.0264,4.0264,3.9858,3.9327,3.9529,3.8905,3.8048,3.7591,3.6305,3.4628,3.2803,3.4502,3.5897,3.1901,2.9823,2.8712,2.8173,2.1301,1.3981,1.0371,0.4223,-0.1827,-0.6222,-1.1245,-1.6763,-2.297,-2.3738,-2.3733,-2.4342,-2.7027,-2.889,-2.8677,-2.9397,-2.99,-2.99,-3.0061,-3.0377,-3.1051,-3.1918,-3.2711,-3.3442,-3.2688,-3.3178,-3.5411,-3.6203,-3.6739,-3.7004,-3.6721,-3.6877,-3.7433,-3.7506,-3.7904,-3.8572,-3.9399,-3.9792,1.9816,2.076,2.1637,2.2197,2.3584,2.4766,2.4724,2.5063,2.5409,2.5409,0.0,0.0,0.0,0.0,0.0,0.0,0.0,0.0,0.0,0.0,0.0,0.0,0.0,0.0,0.0,0.0,0.0,0.0,0.0,0.0,0.0,0.0,0.0,0.0,4.1206,4.0655,4.0138,4.007,4.0968,4.2723,4.2428,4.3098,4.4587,4.449,4.461,4.4907,0.0,4.422,4.3913,4.396,4.3527,4.2832,4.2511,4.2029,4.1504,4.0916,4.0318,3.9812,3.9183,3.9169,3.9098,3.7156,3.6573,3.6142,3.357,3.1426,2.9639,2.8764,2.9548,3.0478,2.9524,2.4384,1.9047,1.7468,1.0464,0.2978,-0.165,-0.7148,-1.2859,-1.8389,-2.1799,-2.4751,-2.7893,-2.9199,-2.9732,-2.9549,-3.0804,-3.1818,-3.194,-3.2214,-3.2491,-3.2751,-3.2787,-3.3118,-3.406,-3.4881,-3.5722,-3.647,-3.6574,-3.7135,-3.8228,-3.8876,-3.8973,-3.8499,-3.8334,-3.8469,-3.882,-3.882,-3.9008,-3.9364,-3.988,-4.0101,1.8625,1.9963,2.1238,2.1576,2.3244,2.4794,2.4762,2.5284,2.5842,0.0,0.0,0.0,0.0,0.0,0.0,0.0,0.0,0.0,0.0,0.0,0.0,0.0,0.0,0.0,0.0,0.0,0.0,0.0,0.0,0.0,0.0,0.0,0.0,0.0,4.1206,4.0655,4.0138,4.007,4.0815,4.2286,4.2286,4.3098,4.4587,4.4045,4.4171,4.4755,4.3639,4.3611,4.4219,4.357,4.3155,4.2805,4.1932,4.1239,4.0632,3.9142,3.8608,3.8429,3.7219,3.7299,3.7364,3.3887,3.3031,3.2663,2.8612,2.6383,2.4948,2.3332,2.1502,2.0545,2.3024,1.6759,0.8922,0.5,-0.12,-0.7789,-1.3601,-1.8017,-2.2512,-2.8248,-2.9757,-3.0165,-3.0409,-3.2131,-3.3255,-3.2701,-3.3451,-3.4087,-3.4054,-3.4153,-3.4429,-3.4906,-3.498,-3.5504,-3.6833,-3.7789,-3.8595,-3.9254,-3.9866,-4.029,-4.0566,-4.1028,-4.0984,-4.0318,-4.0299,-4.0185,-3.9996,-3.9996,-3.9902,-3.9712,-4.0023,-4.0195,2.107,2.1668,2.1668,2.1773,2.3311,2.5096,2.6173,2.6525,2.6843,2.7642,0.0,0.0,0.0,0.0,0.0,0.0,0.0,0.0,0.0,0.0,0.0,0.0,0.0,0.0,0.0,0.0,0.0,0.0,0.0,0.0,0.0,0.0,0.0,0.0,0.0,4.0655,4.0138,4.007,4.0815,4.2286,4.2286,4.3098,4.4621,4.5075,4.4511,4.3229,4.4241,4.3853,4.2632,4.309,4.2644,4.1684,4.1587,4.029,3.8094,3.5676,3.4751,3.4642,3.322,3.2514,3.2007,3.0469,2.8701,2.6683,2.3386,2.2992,2.1927,1.4102,0.7438,0.3471,0.6834,0.455,-0.0191,-0.7022,-1.2159,-1.8128,-2.7499,-2.8925,-2.9346,-3.2608,-3.2976,-3.3152,-3.406,-3.4339,-3.4268,-3.3633,-3.464,-3.5419,-3.5268,-3.5822,-3.6422,-3.6946,-3.6985,-3.7648,-3.9191,-4.0547,-4.1902,-4.3384,-4.2475,-4.1914,-4.1957,-4.2297,-4.2446,-4.2389,-4.2389,-4.1988,-4.1167,-4.1167,-4.0786,-4.0081,-4.0356,-4.0473,2.0937,2.1808,2.2319,2.2585,2.3746,0.0,0.0,2.6842,2.7634,2.7425,2.8677,0.0,0.0,0.0,0.0,0.0,0.0,0.0,0.0,0.0,0.0,0.0,0.0,0.0,0.0,0.0,0.0,0.0,0.0,0.0,0.0,0.0,0.0,0.0,0.0,4.0286,4.007,4.007,4.0595,4.1627,4.2066,4.3098,4.4587,4.3711,4.3202,4.2969,4.235,4.1957,4.1758,4.1332,4.0851,4.0244,3.8079,3.6625,3.5507,3.3121,3.242,3.2442,3.0833,3.0187,2.9415,2.6013,2.5679,2.5681,2.0492,1.672,1.2563,0.4583,-0.1159,-0.4524,-0.2398,-0.5265,-1.0576,-1.7953,-2.139,-2.4171,-2.8346,-3.0799,-3.2535,-3.3594,-3.4263,-3.4746,-3.5051,-3.5168,-3.5161,-3.4864,-3.527,-3.5722,-3.5985,-3.6215,-3.6724,-3.7542,-3.8561,-3.9829,-4.1445,-4.2491,-4.3487,-4.4582,-4.3754,-4.3281,-4.3464,-4.3599,-4.3425,-4.2926,-4.2907,-4.2485,-4.1604,-4.1604,-4.118,-4.0356,-4.0457,-4.0489,2.1211,2.2061,2.2626,2.3172,2.4124,0.0,2.6453,2.773,2.8657,2.8588,2.9541,3.0286,0.0,0.0,0.0,0.0,0.0,0.0,0.0,0.0,0.0,0.0,0.0,0.0,0.0,0.0,0.0,0.0,0.0,0.0,0.0,0.0,0.0,0.0,0.0,0.0,4.0121,4.007,4.046,4.1221,4.1711,4.2743,4.4159,4.2899,4.2589,4.2921,4.1351,4.08,4.0882,4.0124,3.9382,3.8447,3.5274,3.4003,3.3575,3.1157,3.0165,2.985,2.8023,2.6823,2.5347,2.1678,2.1437,2.1387,1.5171,0.8909,0.2637,-0.3361,-0.9351,-1.3566,-1.2692,-1.4761,-1.8719,-2.5036,-2.7736,-2.916,-3.0238,-3.2764,-3.4803,-3.4832,-3.5235,-3.5571,-3.5464,-3.5554,-3.5622,-3.5622,-3.5739,-3.6054,-3.6563,-3.6996,-3.7691,-3.879,-4.0277,-4.1661,-4.2857,-4.3758,-4.4569,-4.5223,-4.4747,-4.4518,-4.4701,-4.4701,-4.4451,-4.3893,-4.3893,-4.3282,-4.2061,-4.2061,-4.1431,-4.023,-4.0319,-4.0372,2.2336,2.2691,2.2507,2.3307,0.0,0.0,2.8752,2.9438,2.996,3.1661,3.07,2.9805,3.0664,0.0,0.0,0.0,0.0,0.0,0.0,0.0,0.0,0.0,0.0,0.0,0.0,0.0,0.0,0.0,0.0,0.0,0.0,0.0,0.0,0.0,0.0,0.0,4.0121,4.0121,4.046,4.1187,4.1204,4.1982,4.3399,4.3081,4.294,4.2921,4.1809,4.0761,3.9751,3.9751,3.8433,3.6179,3.3771,3.2885,3.2441,2.9469,2.7606,2.631,2.4486,2.1951,1.9207,1.7813,1.5758,1.2688,0.6591,-0.0481,-0.6907,-0.9527,-1.7431,-2.5057,-2.5082,-2.4198,-2.4221,-2.7474,-3.0768,-3.3568,-3.4975,-3.586,-3.6489,-3.6721,-3.6146,-3.5622,-3.5622,-3.5622,-3.5622,-3.5622,-3.6071,-3.662,-3.7152,-3.8331,-3.9619,-4.0954,-4.2131,-4.2922,-4.3297,-4.4425,-4.5243,-4.5568,-4.5586,-4.5586,-4.5586,-4.5586,-4.5586,-4.5586,-4.5586,-4.4594,-4.2581,-4.2581,-4.1559,-3.9622,-3.9962,-4.0101,2.3618,2.3955,0.0,2.4435,0.0,0.0,0.0,2.8901,0.0,0.0,3.2569,3.2282,3.2463,0.0,0.0,0.0,0.0,0.0,0.0,0.0,0.0,0.0,0.0,0.0,0.0,0.0,0.0,0.0,0.0,0.0,0.0,0.0,0.0,0.0,0.0,0.0,4.0655,4.0286,4.0189,4.0426,4.0428,4.0945,4.182,4.1128,4.0499,3.9888,3.8307,3.7419,3.7037,3.5585,3.3986,3.2142,3.0185,2.9307,2.8871,2.5555,2.4258,2.3846,2.1212,1.911,1.7285,1.5495,1.126,0.5601,-0.0961,-0.7468,-1.3467,-1.8371,-2.1328,-2.3851,-2.7262,-2.8862,-2.9999,-3.1757,-3.3058,-3.4103,-3.5131,-3.5921,-3.6414,-3.6509,-3.6024,-3.5739,-3.6097,-3.5854,-3.5622,-3.5622,-3.6071,-3.6916,-3.8348,-3.9184,-4.0248,-4.1757,-4.2465,-4.3069,-4.3745,-4.4376,-4.4781,-4.4896,-4.4896,-4.5118,-4.5586,-4.5586,-4.5586,-4.5586,-4.5586,-4.4594,-4.2581,-4.2581,-4.1682,-3.9943,-4.0042,-4.0195,2.3628,2.3768,0.0,2.4753,2.5647,2.6802,2.8819,0.0,0.0,0.0,0.0,0.0,0.0,0.0,0.0,0.0,0.0,0.0,0.0,0.0,0.0,0.0,0.0,0.0,0.0,0.0,0.0,0.0,0.0,0.0,0.0,0.0,0.0,0.0,0.0,0.0,4.0903,4.0368,3.9952,3.961,3.9603,3.9519,3.9366,3.9386,3.8983,3.8045,3.577,3.479,3.4641,3.3078,3.1537,3.0117,2.8487,2.7277,2.6104,2.3327,2.1949,2.0933,1.8431,1.6592,1.4783,1.1208,0.6252,0.0286,-0.6145,-1.2042,-1.7531,-2.2435,-2.3845,-2.4884,-2.9057,-3.1223,-3.2595,-3.3871,-3.436,-3.4661,-3.4996,-3.5539,-3.5825,-3.5343,-3.52,-3.5328,-3.5654,-3.5402,-3.5299,-3.5577,-3.6249,-3.7408,-3.932,-4.0042,-4.0983,-4.2598,-4.3063,-4.3457,-4.396,-4.4392,-4.458,-4.458,-4.458,-4.4781,-4.5201,-4.5203,-4.5263,-4.54,-4.54,-4.4573,-4.2867,-4.2692,-4.1708,-4.0013,-4.0072,-4.012,2.2967,2.2781,0.0,2.4525,2.5698,0.0,2.9221,3.2253,3.4788,0.0,0.0,0.0,0.0,0.0,0.0,0.0,0.0,0.0,0.0,0.0,0.0,0.0,0.0,0.0,0.0,0.0,0.0,0.0,0.0,0.0,0.0,0.0,0.0,0.0,0.0,0.0,4.0995,4.0417,3.9731,0.0,3.8854,3.8044,3.6646,3.7822,3.7796,3.6615,3.3971,3.279,3.2633,3.1627,3.0556,2.9366,2.8225,2.6239,2.3909,2.2337,2.0179,1.7867,1.6298,1.4339,1.1599,0.5905,0.0934,-0.3851,-0.9848,-1.5147,-1.9691,-2.2936,-2.5255,-2.7441,-3.0295,-3.1656,-3.2669,-3.4018,-3.4776,-3.5048,-3.4499,-3.4761,-3.4751,-3.3545,-3.3904,-3.4429,-3.4477,-3.4543,-3.483,-3.5543,-3.6545,-3.7966,-4.0022,-4.0771,-4.1735,-4.3314,-4.3772,-4.3955,-4.3955,-4.4308,-4.4501,-4.4501,-4.4501,-4.4501,-4.4501,-4.4553,-4.4732,-4.5052,-4.5052,-4.4459,-4.3253,-4.2845,-4.1688,-3.9939,-4.009,-3.9977,2.394,2.3708,0.0,0.0,2.6787,2.9224,3.1779,3.3491,3.4382,0.0,0.0,0.0,0.0,0.0,0.0,0.0,0.0,0.0,0.0,0.0,0.0,0.0,0.0,0.0,0.0,0.0,0.0,0.0,0.0,0.0,0.0,0.0,0.0,0.0,0.0,4.175,4.1621,4.0594,3.9731,0.0,3.8302,3.7557,3.6615,3.6128,3.4665,3.2504,3.1822,3.1135,3.043,3.0209,2.896,2.7213,2.688,2.4857,2.1788,2.0542,1.8465,1.619,1.5886,1.2247,0.6819,0.173,-0.3431,-0.8941,-1.6309,-1.9823,-2.1847,-2.4476,-2.6515,-2.8369,-3.0164,-3.1144,-3.172,-3.2125,-3.3352,-3.4293,-3.37,-3.3641,-3.3372,-3.2217,-3.2579,-3.321,-3.3736,-3.4244,-3.4955,-3.6079,-3.6803,-3.7966,-4.0022,-4.0771,-4.1735,-4.3314,-4.3563,-4.3597,-4.3597,-4.3679,-4.3744,-4.3744,-4.3744,-4.3744,-4.3744,-4.428,-4.4631,-4.4726,-4.4726,-4.4094,-4.2894,-4.281,-4.1885,-4.0205,-4.0509,-4.04,2.3756,0.0,0.0,2.578,0.0,2.9312,3.1961,3.2901,0.0,0.0,0.0,0.0,0.0,0.0,0.0,0.0,0.0,0.0,0.0,0.0,0.0,0.0,0.0,0.0,0.0,0.0,0.0,0.0,0.0,0.0,0.0,0.0,0.0,0.0,4.1633,4.1109,4.0695,3.9937,3.8805,3.7389,3.7657,3.672,3.4662,3.4167,3.2947,3.118,3.0696,3.0279,2.9792,2.9197,2.8039,2.6483,2.5891,2.3537,2.0279,1.8978,1.7338,1.5337,1.217,0.7396,0.1923,-0.2819,-0.8397,-1.4188,-1.9151,-2.1174,-2.2421,-2.5578,-2.7144,-2.813,-2.9171,-2.9685,-2.9856,-2.9562,-3.0712,-3.1901,-3.194,-3.1654,-3.1375,-3.1116,-3.1631,-3.2453,-3.3421,-3.444,-3.5283,-3.5924,-3.6481,-3.7466,-3.9301,-4.0239,-4.1338,-4.296,-4.3339,-4.3497,-4.3497,-4.3497,-4.3497,-4.3497,-4.3497,-4.3497,-4.3497,-4.3868,-4.4136,-4.429,-4.4318,-4.3998,-4.3364,-4.3156,-4.2426,-4.1243,-4.15,-4.1203,2.3371,0.0,2.412,2.6738,2.7661,0.0,3.1096,3.1733,0.0,0.0,0.0,0.0,0.0,0.0,0.0,0.0,0.0,0.0,0.0,0.0,0.0,0.0,0.0,0.0,0.0,0.0,0.0,0.0,0.0,0.0,0.0,0.0,4.1644,4.113,4.072,4.017,3.9509,3.9026,3.7769,3.571,3.661,3.5412,3.2289,3.2289,3.1771,3.0908,3.0139,2.9702,2.9443,2.8518,2.736,2.6058,2.4946,2.2252,1.8977,1.7913,1.5903,1.2991,0.692,0.17,-0.3045,-0.8162,-1.3457,-1.8248,-2.0421,-2.1479,-2.2723,-2.6237,-2.7179,-2.733,-2.7814,-2.7944,-2.7783,-2.7045,-2.7816,-2.8935,-2.9769,-2.9468,-2.9314,-3.02,-3.1212,-3.2325,-3.3572,-3.48,-3.5622,-3.5622,-3.6071,-3.6953,-3.8486,-3.9536,-4.0759,-4.2397,-4.305,-4.3375,-4.3375,-4.3444,-4.3497,-4.3497,-4.3497,-4.3497,-4.3497,-4.3497,-4.3612,-4.3912,-4.3893,-4.3893,-4.3893,-4.3531,-4.2984,-4.232,-4.253,-4.206,2.3879,0.0,2.4685,0.0,2.7113,2.8253,0.0,0.0,0.0,0.0,0.0,0.0,0.0,0.0,0.0,0.0,0.0,0.0,0.0,0.0,0.0,0.0,0.0,0.0,0.0,0.0,0.0,0.0,0.0,0.0,0.0,4.0543,4.0487,4.1093,4.0161,3.9598,3.9492,3.8511,3.7286,3.571,3.4627,3.3025,3.1046,3.1046,3.0659,3.0011,2.9856,2.9275,2.8347,2.8176,2.686,2.4946,2.37,2.0968,1.7679,1.8013,1.3112,0.5568,0.1283,-0.2938,-0.7831,-1.5594,-1.7984,-1.8498,-2.169,-2.3276,-2.4302,-2.5991,-2.6466,-2.6466,-2.6556,-2.6556,-2.6414,-2.5821,-2.5797,-2.6258,-2.753,-2.773,-2.8076,-2.9438,-3.1678,-3.3578,-3.4364,-3.5098,-3.5622,-3.5622,-3.6071,-3.6953,-3.8486,-3.923,-4.0197,-4.176,-4.2462,-4.2826,-4.2826,-4.325,-4.3497,-4.3497,-4.3497,-4.3497,-4.3497,-4.3497,-4.3513,-4.3582,-4.3582,-4.3582,-4.3582,-4.352,-4.3082,-4.232,-4.2912,-4.2737,2.4192,2.4426,2.4746,0.0,2.653,2.7412,2.9248,0.0,0.0,0.0,0.0,0.0,0.0,0.0,0.0,0.0,0.0,0.0,0.0,0.0,0.0,0.0,0.0,0.0,0.0,0.0,0.0,0.0,0.0,0.0,3.9735,3.9845,3.9863,3.9772,3.9192,0.0,3.8199,3.7566,3.6771,3.5694,3.3824,3.2203,3.0798,3.0798,3.0081,2.8863,2.9176,2.8971,2.8497,2.7577,2.6084,2.4304,2.2475,1.9366,1.5696,1.3983,0.8987,0.245,-0.1952,-0.7036,-1.2114,-1.5869,-1.778,-1.9007,-2.1362,-2.2665,-2.3619,-2.4922,-2.5272,-2.5289,-2.5218,-2.5204,-2.4995,-2.4253,-2.4452,-2.505,-2.6037,-2.685,-2.8061,-3.0256,-3.2222,-3.3799,-3.446,-3.5161,-3.5622,-3.5622,-3.5827,-3.6378,-3.7501,-3.8434,-3.9441,-4.0561,-4.1912,-4.2711,-4.2711,-4.3178,-4.3497,-4.3497,-4.3497,-4.3497,-4.3497,-4.3497,-4.3497,-4.3497,-4.3497,-4.3497,-4.3497,-4.3497,-4.3314,-4.2999,-4.368,-4.358,0.0,0.0,2.4571,2.5418,2.5963,2.6715,0.0,0.0,0.0,0.0,0.0,0.0,0.0,0.0,0.0,0.0,0.0,0.0,0.0,0.0,0.0,0.0,0.0,0.0,0.0,0.0,0.0,0.0,0.0,0.0,3.8719,3.9276,3.9313,3.8726,3.8133,3.7512,3.6909,3.612,3.5531,3.515,3.3196,3.1605,3.0342,3.0342,2.9346,2.7733,2.8561,2.8686,2.8195,2.6553,2.4906,2.3112,2.04,1.6946,1.301,0.9714,0.4792,-0.0717,-0.5488,-1.0285,-1.4514,-1.5493,-1.7145,-1.9133,-2.0849,-2.17,-2.2334,-2.3451,-2.3806,-2.3827,-2.3742,-2.3813,-2.3826,-2.3245,-2.3884,-2.4838,-2.5741,-2.6997,-2.8713,-3.1262,-3.2592,-3.3611,-3.4667,-3.5005,-3.5161,-3.5316,-3.5362,-3.5631,-3.6404,-3.753,-3.8577,-3.9497,-4.1131,-4.2264,-4.2462,-4.3087,-4.3497,-4.3497,-4.3497,-4.3497,-4.3497,-4.3497,-4.3497,-4.3497,-4.3497,-4.3497,-4.3497,-4.3597,-4.3631,-4.3646,-4.4392,-4.4386,0.0,2.3593,0.0,2.4479,2.546,0.0,0.0,0.0,0.0,0.0,0.0,0.0,0.0,0.0,0.0,0.0,0.0,0.0,0.0,0.0,0.0,0.0,0.0,0.0,0.0,0.0,0.0,0.0,0.0,0.0,3.8719,3.8744,3.8744,3.8707,3.7037,3.6112,3.6059,3.3856,3.3072,3.3694,3.2206,3.0717,2.9085,2.9085,2.821,2.6697,2.8235,2.8023,2.6476,2.4941,2.3006,2.0703,1.665,1.2906,0.9456,0.6599,0.1034,-0.5743,-1.0254,-1.2508,-1.3863,-1.681,-1.7822,-1.8405,-2.0934,-2.1191,-2.0871,-2.1614,-2.1932,-2.2015,-2.2051,-2.2567,-2.3125,-2.3138,-2.4266,-2.57,-2.7004,-2.8438,-3.0067,-3.206,-3.2544,-3.3259,-3.5182,-3.4496,-3.3937,-3.4576,-3.464,-3.4904,-3.563,-3.641,-3.7428,-3.8885,-4.0097,-4.1079,-4.1782,-4.2847,-4.3497,-4.3497,-4.3497,-4.3497,-4.3497,-4.3497,-4.3497,-4.3497,-4.3497,-4.3497,-4.3497,-4.3836,-4.3986,-4.3986,-4.4713,-4.5055,0.0,0.0,0.0,2.3808,2.4678,0.0,0.0,0.0,0.0,0.0,0.0,0.0,0.0,0.0,0.0,0.0,0.0,0.0,0.0,0.0,0.0,0.0,0.0,0.0,0.0,0.0,0.0,0.0,0.0,0.0,3.8719,3.8707,3.8469,3.7936,3.6678,3.5671,3.5053,3.3822,3.3342,3.3582,3.2145,3.0896,2.9827,2.9254,2.8565,2.7773,2.7172,2.6569,2.59,2.3657,2.1207,1.8538,1.5686,1.2361,0.8756,0.5932,0.1404,-0.3896,-0.7955,-1.0039,-1.1289,-1.3388,-1.4072,-1.4462,-1.6504,-1.6987,-1.7032,-1.8257,-1.9062,-1.9772,-2.0705,-2.1608,-2.2555,-2.3649,-2.4279,-2.5036,-2.6376,-2.7855,-2.9343,-3.0903,-3.1565,-3.2273,-3.3484,-3.3646,-3.3684,-3.3937,-3.3987,-3.4068,-3.4343,-3.535,-3.632,-3.6837,-3.872,-4.0258,-4.1014,-4.2104,-4.2947,-4.3461,-4.3497,-4.3497,-4.3497,-4.3497,-4.3597,-4.3836,-4.3836,-4.3726,-4.3497,-4.3836,-4.4016,-4.4016,-4.4757,-4.5096,2.0194,0.0,0.0,0.0,0.0,0.0,0.0,0.0,0.0,0.0,0.0,0.0,0.0,0.0,0.0,0.0,0.0,0.0,0.0,0.0,0.0,0.0,0.0,0.0,0.0,0.0,0.0,0.0,0.0,0.0,3.8334,3.856,3.8052,3.6653,3.5951,3.5151,3.4134,3.3773,3.3561,3.3582,3.2407,3.1306,3.0269,2.938,2.8695,2.8129,2.6144,2.5382,2.5321,2.2621,1.9916,1.7359,1.4405,1.1163,0.7782,0.492,0.1077,-0.305,-0.6155,-0.8075,-0.9336,-1.039,-1.0717,-1.106,-1.3124,-1.3749,-1.4006,-1.5405,-1.6448,-1.7514,-1.9145,-2.0501,-2.1791,-2.3085,-2.3441,-2.3755,-2.4873,-2.6361,-2.7936,-2.9451,-2.9906,-3.0433,-3.1616,-3.2195,-3.2586,-3.2786,-3.3098,-3.3314,-3.3535,-3.4588,-3.5498,-3.5992,-3.7755,-3.9365,-4.0613,-4.1504,-4.2461,-4.3442,-4.3497,-4.3548,-4.3679,-4.3679,-4.3836,-4.4175,-4.4204,-4.4076,-4.3868,-4.4204,-4.4354,-4.4382,-4.4988,-4.5282,0.0,0.0,0.0,0.0,0.0,0.0,0.0,0.0,0.0,0.0,0.0,0.0,0.0,0.0,0.0,0.0,0.0,0.0,0.0,0.0,0.0,0.0,0.0,0.0,0.0,0.0,0.0,0.0,0.0,3.8609,3.7537,3.8175,3.7449,3.4959,3.4801,3.4327,3.3406,3.3466,3.3534,3.3582,3.2949,3.1777,3.0329,2.9428,2.8529,2.7604,2.5234,2.4478,2.4748,2.1799,1.9284,1.7,1.2804,0.9256,0.6244,0.3278,-0.0152,-0.3666,-0.5469,-0.7044,-0.8268,-0.8175,-0.8198,-0.8723,-1.1211,-1.1972,-1.2197,-1.3179,-1.4135,-1.5219,-1.7262,-1.9159,-2.0771,-2.1487,-2.1649,-2.1872,-2.2598,-2.405,-2.5812,-2.7802,-2.7609,-2.7762,-2.9763,-3.0192,-3.048,-3.1157,-3.2043,-3.2779,-3.3382,-3.4153,-3.5152,-3.6518,-3.7257,-3.8472,-4.0542,-4.1202,-4.2105,-4.3442,-4.3497,-4.3646,-4.3986,-4.4016,-4.4175,-4.4624,-4.4606,-4.4606,-4.4631,-4.4943,-4.5096,-4.5096,-4.5438,-4.5586,1.7049,0.0,0.0,0.0,0.0,0.0,0.0,2.6223,0.0,0.0,0.0,0.0,0.0,0.0,0.0,0.0,0.0,0.0,0.0,0.0,0.0,0.0,0.0,0.0,0.0,0.0,0.0,0.0,3.8134,3.8096,3.6968,3.6353,3.5399,3.4089,3.3969,3.3748,3.3406,3.3466,3.3534,3.3582,3.2949,3.2089,3.1131,2.9793,2.9086,2.868,2.5679,2.4128,2.3456,2.0596,1.8156,1.5881,1.3251,0.9821,0.6318,0.5437,0.2544,-0.1077,-0.1551,-0.3019,-0.455,-0.456,-0.5579,-0.6984,-0.7711,-0.8397,-0.918,-1.0232,-1.1156,-1.2487,-1.5088,-1.7774,-1.986,-1.9868,-2.0426,-2.0991,-2.1146,-2.1596,-2.2578,-2.4854,-2.5833,-2.6647,-2.7834,-2.8745,-2.9628,-3.0466,-3.1144,-3.1871,-3.2715,-3.3895,-3.4945,-3.5876,-3.7291,-3.8841,-4.0542,-4.1541,-4.2514,-4.3442,-4.3497,-4.3646,-4.3986,-4.4016,-4.4318,-4.4943,-4.4966,-4.5074,-4.5303,-4.5161,-4.5096,-4.5096,-4.5438,-4.5586,0.0,0.0,0.0,0.0,0.0,0.0,2.4316,2.5383,0.0,0.0,0.0,0.0,0.0,0.0,0.0,0.0,0.0,0.0,0.0,0.0,0.0,0.0,0.0,0.0,0.0,0.0,0.0,0.0,3.7246,3.7349,3.6581,3.557,3.4618,3.3718,3.3616,3.3382,3.2933,3.3583,3.3641,3.3115,3.3056,3.2322,3.1034,2.9857,2.8999,2.8274,2.5546,2.384,2.2787,2.0361,1.7846,1.5336,1.3697,1.1001,0.7855,0.6718,0.473,0.2484,0.1634,0.0627,-0.0395,-0.0781,-0.1655,-0.2797,-0.4108,-0.4479,-0.4704,-0.5941,-0.7782,-1.0018,-1.2532,-1.5492,-1.7684,-1.7504,-1.8532,-1.9617,-2.0009,-2.0074,-2.0557,-2.2287,-2.3665,-2.4796,-2.5517,-2.7037,-2.8524,-2.9586,-3.0373,-3.1439,-3.3239,-3.4162,-3.5126,-3.6418,-3.7734,-3.9112,-4.0577,-4.1504,-4.2426,-4.3442,-4.3497,-4.3744,-4.4233,-4.4233,-4.4587,-4.5283,-4.5322,-4.54,-4.5586,-4.54,-4.5322,-4.5322,-4.5513,-4.5586,0.0,0.0,0.0,0.0,0.0,0.0,2.3111,2.4517,2.5795,0.0,0.0,0.0,0.0,0.0,0.0,0.0,0.0,0.0,0.0,0.0,0.0,0.0,0.0,0.0,0.0,0.0,3.6001,3.5162,3.5923,3.6311,3.6038,3.5293,3.4473,3.3594,3.358,3.3208,3.2449,3.3736,3.3802,3.2636,3.3128,3.2373,3.0492,2.9594,2.8467,2.7048,2.5114,2.3586,2.2317,2.05,1.8157,1.5562,1.4292,1.2404,1.0098,0.7597,0.6531,0.6086,0.4137,0.3651,0.3792,0.2906,0.264,0.214,-0.0726,-0.08,-0.0159,-0.167,-0.4578,-0.775,-1.0043,-1.2795,-1.498,-1.5089,-1.6678,-1.8327,-1.911,-1.9365,-1.9683,-2.0579,-2.1771,-2.2946,-2.367,-2.551,-2.7434,-2.9018,-2.9979,-3.1501,-3.4343,-3.4829,-3.563,-3.7562,-3.8333,-3.9315,-4.0677,-4.1279,-4.2159,-4.3424,-4.3497,-4.3823,-4.4553,-4.458,-4.4919,-4.5586,-4.5586,-4.5586,-4.5586,-4.5586,-4.5586,-4.5586,-4.5586,-4.5586,0.0,0.0,0.0,0.0,0.0,0.0,2.3041,2.4357,2.5447,0.0,0.0,0.0,0.0,0.0,0.0,0.0,0.0,0.0,0.0,0.0,0.0,0.0,0.0,0.0,0.0,0.0,3.6201,3.5179,3.4854,3.4575,3.4311,3.4137,3.3637,3.2763,3.3298,3.3469,3.3186,3.3534,3.3565,3.3374,3.2426,3.1474,3.0477,2.9268,2.7979,2.6623,2.5119,2.3027,2.0653,1.9962,1.8795,1.725,1.5545,1.3122,1.0444,0.9175,0.7798,0.6434,0.5839,0.5738,0.5755,0.5777,0.4166,0.2126,0.1489,0.0703,-0.0234,-0.1718,-0.3452,-0.55,-0.8134,-1.1534,-1.441,-1.5054,-1.7161,-1.911,-1.9243,-1.9814,-2.0568,-2.1311,-2.2107,-2.3332,-2.5266,-2.6293,-2.7773,-3.0455,-3.1427,-3.2581,-3.4408,-3.5463,-3.6434,-3.7466,-3.843,-3.9641,-4.1153,-4.1814,-4.2548,-4.3442,-4.3497,-4.3823,-4.4553,-4.458,-4.4919,-4.5586,-4.5586,-4.5586,-4.5586,-4.5586,-4.5586,-4.5586,-4.5586,-4.5586,0.0,0.0,0.0,2.1248,0.0,0.0,0.0,2.4418,2.556,0.0,0.0,0.0,0.0,0.0,0.0,0.0,0.0,0.0,0.0,0.0,0.0,0.0,0.0,0.0,0.0,0.0,3.576,3.4945,3.4614,3.426,3.3815,3.3606,3.3196,3.2517,3.2633,3.2403,3.1884,3.2266,3.2154,3.1533,3.1243,3.0385,2.9026,2.8039,2.6663,2.5024,2.3719,2.2169,2.0546,2.0109,1.9438,1.8439,1.6618,1.4301,1.1886,1.1083,0.958,0.7848,0.7293,0.6756,0.6394,0.6492,0.4841,0.2648,0.143,0.0079,-0.1182,-0.1863,-0.3383,-0.572,-0.9516,-1.2515,-1.4684,-1.5396,-1.7382,-1.9397,-2.0472,-2.1011,-2.1849,-2.3676,-2.4292,-2.4911,-2.6302,-2.7097,-2.8519,-3.1373,-3.2296,-3.3403,-3.5309,-3.6276,-3.7214,-3.8325,-3.9162,-4.0131,-4.1284,-4.1938,-4.2635,-4.3442,-4.3646,-4.4004,-4.458,-4.4757,-4.5096,-4.5586,-4.5586,-4.5586,-4.5586,-4.5586,-4.5586,-4.5586,-4.5586,-4.5586,0.0,0.0,0.0,0.0,0.0,2.4208,0.0,0.0,0.0,0.0,0.0,0.0,0.0,0.0,0.0,0.0,0.0,0.0,0.0,0.0,0.0,0.0,0.0,0.0,0.0,0.0,3.463,3.445,3.4256,3.4035,3.3797,3.3494,3.3075,3.2517,3.2267,3.1606,3.0507,3.1112,3.0806,2.9534,2.9836,2.9103,2.738,2.6696,2.5334,2.3381,2.238,2.145,2.0523,2.0029,1.9365,1.851,1.7135,1.5236,1.3216,1.2078,1.0571,0.8899,0.7872,0.6809,0.5876,0.5596,0.4218,0.2268,-0.0,-0.1654,-0.2731,-0.2876,-0.4865,-0.8118,-1.272,-1.4578,-1.5566,-1.6602,-1.8283,-2.0241,-2.2236,-2.2819,-2.3668,-2.6217,-2.6799,-2.7035,-2.7526,-2.8134,-2.9585,-3.25,-3.3281,-3.4267,-3.6361,-3.7032,-3.779,-3.8982,-3.9713,-4.0474,-4.1252,-4.1953,-4.2669,-4.3542,-4.3849,-4.4204,-4.4682,-4.503,-4.5322,-4.5586,-4.5586,-4.5586,-4.5586,-4.5586,-4.5586,-4.5586,-4.5586,-4.562,0.0,0.0,0.0,0.0,2.482,0.0,0.0,0.0,0.0,0.0,0.0,0.0,0.0,0.0,0.0,0.0,0.0,0.0,0.0,0.0,0.0,0.0,0.0,0.0,0.0,0.0,0.0,3.3448,3.2617,3.2562,3.3742,3.3762,3.3343,3.2517,3.307,3.2723,3.1275,3.1426,3.0863,2.9601,2.8464,2.751,2.6677,2.5998,2.4665,2.2796,2.2641,2.1223,1.8958,1.8634,1.767,1.6412,1.6388,1.5233,1.323,1.0599,0.9029,0.7994,0.6854,0.5305,0.3603,0.2821,0.1146,-0.0895,-0.2788,-0.4039,-0.4953,-0.5802,-0.9378,-1.3651,-1.7056,-1.7298,-1.7243,-1.9369,-2.128,-2.3001,-2.4367,-2.5282,-2.6283,-2.7768,-2.8614,-2.9246,-2.9884,-3.0089,-3.125,-3.4539,-3.511,-3.5633,-3.6935,-3.7522,-3.7881,-3.8042,-3.9192,-4.0276,-4.1068,-4.1849,-4.2765,-4.3869,-4.3986,-4.4299,-4.5011,-4.5381,-4.5568,-4.5586,-4.5586,-4.5586,-4.5586,-4.5586,-4.5586,-4.5586,-4.5586,-4.5665,0.0,0.0,0.0,0.0,0.0,0.0,0.0,0.0,2.7719,0.0,0.0,0.0,0.0,0.0,0.0,0.0,0.0,0.0,0.0,0.0,0.0,0.0,0.0,0.0,0.0,0.0,0.0,0.0,0.0,3.2159,3.3054,3.3078,3.2872,3.2517,3.1899,3.1096,3.0137,2.941,2.8643,2.7736,2.6879,2.6093,2.5403,2.4811,2.3626,2.2097,2.1735,2.0938,1.9756,1.8734,1.7525,1.6321,1.5917,1.4408,1.234,1.1236,0.8797,0.5851,0.4599,0.2747,0.0523,-0.2052,-0.5057,-0.7728,-0.8314,-0.8722,-0.9449,-1.1254,-1.367,-1.6316,-1.9041,-2.0159,-2.0978,-2.2373,-2.361,-2.4861,-2.616,-2.6726,-2.7549,-2.9437,-3.0451,-3.1417,-3.2715,-3.2829,-3.3556,-3.6063,-3.6681,-3.7029,-3.7524,-3.8032,-3.8547,-3.9021,-3.9566,-4.0414,-4.1699,-4.2121,-4.2797,-4.393,-4.4382,-4.4858,-4.5362,-4.5532,-4.5586,-4.5586,-4.5586,-4.5586,-4.5586,-4.5586,-4.5586,-4.5586,-4.5586,-4.5618,2.595,0.0,0.0,0.0,0.0,0.0,0.0,0.0,0.0,0.0,0.0,0.0,0.0,0.0,0.0,0.0,0.0,0.0,0.0,0.0,0.0,0.0,0.0,0.0,0.0,0.0,0.0,0.0,0.0,0.0,3.2391,3.2276,3.2133,3.2015,3.0679,2.9606,2.8909,2.7842,2.6904,2.6099,2.5591,2.4986,2.4298,2.3862,2.3051,2.1946,2.1307,2.0819,2.027,1.8423,1.7137,1.5984,1.3667,1.1211,0.8925,0.9565,0.7272,0.363,0.17,-0.099,-0.4104,-0.7336,-1.0331,-1.2653,-1.3324,-1.3441,-1.3967,-1.6681,-1.7958,-1.919,-2.1703,-2.3351,-2.4623,-2.5606,-2.6255,-2.6993,-2.8335,-2.8785,-2.9501,-3.1283,-3.2531,-3.3682,-3.5119,-3.5063,-3.5434,-3.7143,-3.7754,-3.8092,-3.8223,-3.8548,-3.9116,-3.9909,-4.0129,-4.0781,-4.2176,-4.257,-4.3206,-4.4252,-4.49,-4.5342,-4.5586,-4.5586,-4.5586,-4.5586,-4.5586,-4.5586,-4.5586,-4.5586,-4.5586,-4.5586,-4.5586,-4.562,0.0,0.0,0.0,2.7333,0.0,0.0,0.0,0.0,2.8953,0.0,0.0,0.0,0.0,0.0,0.0,0.0,0.0,0.0,0.0,0.0,0.0,0.0,0.0,0.0,0.0,0.0,0.0,0.0,0.0,0.0,3.1913,3.1635,3.1223,3.0768,3.0023,2.9141,2.8129,2.7558,2.6667,2.5447,2.4911,2.4298,2.3625,2.3625,2.326,2.2649,2.1946,2.0913,1.9531,1.7081,1.5784,1.4744,0.8752,0.4621,0.2238,0.3749,0.342,0.1562,-0.1854,-0.628,-1.0729,-1.2653,-1.3172,-1.3571,-1.6674,-1.7423,-1.7951,-2.1336,-2.2325,-2.3018,-2.6078,-2.6937,-2.7412,-2.9127,-2.9533,-2.9918,-3.1196,-3.2083,-3.2838,-3.3476,-3.4854,-3.6043,-3.6618,-3.6291,-3.6381,-3.7664,-3.8186,-3.8552,-3.8998,-3.9072,-3.9388,-4.0179,-4.0745,-4.1405,-4.2231,-4.3323,-4.428,-4.5011,-4.54,-4.5586,-4.5586,-4.5586,-4.5586,-4.5586,-4.5586,-4.5586,-4.5586,-4.5586,-4.5586,-4.5586,-4.5586,-4.5665,0.0,0.0,2.8657,2.8733,0.0,0.0,0.0,0.0,0.0,0.0,0.0,0.0,0.0,0.0,0.0,0.0,0.0,0.0,0.0,0.0,0.0,0.0,0.0,0.0,0.0,0.0,0.0,0.0,0.0,0.0,0.0,3.0547,3.043,3.0004,2.8956,2.8233,2.7891,2.6574,2.5695,2.5274,2.4341,2.3819,2.3595,2.3595,2.3039,2.1993,2.126,1.9914,1.8028,1.5094,1.2413,0.9637,0.4173,0.0384,-0.1949,-0.1205,-0.1681,-0.3334,-0.7391,-1.0953,-1.3838,-1.4466,-1.5615,-1.6991,-1.8572,-1.9533,-2.0554,-2.3155,-2.4225,-2.5124,-2.7661,-2.8727,-2.942,-3.0573,-3.12,-3.1689,-3.209,-3.2826,-3.3563,-3.4067,-3.5612,-3.7009,-3.744,-3.7998,-3.8451,-3.8641,-3.8989,-3.9252,-3.9414,-3.9238,-3.9639,-4.1007,-4.133,-4.1976,-4.3299,-4.4231,-4.483,-4.5074,-4.5419,-4.5586,-4.5586,-4.5586,-4.5586,-4.5586,-4.5586,-4.5586,-4.5586,-4.5586,-4.5586,-4.5586,-4.5586,-4.5618,2.7435,2.8388,0.0,0.0,2.9948,0.0,2.9854,0.0,0.0,0.0,0.0,0.0,0.0,0.0,0.0,0.0,0.0,0.0,0.0,2.5604,0.0,0.0,0.0,0.0,0.0,0.0,0.0,0.0,0.0,0.0,0.0,0.0,2.8704,2.8593,2.7572,2.7045,2.7157,2.588,2.5089,2.4894,2.4032,2.3595,2.3595,2.3377,2.2548,2.1152,1.9911,1.8553,1.6824,1.258,0.8806,0.5253,0.0378,-0.37,-0.6713,-0.6169,-0.6788,-0.8351,-1.1441,-1.4092,-1.6146,-1.6671,-1.8077,-1.9787,-2.0758,-2.169,-2.2834,-2.5062,-2.6205,-2.7296,-2.9549,-3.0769,-3.1629,-3.2401,-3.2938,-3.3273,-3.3273,-3.4138,-3.502,-3.5303,-3.6841,-3.8197,-3.8452,-3.9218,-3.9668,-3.9314,-3.9576,-3.9775,-3.9775,-3.9844,-4.0397,-4.1762,-4.2077,-4.2808,-4.4269,-4.483,-4.514,-4.5263,-4.5495,-4.5586,-4.5586,-4.5586,-4.5586,-4.5586,-4.5586,-4.5586,-4.5586,-4.5586,-4.5586,-4.5586,-4.5586,-4.5586]},{"header":{"parameterUnit":"m.s-1","parameterCategory":1,"la1":30.6,"la2":29.2853,"lo1":-89.7004,"lo2":-87.6739,"dy":0.0162,"dx":0.0183,"nx":112,"ny":82,"refTime":"2024-03-16T06:00:00:Z","depth":0,"parameterNumber":3,"parameterNumberName":"V-component_of_WINDS"},"data":[0.0,0.0,0.0,0.0,0.0,0.0,0.0,0.0,0.0,0.0,0.0,0.0,0.0,0.0,0.0,0.0,0.0,0.0,0.0,0.0,0.0,0.0,0.0,0.0,0.0,0.0,0.0,0.0,0.0,0.0,0.0,0.0,0.0,0.0,0.0,0.0,0.0,0.0,0.0,0.0,0.0,0.0,0.0,0.0,0.0,0.0,0.0,0.0,0.0,0.0,0.0,0.0,0.0,0.0,0.0,0.0,0.0,0.0,0.0,0.0,0.0,0.0,0.0,0.0,0.0,0.0,0.0,0.0,0.0,0.0,0.0,0.0,0.0,0.0,0.0,0.0,0.0,0.0,0.0,0.0,0.0,0.0,0.0,0.0,0.0,0.0,0.0,0.0,0.0,0.0,0.0,-0.726,-0.8018,-0.8595,-0.8776,-0.8629,-0.7663,-0.5712,0.0,0.0,0.0,0.0,0.0,0.0,0.0,0.0,0.0,0.0,0.0,0.0,0.0,0.0,0.0,0.0,0.0,0.0,0.0,0.0,0.0,0.0,0.0,0.0,0.0,0.0,0.0,0.0,0.0,0.0,0.0,0.0,0.0,0.0,0.0,0.0,0.0,0.0,0.0,0.0,0.0,0.0,0.0,0.0,0.0,0.0,0.0,0.0,0.0,0.0,0.0,0.0,0.0,0.0,0.0,0.0,0.0,0.0,0.0,0.0,0.0,0.0,0.0,0.0,0.0,0.0,0.0,0.0,0.0,0.0,0.0,0.0,0.0,0.0,0.0,0.0,0.0,0.0,0.0,0.0,0.0,0.0,0.0,0.0,0.0,0.0,0.0,0.0,0.0,0.0,0.0,0.0,0.0,0.0,0.0,0.0,0.0,0.0,0.0,0.0,0.0,0.0,0.0,0.0,-0.6613,-0.6394,-0.6937,-0.7689,-0.8732,-0.7857,-0.7109,-0.6783,0.0,0.0,0.0,0.0,0.0,0.0,0.0,0.0,0.0,0.0,0.0,0.0,0.0,0.0,0.0,0.0,0.0,0.0,0.0,0.0,0.0,0.0,0.0,0.0,0.0,0.0,0.0,0.0,0.0,0.0,0.0,0.0,0.0,0.0,0.0,0.0,0.0,0.0,0.0,0.0,0.0,0.0,0.0,0.0,0.0,0.0,0.0,0.0,0.0,0.0,0.0,0.0,0.0,0.0,0.0,0.0,0.0,0.0,0.0,0.0,0.0,0.0,0.0,0.0,0.0,0.0,0.0,0.0,0.0,0.0,0.0,0.0,0.0,0.0,0.0,0.0,0.0,0.0,0.0,0.0,0.0,0.0,0.0,0.0,0.0,0.0,0.0,0.0,0.0,0.0,0.0,0.0,0.0,0.0,0.0,0.0,0.0,0.0,0.0,0.0,0.0,0.0,0.0,-0.6052,-0.5359,-0.652,-0.6837,-0.7218,-0.7767,-0.7319,-0.6982,-0.6994,-0.7594,0.0,0.0,0.0,0.0,0.0,0.0,0.0,0.0,0.0,0.0,0.0,0.0,0.0,0.0,0.0,0.0,0.0,0.0,0.0,0.0,0.0,0.0,0.0,0.0,0.0,0.0,0.0,0.0,0.0,0.0,0.0,0.0,0.0,0.0,0.0,0.0,0.0,0.0,0.0,0.0,0.0,0.0,0.0,0.0,0.0,0.0,0.0,0.0,0.0,0.0,0.0,0.0,0.0,0.0,0.0,0.0,0.0,0.0,0.0,0.0,0.0,0.0,0.0,0.0,0.0,0.0,0.0,0.0,0.0,0.0,0.0,0.0,0.0,0.0,0.0,0.0,0.0,0.0,0.0,0.0,0.0,0.0,0.0,0.0,0.0,0.0,0.0,0.0,0.0,0.0,0.0,0.0,0.0,0.0,0.0,0.0,0.0,0.0,0.0,0.0,0.0,0.0,-0.5471,-0.4701,-0.6774,-0.7013,-0.7013,-0.7013,-0.6999,-0.7001,-0.6999,-0.8136,0.0,0.0,0.0,0.0,0.0,0.0,0.0,0.0,0.0,0.0,0.0,0.0,0.0,0.0,0.0,0.0,0.0,0.0,0.0,0.0,0.0,0.0,0.0,0.0,0.0,0.0,0.0,0.0,0.0,0.0,0.0,0.0,0.0,0.0,0.0,0.0,0.0,0.0,0.0,0.0,0.0,0.0,0.0,0.0,0.0,0.0,0.0,0.0,0.0,0.0,0.0,0.0,0.0,0.0,0.0,0.0,0.0,0.0,0.0,0.0,0.0,0.0,0.0,0.0,0.0,0.0,0.0,0.0,0.0,0.0,0.0,0.0,0.0,0.0,0.0,0.0,0.0,0.0,0.0,0.0,0.0,0.0,0.0,0.0,0.0,0.0,0.0,0.0,0.0,0.0,0.0,0.0,0.0,0.0,0.0,0.0,0.0,0.0,0.0,0.0,0.0,0.0,-0.5938,-0.5633,-0.6871,-0.7005,-0.7005,-0.7005,-0.699,-0.7007,-0.7007,-0.8145,0.0,0.0,0.0,0.0,0.0,0.0,0.0,0.0,0.0,0.0,0.0,0.0,0.0,0.0,0.0,0.0,0.0,0.0,0.0,0.0,0.0,0.0,0.0,0.0,0.0,0.0,0.0,0.0,0.0,0.0,0.0,0.0,0.0,0.0,0.0,0.0,0.0,0.0,0.0,0.0,0.0,0.0,0.0,0.0,0.0,0.0,0.0,0.0,0.0,0.0,0.0,0.0,0.0,0.0,0.0,0.0,0.0,0.0,0.0,0.0,0.0,0.0,0.0,0.0,0.0,0.0,0.0,0.0,0.0,0.0,0.0,0.0,0.0,0.0,0.0,0.0,0.0,0.0,0.0,0.0,0.0,0.0,0.0,0.0,0.0,0.0,0.0,0.0,0.0,0.0,0.0,0.0,0.0,0.0,0.0,0.0,0.0,0.0,0.0,0.0,0.0,0.0,-0.5715,-0.6544,0.0,-0.7004,-0.6983,-0.6983,-0.7013,-0.6702,-0.5986,0.0,0.0,0.0,0.0,0.0,0.0,0.0,0.0,0.0,0.0,0.0,0.0,0.0,0.0,0.0,0.0,0.0,0.0,0.0,0.0,0.0,0.0,0.0,0.0,0.0,0.0,0.0,0.0,0.0,0.0,0.0,0.0,0.0,0.0,0.0,0.0,0.0,0.0,0.0,0.0,0.0,0.0,0.0,0.0,0.0,0.0,0.0,0.0,0.0,0.0,0.0,0.0,0.0,0.0,0.0,0.0,0.0,0.0,0.0,0.0,0.0,0.0,0.0,0.0,0.0,0.0,0.0,0.0,0.0,0.0,0.0,0.0,0.0,0.0,0.0,0.0,0.0,0.0,0.0,0.0,0.0,0.0,0.0,0.0,0.0,0.0,0.0,0.0,0.0,0.0,0.0,0.0,0.0,0.0,0.0,0.0,0.0,0.0,0.0,0.0,0.0,0.0,-0.4675,-0.5794,-0.7003,0.0,-0.6982,-0.6857,-0.6501,-0.6461,-0.6284,-0.5847,0.0,0.0,0.0,0.0,0.0,0.0,0.0,0.0,0.0,0.0,0.0,0.0,0.0,0.0,0.0,0.0,0.0,0.0,0.0,0.0,0.0,0.0,0.0,0.0,0.0,0.0,0.0,0.0,0.0,0.0,0.0,0.0,0.0,0.0,0.0,0.0,0.0,0.0,0.0,0.0,0.0,0.0,0.0,0.0,0.0,0.0,0.0,0.0,0.0,0.0,0.0,0.0,0.0,0.0,0.0,0.0,0.0,0.0,0.0,0.0,0.0,0.0,0.0,0.0,0.0,0.0,0.0,0.0,0.0,0.0,0.0,0.0,0.0,0.0,0.0,0.0,0.0,0.0,0.0,0.0,0.0,0.0,0.0,0.0,0.0,0.0,0.0,0.0,0.0,0.0,0.0,0.0,0.0,0.0,0.0,0.0,0.0,0.0,0.0,0.0,0.0,0.0,-0.5985,-0.6281,-0.6994,-0.7005,-0.699,-0.6534,-0.5404,-0.5305,-0.5785,0.0,0.0,0.0,0.0,0.0,0.0,0.0,0.0,0.0,0.0,0.0,0.0,0.0,0.0,0.0,0.0,0.0,0.0,0.0,0.0,0.0,0.0,0.0,0.0,0.0,0.0,0.0,0.0,0.0,0.0,0.0,0.0,0.0,0.0,0.0,0.0,0.0,0.0,0.0,0.0,0.0,0.0,0.0,0.0,0.0,0.0,0.0,0.0,0.0,0.0,0.0,0.0,0.0,0.0,0.0,0.0,0.0,0.0,0.0,0.0,0.0,0.0,0.0,0.0,0.0,0.0,0.0,0.0,0.0,0.0,0.0,0.0,0.0,0.0,0.0,0.0,0.0,0.0,0.0,0.0,0.0,0.0,0.0,0.0,0.0,0.0,0.0,0.0,0.0,0.0,0.0,0.0,0.0,0.0,0.0,0.0,0.0,0.0,0.0,0.0,0.0,0.0,0.0,-0.7502,-0.628,-0.6096,-0.6914,-0.698,-0.655,-0.5383,-0.5294,-0.5785,-0.6912,0.0,0.0,0.0,0.0,0.0,0.0,0.0,0.0,0.0,0.0,0.0,0.0,0.0,0.0,0.0,0.0,0.0,0.0,0.0,0.0,0.0,0.0,0.0,0.0,0.0,0.0,0.0,0.0,0.0,0.0,0.0,0.0,0.0,0.0,0.0,0.0,0.0,0.0,0.0,0.0,0.0,0.0,0.0,0.0,0.0,0.0,0.0,0.0,0.0,0.0,0.0,0.0,0.0,0.0,0.0,0.0,0.0,0.0,0.0,0.0,0.0,0.0,0.0,0.0,0.0,0.0,0.0,0.0,0.0,0.0,0.0,0.0,0.0,0.0,0.0,0.0,0.0,0.0,0.0,0.0,0.0,0.0,0.0,0.0,0.0,0.0,0.0,0.0,0.0,0.0,0.0,0.0,0.0,0.0,0.0,0.0,0.0,0.0,0.0,0.0,0.0,0.0,-0.816,-0.6281,-0.5562,-0.6259,-0.6332,-0.6052,-0.5343,-0.5731,-0.6284,-0.6954,0.0,0.0,0.0,0.0,0.0,0.0,0.0,0.0,0.0,0.0,0.0,0.0,0.0,0.0,0.0,0.0,0.0,0.0,0.0,0.0,0.0,0.0,0.0,0.0,0.0,0.0,0.0,0.0,0.0,0.0,0.0,0.0,0.0,0.0,0.0,0.0,0.0,0.0,0.0,0.0,0.0,0.0,0.0,0.0,0.0,0.0,0.0,0.0,0.0,0.0,0.0,0.0,0.0,0.0,0.0,0.0,0.0,0.0,0.0,0.0,0.0,0.0,0.0,0.0,0.0,0.0,0.0,0.0,0.0,0.0,0.0,0.0,0.0,0.0,0.0,0.0,0.0,0.0,0.0,0.0,0.0,0.0,0.0,0.0,0.0,0.0,0.0,0.0,0.0,0.0,0.0,0.0,0.0,0.0,0.0,0.0,0.0,0.0,0.0,0.0,0.0,0.0,-0.8366,-0.653,-0.5496,-0.545,-0.5448,-0.546,-0.5443,-0.6409,-0.7003,-0.6999,0.0,0.0,0.0,0.0,0.0,0.0,0.0,0.0,0.0,0.0,0.0,0.0,0.0,0.0,0.0,0.0,0.0,0.0,0.0,0.0,0.0,0.0,0.0,0.0,0.0,0.0,0.0,0.0,0.0,0.0,0.0,0.0,0.0,0.0,0.0,0.0,0.0,0.0,0.0,0.0,0.0,0.0,0.0,0.0,0.0,0.0,0.0,0.0,0.0,0.0,0.0,0.0,0.0,0.0,0.0,0.0,0.0,0.0,0.0,0.0,-0.6576,0.0,0.0,0.0,0.0,0.0,0.0,0.0,0.0,0.0,0.0,0.0,0.0,0.0,0.0,0.0,0.0,0.0,0.0,0.0,0.0,0.0,0.0,0.0,0.0,0.0,0.0,0.0,0.0,0.0,0.0,0.0,0.0,0.0,0.0,0.0,0.0,0.0,0.0,0.0,0.0,0.0,-1.0027,-0.8244,-0.7052,-0.6665,-0.6629,-0.6638,-0.6652,-0.6857,-0.6997,-0.6988,0.0,0.0,0.0,0.0,0.0,0.0,0.0,0.0,0.0,0.0,0.0,0.0,0.0,0.0,0.0,0.0,0.0,0.0,0.0,0.0,0.0,0.0,0.0,0.0,0.0,0.0,0.0,0.0,0.0,0.0,0.0,0.0,0.0,0.0,0.0,0.0,0.0,0.0,0.0,0.0,0.0,0.0,0.0,0.0,0.0,0.0,0.0,0.0,0.0,0.0,0.0,0.0,0.0,0.0,0.0,0.0,0.0,0.0,0.0,0.0,0.0,-0.6125,0.0,0.0,0.0,0.0,0.0,0.0,0.0,0.0,0.0,0.0,0.0,0.0,0.0,0.0,0.0,0.0,0.0,0.0,0.0,0.0,0.0,0.0,0.0,0.0,0.0,0.0,0.0,0.0,0.0,0.0,0.0,0.0,0.0,0.0,0.0,0.0,0.0,0.0,0.0,0.0,-1.0526,-0.9499,-0.8847,-0.8608,-0.7616,-0.6987,-0.7004,-0.7017,-0.6993,-0.6995,-0.7009,0.0,0.0,0.0,0.0,0.0,0.0,0.0,0.0,0.0,0.0,0.0,0.0,0.0,0.0,0.0,0.0,0.0,0.0,0.0,0.0,0.0,0.0,0.0,0.0,0.0,0.0,0.0,0.0,0.0,0.0,0.0,0.0,0.0,0.0,0.0,0.0,0.0,0.0,0.0,0.0,0.0,0.0,0.0,0.0,0.0,0.0,0.0,0.0,0.0,0.0,0.0,0.0,0.0,0.0,-0.7649,-0.7143,-0.7143,-0.6745,-0.601,-0.6455,-0.6263,-0.5586,0.0,0.0,0.0,0.0,0.0,0.0,0.0,0.0,0.0,0.0,0.0,0.0,0.0,0.0,0.0,0.0,0.0,0.0,0.0,0.0,0.0,0.0,0.0,0.0,0.0,-1.0735,-1.193,0.0,0.0,0.0,0.0,0.0,0.0,0.0,0.0,0.0,0.0,0.0,0.0,-1.0512,-1.0293,-1.0282,-1.0293,-0.8327,-0.7009,-0.6996,-0.6981,-0.7084,-0.7289,-0.7314,-0.7312,0.0,0.0,0.0,0.0,0.0,0.0,0.0,0.0,0.0,0.0,0.0,0.0,0.0,0.0,0.0,0.0,0.0,0.0,0.0,0.0,0.0,0.0,0.0,0.0,0.0,0.0,0.0,0.0,0.0,0.0,0.0,0.0,-0.5793,-0.6514,0.0,0.0,0.0,0.0,0.0,0.0,0.0,0.0,0.0,0.0,0.0,0.0,0.0,0.0,-0.7782,-0.7812,-0.7943,-0.8114,-0.8731,-0.9088,-0.9272,-0.9272,-0.9054,-0.8618,-0.7533,0.0,-0.4428,-0.4379,0.0,0.0,0.0,0.0,0.0,0.0,0.0,0.0,0.0,0.0,0.0,0.0,0.0,0.0,0.0,0.0,0.0,0.0,0.0,0.0,0.0,0.0,-0.913,-0.913,-1.0161,-1.0963,0.0,-1.0327,-1.0316,-0.9474,0.0,0.0,0.0,0.0,0.0,0.0,0.0,0.0,-1.0449,-1.0311,-1.0289,-1.0276,-0.8316,-0.6999,-0.6982,-0.6988,-0.7426,-0.8497,-0.8549,-0.8553,-0.8584,-0.8712,0.0,0.0,0.0,0.0,0.0,0.0,0.0,0.0,0.0,0.0,0.0,0.0,0.0,0.0,0.0,0.0,0.0,0.0,0.0,0.0,0.0,0.0,0.0,0.0,0.0,0.0,0.0,0.0,0.0,-0.4809,-0.5824,-0.6507,-0.744,-0.782,0.0,0.0,0.0,0.0,0.0,0.0,0.0,0.0,0.0,-0.8804,-0.825,-0.816,-0.8549,-0.8707,-0.8902,-0.9029,-0.9479,-0.9719,-0.9693,-1.0027,-0.9741,-0.8794,-0.7876,-0.6632,-0.528,-0.4656,-0.462,-0.5113,0.0,0.0,0.0,0.0,0.0,-0.8818,-0.8771,0.0,0.0,0.0,0.0,0.0,0.0,0.0,0.0,0.0,0.0,0.0,0.0,0.0,0.0,-1.0044,-1.1127,-1.1967,-1.1593,-1.1921,-1.1835,0.0,-1.058,-1.0606,-0.9067,0.0,0.0,0.0,0.0,0.0,-1.0395,-1.0309,-0.983,-0.8598,-0.7589,-0.7019,-0.7019,-0.7613,-0.8249,-0.8784,-0.8791,-0.8779,-0.8786,-0.8792,-0.882,0.0,0.0,0.0,0.0,0.0,0.0,0.0,0.0,0.0,0.0,0.0,0.0,0.0,0.0,0.0,0.0,0.0,0.0,0.0,0.0,0.0,0.0,0.0,0.0,0.0,0.0,0.0,0.0,-0.5745,-0.5864,-0.6688,-0.7413,-0.7682,0.0,0.0,0.0,0.0,0.0,0.0,-0.8631,-0.8315,-0.8431,-0.9138,-0.877,-0.8909,-0.9579,-0.9646,-0.98,-1.002,-1.016,-1.0194,-1.0147,-1.0581,-1.0242,-0.9162,-0.8471,-0.7737,-0.6941,-0.5501,-0.5162,-0.5669,-0.6449,-0.7009,-0.7486,-0.8162,-0.8652,-0.8925,-0.8851,-0.8033,-0.6991,-0.6933,0.0,-0.5277,-0.6489,0.0,0.0,0.0,0.0,-0.8985,-0.9279,0.0,-1.0087,-1.0803,-1.2183,-1.3188,-1.2787,-1.3287,-1.3313,0.0,-1.22,-1.2273,-1.0204,0.0,0.0,0.0,0.0,-1.1494,-1.0832,-1.0401,-0.9468,-0.7628,-0.7428,-0.7445,-0.7471,-0.8299,-0.8804,-0.8823,-0.8808,-0.8804,-0.8804,-0.8804,-0.8823,-0.8795,0.0,0.0,0.0,0.0,0.0,0.0,0.0,0.0,0.0,0.0,0.0,0.0,0.0,0.0,0.0,0.0,0.0,0.0,0.0,0.0,0.0,0.0,0.0,0.0,0.0,0.0,0.0,0.0,0.0,-0.7672,-0.8161,0.0,0.0,0.0,0.0,-0.7777,-0.8362,-0.8637,-0.8249,-0.8824,-0.9416,-1.0033,-0.9741,-0.9927,-1.0551,-0.9953,-1.01,-1.0922,-1.0661,-1.0822,-1.1336,-1.1369,-1.1216,-1.0843,-0.986,-0.936,-0.918,-0.7016,-0.5969,-0.587,-0.6729,-0.7207,-0.7379,-0.7436,-0.8251,-0.9315,-0.8931,-0.8488,-0.8052,-0.7746,-0.7128,-0.6637,-0.7396,-0.7717,0.0,0.0,-0.9163,-0.923,-0.9586,-1.0434,-1.1226,-1.1241,-1.2746,-1.4051,-1.3606,-1.4073,-1.4183,0.0,-1.2859,-1.287,-1.2725,0.0,-1.286,-1.2803,-1.2414,-1.2132,-1.1935,-1.0704,-0.9522,-0.8686,-0.8687,-0.869,-0.872,-0.8762,-0.8786,-0.8823,-0.8798,-0.8804,-0.8804,-0.8804,-0.8804,-0.8798,-0.8798,0.0,0.0,0.0,0.0,0.0,0.0,0.0,0.0,0.0,0.0,0.0,0.0,0.0,0.0,0.0,0.0,0.0,0.0,0.0,0.0,0.0,0.0,0.0,0.0,0.0,0.0,0.0,0.0,-0.7882,-0.8251,0.0,0.0,-0.8747,-0.8751,-0.8086,-0.8642,-0.918,-0.9421,-0.9623,-1.0074,-1.0661,-1.0581,-1.0715,-1.1109,-1.0909,-1.0962,-1.1276,-1.1363,-1.141,-1.1436,-1.1817,-1.1724,-1.1208,-1.0529,-1.0119,-0.9811,-0.8727,-0.7953,-0.7535,-0.7624,-0.8155,-0.8821,-0.8423,-0.8938,-0.9747,-0.9342,-0.8845,-0.834,-0.7788,-0.8046,-0.8563,-0.8336,-0.862,-0.9047,-0.9435,-0.9526,-0.9701,-1.0507,-1.1012,-1.1621,-1.2855,-1.3681,-1.4223,-1.4355,-1.4542,-1.4492,-1.3616,-1.3159,-1.2924,-1.2871,-1.292,-1.2774,-1.2386,-1.2268,-1.2073,-1.1772,-1.1436,-1.0686,-0.922,-0.8897,-0.8813,-0.8799,-0.8826,-0.8815,-0.8798,-0.8804,-0.8778,-0.8815,-0.8808,-0.8775,-0.881,-1.0545,-1.1447,0.0,0.0,0.0,0.0,0.0,0.0,0.0,0.0,0.0,0.0,0.0,0.0,0.0,0.0,0.0,0.0,0.0,0.0,0.0,0.0,0.0,0.0,0.0,0.0,0.0,0.0,-0.6577,-0.8031,-0.8564,-0.8829,-0.872,-0.9104,-0.9199,-0.8889,-0.9246,-0.9793,-1.0381,-1.0414,-1.0681,-1.1269,-1.1524,-1.1796,-1.22,-1.1998,-1.1998,-1.22,-1.1959,-1.1817,-1.1737,-1.2124,-1.2091,-1.1653,-1.1326,-1.1028,-1.0775,-1.0206,-0.9758,-0.9458,-0.8973,-0.9169,-0.9659,-0.9269,-0.9573,-1.0134,-0.9741,-0.9369,-0.8909,-0.8428,-0.8909,-0.9641,-0.9257,-0.9466,-0.9853,-0.9953,-0.998,-1.028,-1.135,-1.1852,-1.2538,-1.4258,-1.4864,-1.5065,-1.5187,-1.5215,-1.5027,-1.4237,-1.3436,-1.2909,-1.289,-1.2881,-1.2773,-1.2367,-1.2385,-1.2344,-1.2086,-1.1998,-1.1378,-0.9962,-0.941,-0.9047,-0.8837,-0.8804,-0.8804,-0.8804,-0.9246,-0.9487,-0.9459,-0.9946,-1.0187,-1.0202,-1.1971,-1.3022,-1.3303,0.0,0.0,0.0,0.0,0.0,0.0,0.0,0.0,0.0,0.0,0.0,0.0,0.0,0.0,0.0,0.0,0.0,0.0,0.0,0.0,0.0,0.0,0.0,-0.5168,-0.632,-0.7321,-0.8072,-0.9061,-0.9706,-0.9713,-0.9719,-0.984,-1.0127,-1.0154,-1.0408,-1.0989,-1.1095,-1.1364,-1.1948,-1.2655,-1.3278,-1.3768,-1.3293,-1.3293,-1.3768,-1.2541,-1.2123,-1.2392,-1.2318,-1.2311,-1.2291,-1.2326,-1.2288,-1.2258,-1.1453,-1.1224,-1.1383,-1.0802,-1.0221,-0.9706,-0.9699,-1.0078,-1.0532,-1.0201,-0.9947,-0.9713,-0.9719,-0.9726,-0.978,-1.0067,-1.0154,-1.0214,-1.0571,-1.0651,-1.0903,-1.2149,-1.3044,-1.3946,-1.5231,-1.6119,-1.6602,-1.6172,-1.6135,-1.587,-1.4971,-1.383,-1.2947,-1.291,-1.29,-1.29,-1.2881,-1.2881,0.0,-1.2881,-1.2295,-1.1566,-1.0914,-1.021,-0.9562,-0.891,-0.8804,-0.8811,-0.8804,-1.0075,-1.0797,-1.0848,-1.2157,-1.2909,-1.2909,-1.2874,-1.3264,-1.4073,0.0,0.0,0.0,0.0,0.0,0.0,0.0,0.0,0.0,0.0,0.0,0.0,0.0,0.0,0.0,0.0,0.0,0.0,0.0,0.0,0.0,0.0,-0.4577,-0.484,-0.5705,-0.6673,-0.7701,-0.8763,-0.9687,-1.0321,-1.0508,-1.0668,-1.0748,-1.0949,-1.1229,-1.161,-1.2586,-1.3322,-1.3734,-1.4828,-1.5511,-1.5632,-1.5511,-1.5511,-1.5632,-1.4502,-1.4118,-1.432,-1.3243,-1.2587,-1.2298,-1.2304,-1.2311,-1.2291,-1.2045,-1.2016,-1.1927,-1.0956,-1.05,-1.0294,-1.0013,-1.0047,-1.0282,-1.043,-1.0388,-1.0354,-1.0561,-1.0635,-1.0688,-1.0975,-1.1062,-1.1215,-1.202,-1.1717,-1.1724,-1.403,-1.4056,-1.3946,-1.5897,-1.635,-1.6299,-1.6504,-1.6289,-1.5958,-1.5352,-1.4729,-1.4063,-1.3457,-1.334,-1.3232,-1.293,0.0,0.0,-1.2881,-1.2715,-1.2295,-1.1616,-1.0914,-1.0261,-0.9562,-0.9061,-0.9008,0.0,-1.0022,-1.064,-1.1283,-1.2304,-1.2878,-1.289,-1.291,-1.3222,0.0,0.0,0.0,0.0,0.0,0.0,0.0,0.0,0.0,0.0,0.0,0.0,0.0,0.0,0.0,0.0,0.0,0.0,0.0,0.0,0.0,0.0,-0.4538,-0.4684,-0.4935,-0.5984,-0.7,-0.784,-0.9134,-1.0263,-1.0909,-1.1076,-1.1223,-1.1349,-1.163,-1.2131,-1.294,-1.3756,-1.4605,-1.5249,-1.643,-1.7,-1.7,-1.7,-1.7,-1.7,-1.5481,-1.4873,-1.4957,-1.3376,-1.2588,0.0,-1.2375,-1.2315,-1.2309,-1.2271,-1.2297,0.0,0.0,0.0,0.0,0.0,-1.0301,-1.0347,-1.0641,-1.0742,-1.0788,-1.1082,-1.1176,-1.1229,-1.1523,-1.161,-1.1818,-1.2777,-1.264,-1.2755,-1.516,-1.5133,-1.4997,-1.6823,-1.707,-1.6904,-1.6992,-1.6797,-1.6494,-1.6055,0.0,0.0,-1.4424,-1.3857,-1.3418,-1.3184,-1.2998,-1.2881,0.0,-1.2881,-1.2608,-1.1864,-1.1458,-1.0813,-0.9865,-0.9718,0.0,0.0,0.0,-1.1242,-1.2052,-1.3007,0.0,0.0,0.0,-1.4313,0.0,0.0,0.0,0.0,-1.6663,-1.6969,0.0,0.0,0.0,0.0,0.0,0.0,0.0,0.0,0.0,0.0,0.0,0.0,0.0,0.0,0.0,0.0,-0.4751,-0.4807,-0.548,-0.687,-0.7932,-0.8197,-0.9873,-1.1169,-1.149,-1.1496,-1.163,-1.1991,-1.2371,-1.3068,-1.4201,0.0,0.0,0.0,0.0,-1.8339,-1.8293,-1.8339,-1.8339,-1.8218,-1.6272,-1.5319,-1.5118,-1.3324,-1.2679,-1.2989,-1.2647,-1.2426,-1.2292,-1.2289,-1.2244,-1.2161,-1.1461,-1.1101,-1.1041,-1.0806,-1.0719,0.0,0.0,0.0,0.0,-1.1383,-1.1476,-1.1536,-1.187,-1.1971,-1.2257,-1.3346,-1.3535,-1.3847,-1.5828,-1.6236,-1.6416,-1.7687,-1.7978,-1.7852,-1.7529,-1.7422,-1.7275,-1.6885,-1.6406,-1.5998,-1.5557,-1.4463,-1.3613,-1.3525,-1.3193,0.0,-1.2891,-1.2881,-1.2666,-1.1972,0.0,0.0,-1.0115,-1.0517,-1.0568,-1.0064,-1.1259,-1.2302,-1.3037,-1.3959,-1.4303,-1.3994,-1.503,-1.59,-1.6502,-1.7039,-1.7581,-1.8179,-1.7093,-1.7157,0.0,0.0,0.0,0.0,0.0,0.0,0.0,0.0,0.0,0.0,0.0,0.0,0.0,0.0,0.0,-0.4523,-0.5044,-0.5546,-0.6449,-0.763,-0.8447,-0.8492,-1.0194,-1.155,-1.2078,-1.1924,-1.2104,-1.2893,-1.3596,-1.3845,-1.3485,-1.6537,0.0,-1.7279,-1.9767,-2.096,-2.0534,-2.096,-2.096,-2.0534,0.0,0.0,-1.7629,-1.4931,-1.3829,-1.3867,-1.3789,-1.3233,-1.2305,-1.2329,-1.2177,-1.1921,-1.1536,-1.1175,-1.1015,-1.1189,-1.1263,-1.1269,-1.1323,-1.1343,-1.139,-1.169,-1.1784,-1.1884,-1.2493,-1.2654,0.0,-1.5095,-1.4828,-1.4626,-1.737,-1.7017,-1.6282,-1.7687,-1.7754,-1.7578,-1.7832,-1.7627,-1.7363,-1.7275,-1.6611,-1.6096,-1.5947,-1.5166,-1.4307,-1.3613,-1.3437,-1.3262,-1.293,-1.2881,-1.2832,-1.2715,-1.2129,-1.1715,-1.1466,-1.1065,-1.0965,-1.1366,-1.2503,-1.345,-1.4078,-1.4704,-1.5089,-1.5159,-1.5894,-1.6538,-1.7123,-1.7231,-1.7581,-1.8191,-1.797,-1.8182,0.0,0.0,0.0,0.0,0.0,0.0,0.0,0.0,0.0,0.0,0.0,0.3213,0.0119,0.0,-0.4353,-0.5265,-0.5862,-0.6467,-0.7121,-0.8674,-0.9785,-0.9597,-1.079,-1.1877,-1.2465,-1.2392,-1.277,-1.3917,-1.3967,-1.4646,-1.615,-1.7721,-1.8938,-1.9716,-2.1139,-2.1777,-2.1562,-2.1777,-2.1777,-2.1562,-2.043,-1.9696,-1.919,-1.718,-1.5828,-1.5094,-1.4424,-1.3736,-1.3216,-1.2993,-1.3003,-1.3171,-1.3091,-1.2437,-1.145,-1.1597,-1.1744,-1.1884,-1.2031,-1.2084,-1.2138,-1.2438,-1.2538,-1.2743,-1.3557,-1.3796,-1.4285,-1.6413,-1.6572,-1.6502,-1.8442,-1.8117,-1.7401,-1.8123,-1.8008,-1.7754,-1.7969,-1.7842,-1.7695,-1.7695,-1.7168,-1.6719,-1.6719,-1.6006,-1.5137,-1.4277,-1.3779,-1.3437,-1.3223,-1.3008,-1.2881,-1.2881,-1.2559,-1.2187,-1.1814,-1.1516,-1.1625,-1.2295,-1.3253,-1.4011,-1.4461,-1.5472,-1.6136,-1.6404,-1.7262,-1.7846,-1.8142,-1.84,-1.8685,-1.8995,-1.8716,-1.8584,0.0,0.0,0.0,0.0,0.0,0.0,0.0,0.0,0.9007,0.6568,0.3429,0.0545,-0.1469,-0.3836,-0.5592,-0.5848,-0.6708,-0.742,-0.7799,-0.9777,-1.1109,-1.112,-1.176,-1.2338,-1.2866,-1.2943,-1.3431,-1.4881,-1.4612,-1.5701,-1.8807,-1.8941,-1.9764,-2.164,-2.1997,-2.209,-2.2012,-2.209,-2.209,-2.2012,-2.1118,-2.067,-2.0567,-1.9291,-1.8054,-1.6763,-1.5087,-1.4525,-1.4757,-1.4015,-1.4185,-1.4986,-1.5173,-1.441,-1.3082,-1.2825,-1.291,-1.3163,-1.3417,-1.3501,-1.3543,-1.3733,-1.3817,-1.3981,-1.4947,-1.5196,-1.5591,-1.7596,-1.8031,-1.8192,-1.9184,-1.9092,-1.876,-1.876,-1.8506,-1.8262,-1.8262,-1.8262,-1.8232,-1.8144,-1.7793,-1.748,-1.7393,-1.665,-1.5801,-1.5019,-1.4248,-1.3691,-1.3525,-1.3213,-1.2969,-1.2891,-1.2881,-1.2666,-1.208,-1.2021,-1.2323,-1.2998,-1.3711,-1.4333,-1.4907,-1.6214,-1.718,-1.7642,-1.8635,-1.9183,-1.9183,-1.9597,-1.9798,-1.9798,-1.9371,-1.8856,1.3956,1.3072,1.2101,1.2101,1.1217,1.0119,0.0,0.0,0.6687,0.243,0.0385,-0.1516,-0.4602,-0.5602,-0.5848,-0.5658,-0.6933,-0.8218,-0.9165,-1.0634,-1.197,-1.2824,-1.2981,-1.3186,-1.3507,-1.3307,-1.3853,-1.5465,-1.6522,-1.7351,-1.8137,-2.0624,-2.1674,-2.1007,-2.2255,-2.2822,-2.2441,-2.2812,-2.2812,-2.2441,-2.2262,-2.2262,-2.2158,-2.0679,-1.9683,-1.9044,-1.6356,-1.6023,-1.7248,-1.5428,-1.5498,-1.6768,-1.6801,-1.7141,-1.74,-1.6324,-1.5912,-1.5953,-1.5994,-1.601,-1.6019,-1.6059,-1.6076,-1.6133,-1.6538,-1.6637,-1.6938,-1.8487,-1.8569,-1.8528,-1.9533,-1.9531,-1.9219,-1.9219,-1.918,-1.9141,-1.9141,-1.9141,-1.9033,-1.8643,-1.8223,-1.7822,-1.7451,-1.665,-1.5958,-1.541,-1.4941,-1.4365,-1.3603,-1.3467,-1.3301,-1.292,-1.2881,-1.2881,-1.2774,-1.2774,-1.2978,-1.3418,-1.3824,-1.4673,-1.5947,-1.6975,-1.7919,-1.8784,-1.9396,-1.971,-1.971,-1.9773,-1.9798,-1.9798,-1.9748,-1.9417,1.3238,1.2721,0.0,0.0,1.102,0.9719,0.9541,0.8351,0.5853,0.0865,-0.2237,-0.4469,-0.593,-0.6099,-0.6306,0.0,-0.8236,-0.9374,-1.0601,-1.1976,-1.2904,-1.3147,-1.3514,-1.3701,-1.3647,-1.3694,-1.4372,-1.5775,-1.6661,-1.7855,-1.9512,-2.0802,-2.172,-2.2138,-2.2775,-2.3057,-2.2881,-2.3057,-2.3057,-2.2881,-2.2881,-2.2881,-2.2861,-2.1902,-2.082,-1.9516,-1.8365,-1.7848,-1.7899,-1.7253,-1.7754,-1.8892,-1.8892,-1.9515,-2.0154,-1.8172,-1.756,-1.7663,-1.7663,-1.7663,-1.7621,-1.7413,-1.7496,-1.7809,-1.8316,-1.8617,-1.9073,-2.0361,-2.0538,-2.0429,-2.0585,-2.0361,-1.9971,-1.9707,-1.9463,-1.9287,-1.9287,-1.9287,-1.916,-1.8721,-1.8496,-1.8242,-1.7822,-1.7236,-1.6768,-1.6592,-1.5547,-1.4658,-1.4297,-1.4033,-1.3711,-1.3291,-1.3027,-1.2881,-1.2881,-1.2881,-1.3057,-1.3477,-1.3896,-1.4656,-1.5954,-1.7047,-1.7966,-1.8794,-1.948,-1.9798,-1.9798,-1.9798,-1.9798,-1.9798,-1.9798,-1.937,1.3027,0.0,0.0,1.2175,1.0709,0.9166,0.9097,0.7423,0.4644,0.0143,-0.3774,-0.6349,-0.6514,-0.6314,-0.6637,-0.8099,-0.9185,-1.0343,-1.1658,-1.2845,-1.3567,-1.3353,-1.3634,-1.3794,-1.3661,-1.3915,-1.4782,-1.6499,-1.7,-1.8477,-2.1053,-2.1355,-2.2004,-2.3038,-2.3135,-2.3135,-2.3135,-2.3135,-2.3135,-2.3135,-2.3135,-2.3135,-2.3125,-2.2588,-2.1623,-2.0366,-1.9798,-1.9442,-1.9068,-1.9075,-1.9759,-2.0809,-2.0809,-2.1568,-2.2492,-2.0699,-1.9796,-1.9536,-1.9536,-1.9536,-1.9493,-1.9138,-1.9234,-1.9569,-2.0053,-2.0412,-2.082,-2.1709,-2.1885,-2.1816,-2.1494,-2.1084,-2.0674,-2.0352,-1.9951,-1.9713,-1.9989,-2.0062,-2.0005,-1.9829,-1.9818,-1.9634,-1.9073,-1.8415,-1.7895,-1.7775,-1.6384,-1.5234,-1.499,-1.4473,-1.397,-1.3711,-1.3408,-1.3232,-1.3232,-1.3232,-1.3359,-1.3662,-1.4082,-1.476,-1.5869,-1.6983,-1.7961,-1.8715,-1.9571,-1.9962,-1.9798,-1.9962,-1.9962,-1.9798,-1.966,-1.9231,1.3379,0.0,1.1559,1.0997,0.9572,0.8015,0.7095,0.4798,0.2178,-0.0155,-0.3646,-0.6324,-0.6471,-0.6461,-0.686,-0.7982,-0.9414,-1.0757,-1.1946,-1.2965,-1.3641,-1.3552,-1.34,-1.3347,0.0,-1.3915,-1.5197,-1.777,-1.8302,-1.9703,-2.231,-2.2814,-2.3038,-2.3135,-2.3135,-2.3135,-2.3135,-2.3135,-2.3135,-2.3135,-2.3135,-2.3135,-2.3105,-2.2285,-2.2109,-2.2337,-2.0384,-2.0447,-2.169,-2.0634,-2.1053,-2.2405,-2.2405,-2.3388,-2.466,-2.4639,-2.3449,-2.1802,-2.1802,-2.1802,-2.1792,-2.1783,-2.1792,-2.1792,-2.1783,-2.1875,-2.1885,-2.1885,-2.1885,-2.1885,-2.1865,-2.1543,-2.1211,-2.1201,-2.085,-2.0827,-2.1694,-2.191,-2.2073,-2.2628,-2.2753,-2.245,-2.1464,-2.0248,-1.9272,-1.868,-1.7453,-1.6367,-1.5508,-1.4658,-1.4077,-1.4058,-1.4048,-1.4038,-1.4038,-1.4038,-1.4048,-1.4058,-1.4521,-1.5144,-1.5879,-1.6983,-1.7961,-1.8715,-2.0019,-2.0363,-1.9798,-2.0363,-2.0351,-1.9798,-1.9284,-1.9283,1.3053,1.2694,1.2161,1.1111,1.0025,0.9064,0.8571,0.455,0.0319,-0.1835,-0.419,-0.5937,-0.6162,-0.6017,-0.6381,-0.7977,-0.8657,-0.9576,-1.0884,-1.2331,-1.2991,-1.2276,-1.3271,0.0,0.0,0.0,0.0,-1.7079,-1.8311,-1.9729,-2.1623,-2.2869,-2.3437,-2.3154,-2.3418,-2.3428,-2.3135,-2.3135,-2.3135,-2.3135,-2.3135,-2.3135,-2.3125,-2.2559,-2.2383,-2.249,-2.1851,-2.1813,-2.2324,-2.215,-2.2926,-2.3985,-2.3985,-2.483,-2.5975,-2.5975,-2.5529,-2.4844,-2.4106,-2.4346,-2.4636,-2.2878,-2.2968,-2.3793,-2.3505,-2.3052,-2.2876,-2.3612,-2.3854,-2.3782,-2.3495,-2.3861,-2.4212,-2.391,-2.3716,-2.3742,-2.404,-2.3787,-2.3488,-2.3453,-2.3165,-2.2655,-2.206,-2.1275,-2.0478,-1.9599,-1.7647,-1.6182,-1.5879,-1.5098,-1.4561,-1.4561,-1.4307,-1.4077,-1.4077,-1.4077,-1.4204,-1.4551,-1.4697,-1.5239,-1.6242,-1.7533,-1.8531,-1.925,-2.0588,-2.0941,-2.0376,-2.0618,-2.0376,-1.9798,-2.0065,-2.0105,1.32,1.2939,1.2341,1.0979,0.9918,0.8865,0.7423,0.3508,-0.0637,-0.3324,-0.4849,-0.562,-0.5795,-0.5718,-0.6082,-0.7668,-0.8121,-0.8761,-1.0329,-1.1716,-1.2295,-1.1817,-1.3149,-1.4028,0.0,0.0,0.0,-1.7241,-1.849,-1.9978,-2.2039,-2.3166,-2.373,-2.3594,-2.3867,-2.3809,-2.3379,-2.3369,-2.3291,-2.3135,-2.3135,-2.3135,-2.3125,-2.2705,-2.2598,-2.2734,-2.2578,-2.2843,-2.3323,-2.3604,-2.4382,-2.5378,-2.5378,-2.613,-2.7058,-2.7323,-2.7649,-2.772,-2.6019,-2.5891,-2.6179,-2.4472,-2.4567,-2.5325,-2.5107,-2.4651,-2.4478,-2.521,-2.5378,-2.5314,-2.5096,-2.5381,-2.5734,-2.5509,-2.5295,-2.5326,-2.5624,-2.5436,-2.5119,-2.4999,-2.4707,-2.4261,-2.3544,-2.2724,-2.1706,-2.0412,-1.8807,-1.7554,-1.6997,-1.6487,-1.6063,-1.5842,-1.5708,-1.568,-1.568,-1.568,-1.5815,-1.6105,-1.6125,-1.643,-1.717,-1.8509,-1.94,-1.9865,-2.1144,-2.1418,-2.0718,-2.092,-2.0564,-1.9798,-2.0044,-2.0072,1.3841,1.3228,1.1983,1.0539,0.9244,0.7443,0.4062,0.1794,-0.0697,-0.4634,-0.5396,-0.5451,0.0,0.0,-0.5953,-0.7186,-0.7694,-0.8461,-1.005,-1.1079,-1.1782,0.0,0.0,0.0,0.0,0.0,0.0,-1.8329,0.0,-2.0473,-2.3551,-2.3828,-2.4033,-2.4404,-2.4414,-2.4219,-2.3799,-2.3769,-2.3545,-2.3135,-2.3135,-2.3135,-2.3125,-2.2725,-2.2764,-2.3115,-2.2715,-2.3418,-2.4787,-2.4787,-2.5557,-2.6599,-2.6599,-2.7255,-2.8319,-2.8807,-2.9699,-3.0238,-2.7626,-2.6704,-2.6682,-2.6577,-2.6577,-2.6599,-2.6599,-2.661,-2.655,-2.6633,-2.6633,-2.6633,-2.6599,-2.6321,-2.604,-2.6018,-2.5735,-2.5704,-2.6609,-2.6737,-2.6793,-2.7192,-2.7197,-2.6739,-2.572,-2.442,-2.2977,-2.1215,-2.0975,-2.0381,-1.8814,-1.8577,-1.8306,-1.7756,-1.8194,-1.8543,-1.8543,-1.8543,-1.8543,-1.8589,-1.86,-1.8646,-1.8703,-1.9887,-2.0574,-2.0632,-2.1791,-2.1895,-2.081,-2.1259,-2.0932,-1.9825,-1.9365,-1.9409,1.4128,1.3117,1.1715,1.0901,0.9874,0.8447,0.6035,0.2706,-0.0907,-0.4672,-0.5388,-0.5364,0.0,0.0,0.0,-0.6075,-0.67,0.0,-0.8067,-1.025,0.0,-1.1175,0.0,-1.481,-1.4442,-1.487,0.0,0.0,-1.8783,-2.0382,-2.2364,-2.3923,-2.4639,-2.4424,-2.4414,-2.4219,-2.3799,-2.3467,-2.3252,-2.3135,-2.3135,-2.3135,-2.3135,-2.3027,-2.3037,-2.3135,-2.3027,-2.3614,-2.4787,-2.4787,-2.6162,-2.8257,-2.8257,-2.9244,-3.0555,-3.0691,-3.0929,-3.1091,-3.0417,-2.9878,-2.9234,-2.7183,-2.7298,-2.8257,-2.8257,-2.8027,-2.7827,-2.8687,-2.8951,-2.8856,-2.8363,-2.885,-2.9255,-2.8851,-2.8733,-2.8713,-2.8944,-2.861,-2.7989,-2.6978,-2.5559,-2.4469,-2.4546,-2.4249,-2.3835,-2.3256,-2.3174,-2.2438,-2.0455,-1.9584,-1.9016,-1.8881,-1.8983,-1.912,-1.912,-1.912,-1.9309,-1.9849,-1.9906,-2.0402,-2.1514,-2.2231,-2.29,-2.3446,-2.3716,-2.3298,-2.2086,-2.1772,-2.1212,-2.0534,-2.0712,-2.1226,1.4174,1.2882,1.136,1.019,0.8252,0.6544,0.6352,0.3505,0.0213,-0.2464,-0.345,0.0,-0.4145,0.0,0.0,0.0,0.0,0.0,-0.7857,-0.9976,-1.1513,0.0,-1.3976,0.0,-1.4937,-1.5317,-1.5858,0.0,-1.8603,-2.0542,-2.2167,-2.4032,-2.4951,-2.4717,-2.4697,-2.4404,-2.3799,-2.3359,-2.3135,-2.3135,-2.3135,-2.3135,-2.3135,-2.3135,-2.3135,-2.3135,0.0,-2.3824,-2.5102,-2.569,-2.7234,-2.9296,-2.9816,-3.0597,-3.1424,-3.1662,-3.175,-3.175,-3.175,-3.1562,-3.0966,-2.9222,-2.9234,-2.998,-2.998,-2.9773,-2.9665,-3.036,-3.0538,-3.0382,-3.0065,-3.0264,-3.0532,-3.0231,-2.9967,-2.9792,-2.9792,-2.9118,-2.807,-2.6492,-2.5062,-2.4149,-2.448,-2.4694,-2.4777,-2.4805,-2.4536,-2.4028,-2.3128,-2.1596,-2.0499,-2.0274,-2.0452,-2.0594,-2.0594,-2.0909,-2.1276,-2.1669,-2.2035,-2.2668,-2.3768,-2.4362,-2.4961,-2.5658,-2.5349,-2.4702,-2.375,-2.3035,-2.2421,-2.1899,-2.1924,-2.2269,1.3955,1.2512,1.0853,0.9229,0.6006,0.3587,0.5103,0.3909,0.2168,0.0867,0.0,-0.1783,-0.2462,-0.3641,-0.4602,-0.5055,0.0,-0.6394,-0.8681,-1.0034,-1.1545,-1.3263,-1.4682,-1.5451,-1.5451,-1.5678,-1.5832,-1.5832,-1.8377,-2.0617,-2.2294,-2.3956,-2.482,-2.4902,-2.4902,-2.4512,-2.3711,-2.333,-2.3135,-2.3135,-2.3135,-2.3135,-2.3135,-2.3135,-2.3135,-2.3144,0.0,0.0,-2.5501,-2.6852,-2.8276,-2.9857,-3.1063,-3.1549,-3.1675,-3.2152,-3.2328,-3.2328,-3.2328,-3.2328,-3.2227,-3.1599,-3.1436,-3.1499,-3.1499,-3.1549,-3.1612,-3.1612,-3.1562,-3.1486,-3.1411,-3.0997,-3.0595,-3.052,-3.0143,-2.9792,-2.9792,-2.8718,-2.7369,-2.588,-2.5081,-2.467,-2.4926,-2.5408,-2.5739,-2.5889,-2.5369,-2.5217,-2.587,-2.3966,-2.2407,-2.2082,-2.2407,-2.27,-2.27,-2.3289,-2.3723,-2.3834,-2.4502,-2.5133,-2.5777,-2.6404,-2.6973,-2.7564,-2.6756,-2.6106,-2.5559,-2.4711,-2.4109,-2.3643,-2.3208,-2.3141,1.3404,1.1808,1.0413,1.0288,0.6836,0.3089,0.1488,0.2625,0.0,0.0,0.156,-0.0337,-0.0502,-0.2687,-0.4619,-0.5017,0.0,0.0,0.0,0.0,-1.1978,0.0,0.0,0.0,0.0,0.0,0.0,0.0,0.0,0.0,-2.105,-2.2574,-2.3569,-2.4033,-2.4014,-2.3769,-2.3262,-2.3174,-2.3135,-2.3135,-2.3135,-2.3135,-2.3135,-2.3135,-2.3135,-2.3154,0.0,0.0,-2.5532,-2.7118,-2.8792,-3.0393,-3.1633,-3.2365,-3.2805,-3.2893,-3.293,-3.293,-3.293,-3.293,-3.2754,-3.1725,-3.17,-3.2077,-3.2077,-3.2403,-3.278,-3.278,-3.2441,-3.1964,-3.1512,-3.0997,-3.0507,-3.0043,-2.9867,-2.9792,-2.9792,-2.7866,-2.6074,-2.5824,-2.4683,-2.3971,-2.4837,-2.5761,-2.6406,-2.6355,-2.6283,-2.6159,-2.6064,-2.4853,-2.4152,-2.4652,-2.4789,-2.4844,-2.4844,-2.4955,-2.5287,-2.5898,-2.6564,-2.7195,-2.7944,-2.8545,-2.9082,-2.9529,-2.8255,-2.7515,-2.7437,-2.609,-2.5505,-2.5596,-2.5131,-2.5194,1.2666,1.1001,0.9434,0.8905,0.6188,0.3383,0.2537,0.0,0.0,0.0,0.2717,0.0892,0.0167,-0.1187,0.0,-0.447,0.0,0.0,0.0,0.0,0.0,0.0,0.0,0.0,0.0,0.0,0.0,0.0,0.0,0.0,-1.9439,-2.1423,-2.2889,-2.3799,-2.3574,-2.335,-2.3135,-2.3135,-2.3135,-2.3135,-2.3135,-2.3135,-2.3135,-2.3135,-2.3262,-2.3486,-2.3701,0.0,-2.6325,-2.7778,-2.932,-3.0966,-3.2513,-3.3081,-3.3106,-3.3395,-3.3319,-3.3119,-3.3407,-3.3319,-3.3031,-3.278,-3.2679,-3.2667,-3.2667,-3.2855,-3.3018,-3.2717,-3.2641,-3.2466,-3.1612,-3.121,-3.0884,-3.0344,-2.9993,-2.9456,-2.8291,-2.7507,-2.6668,-2.553,-2.518,-2.5352,-2.6393,-2.68,-2.7294,-2.8357,-2.7743,-2.7407,-2.8215,-2.7187,-2.6313,-2.5951,-2.5591,-2.5398,-2.5398,-2.6051,-2.6567,-2.696,-2.7871,-2.884,-2.9718,-2.9782,-3.0133,-3.0854,-2.9558,-2.8868,-2.8837,-2.7647,-2.6988,-2.6873,-2.6032,-2.5768,1.1638,1.005,0.8549,0.7436,0.5361,0.3723,0.4343,0.354,0.0,0.4241,0.3527,0.2119,0.0334,0.0,-0.0799,0.0,-0.4145,-0.5052,0.0,0.0,0.0,0.0,0.0,0.0,0.0,0.0,0.0,0.0,0.0,0.0,-1.9012,-2.0898,-2.2546,-2.3652,-2.3036,-2.2677,-2.2677,-2.296,-2.296,-2.2677,-2.296,-2.3135,-2.3144,-2.3232,-2.3467,-2.3799,-2.3984,0.0,0.0,-2.8261,-2.9759,-3.1156,-3.3168,-3.3709,-3.347,-3.3784,-3.3709,-3.347,-3.3796,-3.3621,-3.3319,-3.3759,-3.3533,-3.3081,-3.3081,-3.3081,-3.298,-3.2528,-3.2641,-3.2654,-3.165,-3.1298,-3.1085,-3.057,-3.0105,-2.9287,-2.7557,-2.7695,-2.7591,-2.5859,-2.6213,-2.7128,-2.7924,-2.8132,-2.8661,-3.0144,-2.9382,-2.9073,-3.0487,-2.9711,-2.8697,-2.7826,-2.6859,-2.6261,-2.6265,-2.7315,-2.799,-2.799,-2.9198,-3.0311,-3.1162,-3.0768,-3.0945,-3.185,-3.0446,-2.9661,-2.9596,-2.8741,-2.8092,-2.7654,-2.6689,-2.6159,1.0153,0.9173,0.8475,0.7408,0.5361,0.3723,0.4343,0.0,0.4323,0.4472,0.4383,0.3416,0.0502,0.0,-0.0114,-0.0365,0.0,-0.3786,0.0,0.0,0.0,0.0,0.0,0.0,0.0,0.0,0.0,0.0,0.0,0.0,0.0,-2.1841,-2.2316,-2.3125,-2.205,-2.148,-2.148,-2.258,-2.258,-2.148,-2.2589,-2.3135,-2.3154,-2.3545,-2.375,-2.3828,0.0,0.0,0.0,-2.8245,-2.9723,-3.0546,-3.2946,-3.4173,-3.4512,-3.406,-3.4186,-3.4512,-3.406,-3.3872,-3.3834,-3.3884,-3.3533,-3.3081,-3.3081,-3.3081,-3.3068,-3.3018,-3.2654,-3.2152,-3.1549,-3.1035,-3.0557,-2.9993,-2.9829,-2.9714,-2.9546,-2.8767,-2.8004,-2.7844,-2.7844,-2.8004,-2.8084,-2.9591,-3.0769,-3.0441,-3.0959,-3.1593,-3.1976,-3.147,-3.1264,-3.1965,-3.0314,-2.9098,-2.9012,-2.9452,-2.9776,-2.9776,-3.1031,-3.1864,-3.2047,-3.1974,-3.2071,-3.2416,-3.0405,-2.9311,-2.924,-2.8672,-2.8237,-2.7943,-2.7528,-2.7186,0.9602,0.8401,0.7351,0.6878,0.5212,0.377,0.4532,0.0,0.4509,0.449,0.4487,0.3869,0.1729,0.0615,-0.0621,-0.2438,0.0,0.0,-0.5264,0.0,0.0,0.0,0.0,0.0,0.0,0.0,0.0,0.0,0.0,0.0,0.0,-2.1924,-2.203,-2.3057,-2.1933,-2.1293,-2.1293,-2.1033,-2.0674,-2.0215,-2.14,-2.2171,-2.2432,-2.3342,-2.4072,-2.459,0.0,0.0,0.0,-2.9336,-3.0876,-3.1938,-3.4089,-3.4826,-3.4738,-3.4851,-3.4613,-3.4248,-3.4349,-3.396,-3.3458,-3.3796,-3.3533,-3.3081,-3.3081,-3.3081,-3.3006,-3.2654,-3.2641,-3.2516,-3.1625,-3.1235,-3.1022,-3.0809,-3.0746,-3.0586,-2.9915,-2.9984,-2.978,-2.8793,-2.9161,-2.9712,-2.9935,-3.0631,-3.1529,-3.243,-3.2593,-3.2846,-3.3501,-3.331,-3.3092,-3.3123,-3.1593,-3.0595,-3.0716,-3.1019,-3.1332,-3.1548,-3.2342,-3.2892,-3.3079,-3.2461,-3.2196,-3.2382,-3.0197,-2.9032,-2.8949,-2.7816,-2.708,-2.6724,-2.6085,-2.5366,0.898,0.7745,0.6481,0.6476,0.5353,0.4303,0.0,0.0,0.4487,0.4522,0.4477,0.4036,0.2512,0.1005,-0.1008,-0.3999,0.0,-0.3472,-0.5154,-0.6515,0.0,0.0,0.0,0.0,0.0,0.0,0.0,0.0,0.0,0.0,0.0,-2.1943,-2.1845,-2.3047,-2.1578,-2.0755,-2.0755,-1.9943,-1.9497,-1.9488,-2.0755,-2.1698,-2.2592,-2.3544,-2.4375,-2.5098,0.0,0.0,0.0,-2.9526,-3.0868,-3.1999,-3.412,-3.4823,-3.4638,-3.5094,-3.4914,-3.4399,-3.4462,-3.3972,-3.3382,-3.3771,-3.3533,-3.3081,-3.3081,-3.3081,-3.2993,-3.2591,-3.2641,-3.2641,-3.1838,-3.1512,-3.1386,-3.1386,-3.1386,-3.1223,-3.0455,-3.0881,-3.0966,-2.9667,-3.0306,-3.1074,-3.1211,-3.1669,-3.2464,-3.3808,-3.4053,-3.4334,-3.4922,-3.5054,-3.4872,-3.4406,-3.3162,-3.2318,-3.2165,-3.2437,-3.2702,-3.2912,-3.3297,-3.349,-3.3434,-3.24,-3.166,-3.1297,-2.9105,-2.7841,-2.758,-2.6333,-2.5523,-2.5062,-2.4494,-2.3346,0.8036,0.7007,0.604,0.6282,0.6005,0.5547,0.0,0.4627,0.4477,0.4519,0.4525,0.4027,0.251,0.1004,-0.1006,-0.3999,-0.4504,0.0,-0.5283,-0.6258,0.0,0.0,0.0,0.0,0.0,0.0,0.0,0.0,0.0,0.0,0.0,-2.1943,-2.1845,-2.3047,-2.0764,-1.9497,-1.9497,-1.9497,-1.9497,-1.9488,-2.0755,-2.2156,-2.3799,-2.4219,-2.4648,0.0,0.0,0.0,0.0,-2.8171,-2.9205,-2.9929,-3.2494,-3.3898,-3.4437,-3.4656,-3.5064,-3.5366,-3.4286,-3.3897,-3.3884,-3.3897,-3.3533,-3.3081,-3.3081,-3.3081,-3.3081,-3.3068,-3.2667,-3.2227,-3.2202,-3.18,-3.1386,-3.1386,-3.1386,-3.1386,-3.1386,-3.1386,-3.1235,-3.0721,-3.1319,-3.1853,-3.1272,-3.2749,-3.3959,-3.4027,-3.5439,-3.6531,-3.6308,-3.6577,-3.6678,-3.6407,-3.5643,-3.4698,-3.3587,-3.3843,-3.3966,-3.3702,-3.3879,-3.3632,-3.2844,-3.1769,-3.0485,-2.8966,-2.683,-2.54,-2.4724,-2.4216,-2.3676,-2.3142,-2.3025,-2.1675,0.8001,0.7037,0.6184,0.5783,0.5595,0.5359,0.4877,0.4596,0.4477,0.4519,0.4477,0.4376,0.3866,0.1677,-0.0336,-0.1286,-0.3142,0.0,0.0,0.0,0.0,0.0,0.0,0.0,0.0,0.0,0.0,0.0,0.0,0.0,0.0,0.0,-2.2306,-2.1845,-1.9497,-1.8688,-1.9488,-1.7848,-1.7953,-1.9944,-2.0315,-2.1503,-2.3513,-2.441,0.0,0.0,0.0,0.0,0.0,-2.8644,-2.9688,-3.0406,-3.3024,-3.4231,-3.4497,-3.5065,-3.5152,-3.4939,-3.4575,-3.3972,-3.3395,-3.3771,-3.3533,-3.3081,-3.3081,-3.3081,-3.3081,-3.3081,-3.2943,-3.2805,-3.2805,-3.2679,-3.2629,-3.3018,-3.2817,-3.2883,-3.3972,-3.3918,-3.3708,-3.3831,-3.3747,-3.3817,-3.4493,-3.4712,-3.5353,-3.6888,-3.7349,-3.7656,-3.8052,-3.7621,-3.7069,-3.6537,-3.5747,-3.5093,-3.4699,-3.4276,-3.4004,-3.3977,-3.3301,-3.2741,-3.2415,-3.0779,-2.9787,-2.9523,-2.6454,-2.4943,-2.5141,-2.3055,-2.1498,-2.0455,-1.9823,-1.8561,0.8242,0.7015,0.6077,0.5385,0.5147,0.5065,0.4773,0.4579,0.4473,0.4525,0.448,0.4494,0.4501,0.2014,-0.0391,-0.151,-0.3288,0.0,0.0,0.0,0.0,0.0,0.0,0.0,0.0,0.0,0.0,0.0,0.0,0.0,0.0,0.0,-2.1221,-1.9943,-1.8956,-1.8772,-1.9488,-1.749,-1.7927,-2.0788,-2.0788,-2.1946,-2.3991,-2.4774,0.0,0.0,0.0,0.0,0.0,-2.9147,-3.0066,-3.0618,-3.3365,-3.4385,-3.4521,-3.5263,-3.5203,-3.4688,-3.4487,-3.3822,-3.3131,-3.3483,-3.3357,-3.3119,-3.3319,-3.3382,-3.3382,-3.3382,-3.3533,-3.3658,-3.3432,-3.3533,-3.3684,-3.3608,-3.3817,-3.4229,-3.501,-3.5507,-3.5737,-3.5535,-3.5856,-3.6327,-3.6724,-3.6691,-3.709,-3.8618,-3.85,-3.8336,-3.8634,-3.7759,-3.6916,-3.6394,-3.5554,-3.477,-3.4124,-3.391,-3.3691,-3.3392,-3.2522,-3.17,-3.099,-2.9233,-2.8148,-2.7792,-2.4741,-2.3368,-2.3751,-2.1194,-1.9554,-1.8645,-1.7185,-1.579,0.0,0.7119,0.6011,0.5125,0.4838,0.4731,0.4674,0.4565,0.0,0.4477,0.4421,0.4373,0.4337,0.1898,-0.1114,-0.4054,0.0,0.0,0.0,0.0,0.0,0.0,0.0,0.0,0.0,0.0,0.0,0.0,0.0,0.0,0.0,0.0,-1.8956,-1.787,-1.8956,-1.9497,-1.9405,-1.8326,-1.9249,-2.207,-2.207,-2.315,-2.5117,-2.5117,0.0,0.0,0.0,0.0,0.0,-2.9405,-3.0276,-3.0678,-3.3353,-3.4385,-3.4521,-3.5263,-3.5215,-3.4713,-3.4198,-3.3658,-3.3194,-3.3194,-3.3144,-3.3181,-3.3771,-3.3935,-3.3909,-3.3947,-3.4324,-3.4587,-3.4123,-3.4363,-3.4476,-3.3617,-3.4536,-3.5535,-3.5086,-3.6473,-3.736,-3.6229,-3.7772,-3.8999,-3.815,-3.8521,-3.899,-3.9272,-3.8964,-3.8554,-3.8233,-3.7133,-3.6282,-3.6009,-3.508,-3.3829,-3.2325,-3.3001,-3.3084,-3.2093,-3.1521,-3.0484,-2.879,-2.7336,-2.5778,-2.4248,-2.195,-2.0774,-2.0862,-1.8758,-1.7755,-1.7579,-1.5194,-1.3478,0.9718,0.0,0.7635,0.5836,0.531,0.5171,0.0,0.4543,0.4519,0.0,0.0,0.0,0.0,0.0334,-0.2291,0.0,0.0,0.0,0.0,0.0,0.0,0.0,0.0,0.0,0.0,0.0,0.0,0.0,0.0,0.0,0.0,0.0,-1.9405,-1.9139,-1.9314,-1.9039,-1.8141,-1.8772,-2.0189,-2.2469,-2.2469,-2.3569,-2.5586,-2.5586,0.0,0.0,0.0,0.0,-2.8497,-2.9471,-3.0402,-3.1418,-3.3621,-3.4385,-3.4521,-3.5263,-3.5466,-3.5328,-3.5203,-3.4801,-3.4336,-3.4336,-3.3771,-3.3257,-3.4236,-3.4236,-3.3985,-3.4412,-3.4625,-3.4767,-3.502,-3.5227,-3.5496,-3.6031,-3.6584,-3.7147,-3.7745,-3.8918,-3.9929,-3.9959,-4.0273,-4.0691,-4.1125,-3.9852,-3.8942,-3.9529,-3.8311,-3.732,-3.724,-3.6031,-3.5113,-3.4902,-3.3697,-3.2669,-3.211,-3.294,-3.262,-3.0477,-2.9942,-2.8891,-2.7117,-2.5708,-2.4128,-2.2361,-1.9887,-1.8206,-1.7394,-1.6872,-1.6171,-1.5372,-1.3908,-1.2707,1.0381,0.9422,0.8199,0.6018,0.5487,0.5324,0.468,0.4519,0.4519,0.0,0.0,0.0,0.0,0.0,0.0,0.0,0.0,0.0,0.0,0.0,0.0,0.0,0.0,0.0,0.0,0.0,0.0,0.0,0.0,0.0,0.0,0.0,-1.868,-1.868,-1.9761,-2.0034,-1.9405,-2.0034,-2.1334,-2.3467,-2.3467,-2.4203,-2.5742,-2.5742,0.0,0.0,0.0,0.0,-2.94,-3.1163,-3.2259,-3.2972,-3.4655,-3.5271,-3.5343,-3.5737,-3.5768,-3.5542,-3.5542,-3.519,-3.4893,-3.597,-3.5553,-3.4895,-3.6262,-3.6305,-3.5877,-3.5863,-3.6285,-3.6656,-3.6672,-3.6946,-3.7206,-3.7161,-3.8278,-3.936,-3.9543,-4.0829,-4.1797,-4.1476,-4.137,-4.1272,-4.0975,-3.9159,-3.7794,-3.7978,-3.639,-3.5162,-3.5126,-3.3846,-3.2866,-3.2773,-3.1854,-3.0761,-2.9556,-3.0538,-3.0545,-2.8921,-2.8286,-2.6931,-2.4619,-2.3368,-2.1629,-1.9413,-1.8033,-1.6961,-1.6076,-1.5695,-1.5173,-1.4569,-1.3107,-1.1885,1.094,0.9898,0.8397,0.624,0.5679,0.5437,0.468,0.4519,0.4522,0.0,0.0,0.0,0.0,0.2174,0.0,0.0,0.0,0.0,0.0,0.0,0.0,0.0,0.0,0.0,0.0,0.0,0.0,0.0,0.0,0.0,0.0,0.0,0.0,-1.7963,-2.0124,-2.1382,-2.1569,-2.1569,-2.2441,-2.4137,-2.4322,-2.4883,-2.5742,-2.581,0.0,0.0,0.0,0.0,-3.0367,-3.3233,-3.4435,-3.4667,-3.5928,-3.6546,-3.6628,-3.6628,-3.6417,-3.6195,-3.6195,-3.5825,-3.5697,-3.7792,-3.7711,-3.7075,-3.8654,-3.8908,-3.8517,-3.8279,-3.8542,-3.8853,-3.8605,-3.9032,-3.9266,-3.8277,-3.9984,-4.1572,-4.0866,-4.2021,-4.2756,-4.1393,-4.1152,-4.0694,-3.9131,-3.7188,-3.5714,-3.5435,-3.3614,-3.221,-3.2153,-3.0871,-2.9973,-2.9973,-2.9584,-2.8482,-2.6338,-2.7185,-2.7417,-2.6576,-2.6196,-2.4707,-2.181,-2.0335,-1.8506,-1.6276,-1.5992,-1.5693,-1.5374,-1.4543,-1.4188,-1.4166,-1.2304,-1.092,1.1597,1.0802,0.9464,0.7291,0.6586,0.6095,0.4791,0.4519,0.4519,0.4519,0.0,0.0,0.0,0.2732,0.0,0.0,0.0,0.0,0.0,0.0,0.0,0.0,0.0,0.0,0.0,0.0,0.0,0.0,0.0,0.0,0.0,0.0,0.0,-1.9222,-2.0567,-2.1756,-2.2775,-2.2862,-2.283,-2.2896,-2.3942,-2.4883,-2.5752,-2.6123,-2.6883,0.0,0.0,-3.0625,-3.2311,-3.3776,-3.4811,-3.5425,-3.6088,-3.6977,-3.7848,-3.7848,-3.8416,-3.9223,-3.9223,-3.8828,-3.8478,-3.9357,-3.8905,-3.8214,-3.9612,-4.0321,-4.0904,-4.1986,-4.0755,-3.9347,-4.0285,-4.086,-4.1196,-4.1378,-4.2259,-4.2711,-4.1598,-4.1936,-4.1855,-3.9849,-3.8895,-3.8096,-3.712,-3.4378,-3.2368,-3.2598,-3.0016,-2.8143,-2.8304,-2.7413,-2.6805,-2.6805,-2.6713,-2.6174,-2.481,-2.4271,-2.3225,-2.1408,-2.2782,-2.2379,-1.9427,-1.6308,-1.4379,-1.4019,-1.2914,-1.2339,-1.2525,-1.2367,-1.2407,-1.2626,-1.0373,-0.9278,1.0984,1.0407,0.9408,0.7643,0.7098,0.6578,0.475,0.4419,0.448,0.448,0.0,0.0,0.0,0.0,0.0,0.0,0.0,0.0,0.0,0.0,0.0,0.0,0.0,0.0,0.0,0.0,0.0,0.0,0.0,0.0,0.0,0.0,0.0,0.0,-2.0657,-2.1845,-2.3057,-2.3135,-2.3297,-2.356,-2.4127,-2.4883,-2.5742,-2.66,-2.7606,-2.8747,0.0,-3.2275,-3.3696,-3.4968,-3.5722,-3.61,-3.6954,-3.7678,-3.8198,-3.8827,-3.9448,-3.9986,-4.0575,-4.0208,-3.9786,-4.1448,-4.1157,-4.0494,-4.2203,-4.2469,-4.2526,-4.4082,-4.2993,-4.1566,-4.2559,-4.2664,-4.2531,-4.2698,-4.2762,-4.2591,-4.1999,-4.1062,-3.9872,-3.8337,-3.6279,-3.4381,-3.3095,-3.0369,-2.8338,-2.8163,-2.6426,-2.5196,-2.5293,-2.4943,-2.4484,-2.3904,-2.3821,-2.3189,-2.149,-2.1166,-2.0313,-1.8683,-1.8435,-1.7415,-1.5445,-1.3197,-1.2008,-1.1954,-1.1355,-1.1031,-1.1223,-1.1223,-1.1277,-1.1381,-0.9666,-0.889,1.0271,0.9683,0.8797,0.7587,0.7273,0.6701,0.4757,0.4401,0.4498,0.0,0.0,0.0,0.0,0.0,0.0,0.0,0.0,0.0,0.0,0.0,0.0,0.0,0.0,0.0,0.0,0.0,0.0,0.0,0.0,0.0,0.0,0.0,0.0,0.0,-2.0657,-2.1845,-2.3057,-2.3135,-2.3564,-2.4414,-2.4414,-2.4883,-2.5742,-2.7256,-2.8412,-2.9483,-3.2144,-3.3768,-3.4703,-3.5916,-3.6534,-3.6883,-3.7756,-3.8456,-3.9067,-4.0533,-4.1042,-4.121,-4.2254,-4.1974,-4.1497,-4.3568,-4.3438,-4.276,-4.4483,-4.4347,-4.3871,-4.5302,-4.4577,-4.3562,-4.4229,-4.3944,-4.3369,-4.305,-4.2307,-4.1522,-4.0945,-3.8858,-3.6737,-3.5354,-3.276,-3.0297,-2.8732,-2.6487,-2.4833,-2.453,-2.3531,-2.2776,-2.2754,-2.2606,-2.2039,-2.0974,-2.0811,-1.9985,-1.7865,-1.7722,-1.7083,-1.5562,-1.4215,-1.3091,-1.2209,-1.1089,-1.0409,-1.0333,-1.0328,-1.0299,-1.0251,-1.0251,-1.0226,-1.0178,-0.9056,-0.8452,1.022,0.9086,0.762,0.7127,0.685,0.6315,0.4969,0.4558,0.4552,0.475,0.0,0.0,0.0,0.0,0.0,0.0,0.0,0.0,0.0,0.0,0.0,0.0,0.0,0.0,0.0,0.0,0.0,0.0,0.0,0.0,0.0,0.0,0.0,0.0,0.0,-2.1845,-2.3057,-2.3135,-2.3564,-2.4414,-2.4414,-2.4883,-2.5762,-2.7893,-2.9322,-3.027,-3.3036,-3.4726,-3.5456,-3.6157,-3.707,-3.803,-3.8107,-3.942,-4.1573,-4.3665,-4.4479,-4.454,-4.5514,-4.5373,-4.4872,-4.5601,-4.5052,-4.419,-4.5164,-4.5125,-4.4957,-4.5767,-4.5054,-4.4102,-4.4399,-4.422,-4.3671,-4.253,-4.1049,-3.9323,-3.7163,-3.4625,-3.2025,-2.9489,-2.7548,-2.5901,-2.486,-2.3381,-2.2574,-2.3441,-2.1962,-2.076,-2.0671,-1.9856,-1.8859,-1.7721,-1.7641,-1.6762,-1.475,-1.3863,-1.2512,-1.0216,-1.0886,-1.1329,-1.1242,-1.0057,-0.941,-0.9397,-0.9397,-0.9309,-0.9221,-0.9221,-0.9135,-0.8978,-0.7753,-0.7228,0.9819,0.9257,0.8345,0.7284,0.7034,0.0,0.0,0.4673,0.4439,0.2279,0.1754,0.0,0.0,0.0,0.0,0.0,0.0,0.0,0.0,0.0,0.0,0.0,0.0,0.0,0.0,0.0,0.0,0.0,0.0,0.0,0.0,0.0,0.0,0.0,0.0,-2.2677,-2.3135,-2.3135,-2.3437,-2.4033,-2.4287,-2.4883,-2.5742,-2.8116,-2.9554,-3.0368,-3.2939,-3.4433,-3.5039,-3.5929,-3.6622,-3.7201,-3.9089,-4.1397,-4.3652,-4.4153,-4.4622,-4.5064,-4.5285,-4.5179,-4.508,-4.5513,-4.5388,-4.5162,-4.5757,-4.5627,-4.5302,-4.5512,-4.4262,-4.3044,-4.3919,-4.2881,-4.1264,-3.9854,-3.7424,-3.5005,-3.3632,-3.0934,-2.8157,-2.6128,-2.478,-2.3547,-2.2116,-2.1446,-2.1231,-2.168,-2.1088,-2.0313,-1.964,-1.9256,-1.831,-1.6519,-1.519,-1.4202,-1.3767,-1.1884,-1.0541,-0.9883,-1.0001,-0.9793,-0.9041,-0.8573,-0.8343,-0.8247,-0.8243,-0.8162,-0.8087,-0.8087,-0.7911,-0.7753,-0.7316,-0.7139,0.9113,0.869,0.7957,0.6974,0.6634,0.0,0.3894,0.433,0.4475,0.2187,0.0774,-0.0661,0.0,0.0,0.0,0.0,0.0,0.0,0.0,0.0,0.0,0.0,0.0,0.0,0.0,0.0,0.0,0.0,0.0,0.0,0.0,0.0,0.0,0.0,0.0,0.0,-2.3047,-2.3135,-2.3359,-2.3799,-2.4082,-2.4678,-2.5624,-2.8395,-2.9821,-3.0334,-3.304,-3.454,-3.5226,-3.597,-3.6724,-3.7617,-4.04,-4.2557,-4.4153,-4.4086,-4.4511,-4.5098,-4.5064,-4.5085,-4.5261,-4.5705,-4.5711,-4.5605,-4.5671,-4.5304,-4.4707,-4.3934,-4.2179,-4.0544,-4.0561,-3.9479,-3.7959,-3.6258,-3.3201,-3.0461,-2.9586,-2.7008,-2.4596,-2.3384,-2.2664,-2.1798,-2.0682,-2.0527,-2.0566,-2.0566,-2.0323,-1.9678,-1.863,-1.8244,-1.7376,-1.5672,-1.3868,-1.2836,-1.2797,-1.091,-0.9575,-0.9406,-0.9104,-0.8653,-0.7882,-0.7882,-0.7838,-0.774,-0.774,-0.7827,-0.7986,-0.7986,-0.8053,-0.8185,-0.7837,-0.7665,0.813,0.7209,0.6031,0.6136,0.0,0.0,0.2579,0.3354,0.4611,0.5227,0.2484,-0.0,-0.0,0.0,0.0,0.0,0.0,0.0,0.0,0.0,0.0,0.0,0.0,0.0,0.0,0.0,0.0,0.0,0.0,0.0,0.0,0.0,0.0,0.0,0.0,0.0,-2.3047,-2.3047,-2.3359,-2.3779,-2.3789,-2.4238,-2.5183,-2.865,-3.0206,-3.0334,-3.3405,-3.5277,-3.6266,-3.6266,-3.7604,-3.983,-4.1891,-4.2664,-4.2856,-4.3896,-4.461,-4.5115,-4.5333,-4.551,-4.5804,-4.6405,-4.6091,-4.5368,-4.4771,-4.406,-4.3003,-4.0857,-3.8696,-3.6458,-3.3897,-3.3768,-3.38,-3.1886,-2.8692,-2.5874,-2.5062,-2.2955,-2.1173,-2.1201,-2.0869,-2.0566,-2.0566,-2.0566,-2.0566,-2.0566,-1.9687,-1.8559,-1.7423,-1.6567,-1.5807,-1.5109,-1.3995,-1.2918,-1.1601,-1.0563,-0.941,-0.8137,-0.8038,-0.8038,-0.8038,-0.8038,-0.8038,-0.8038,-0.8038,-0.8466,-0.9343,-0.9343,-0.9786,-1.0524,-0.941,-0.889,0.8017,0.7553,0.0,0.5979,0.0,0.0,0.0,0.0568,0.0,0.0,0.0782,-0.0423,-0.1914,0.0,0.0,0.0,0.0,0.0,0.0,0.0,0.0,0.0,0.0,0.0,0.0,0.0,0.0,0.0,0.0,0.0,0.0,0.0,0.0,0.0,0.0,0.0,-2.1845,-2.2677,-2.3203,-2.334,-2.4412,-2.5214,-2.5879,-2.7741,-2.9021,-2.9921,-3.2286,-3.3545,-3.3938,-3.543,-3.7416,-3.9692,-4.0423,-4.1662,-4.3005,-4.3384,-4.3989,-4.4613,-4.4975,-4.5294,-4.5624,-4.5975,-4.5583,-4.4807,-4.4052,-4.2354,-4.0248,-3.8086,-3.5148,-3.2087,-2.9882,-2.7751,-2.6192,-2.6295,-2.4574,-2.2787,-2.1952,-2.0635,-1.9669,-1.9617,-2.0175,-2.0323,-1.9599,-2.0079,-2.0566,-2.0566,-1.9687,-1.8406,-1.6674,-1.5633,-1.5048,-1.5302,-1.4106,-1.3373,-1.3166,-1.2098,-1.1165,-1.0779,-1.0779,-0.9899,-0.8038,-0.8038,-0.8038,-0.8038,-0.8038,-0.8466,-0.9343,-0.9343,-0.9336,-0.9405,-0.9061,-0.8452,0.7677,0.7494,0.0,0.5828,0.5862,0.5514,0.2902,0.0,0.0,0.0,0.0,0.0,0.0,0.0,0.0,0.0,0.0,0.0,0.0,0.0,0.0,0.0,0.0,0.0,0.0,0.0,0.0,0.0,0.0,0.0,0.0,0.0,0.0,0.0,0.0,0.0,-2.1293,-2.2492,-2.3299,-2.38,-2.4747,-2.5786,-2.6929,-2.8094,-2.911,-3.0262,-3.2921,-3.4039,-3.419,-3.5784,-3.7584,-3.9249,-3.9753,-4.1016,-4.2599,-4.274,-4.331,-4.4135,-4.4223,-4.4674,-4.5162,-4.4952,-4.4485,-4.3671,-4.1738,-3.9698,-3.7382,-3.4219,-3.1358,-2.8626,-2.6048,-2.3635,-2.2193,-2.3062,-2.1784,-2.0315,-2.0205,-1.9397,-1.8948,-1.9793,-2.0631,-2.0914,-2.0275,-2.075,-2.1001,-2.0644,-1.9274,-1.7843,-1.6488,-1.5371,-1.4917,-1.5504,-1.4409,-1.3702,-1.3861,-1.2624,-1.1945,-1.1945,-1.1945,-1.1165,-0.9608,-0.9505,-0.9312,-0.8825,-0.8825,-0.9271,-1.0193,-0.9562,-0.9917,-1.1097,-0.962,-0.8711,0.7242,0.7183,0.0,0.5775,0.5815,0.0,0.1467,-0.1831,-0.4503,0.0,0.0,0.0,0.0,0.0,0.0,0.0,0.0,0.0,0.0,0.0,0.0,0.0,0.0,0.0,0.0,0.0,0.0,0.0,0.0,0.0,0.0,0.0,0.0,0.0,0.0,0.0,-2.1114,-2.2403,-2.3637,0.0,-2.4872,-2.6025,-2.8119,-2.9153,-3.0199,-3.1411,-3.4418,-3.5784,-3.5927,-3.6867,-3.7734,-3.8618,-3.9388,-4.0598,-4.1833,-4.2009,-4.2785,-4.3674,-4.3304,-4.3806,-4.4449,-4.3389,-4.2822,-4.1913,-3.8426,-3.6345,-3.4278,-2.989,-2.7561,-2.5701,-2.2725,-2.1352,-2.0913,-2.1776,-2.0078,-1.8537,-1.9618,-1.907,-1.8966,-2.1063,-2.1808,-2.2039,-2.1964,-2.2006,-2.1659,-2.0624,-1.8621,-1.7103,-1.668,-1.5651,-1.519,-1.5765,-1.4752,-1.407,-1.407,-1.2915,-1.2237,-1.2237,-1.2237,-1.2237,-1.2237,-1.2042,-1.1361,-1.0194,-1.0194,-1.0674,-1.1691,-1.0286,-1.1268,-1.4241,-1.0742,-0.9598,0.7663,0.7023,0.0,0.0,0.5389,0.4759,0.271,0.0585,-0.1877,0.0,0.0,0.0,0.0,0.0,0.0,0.0,0.0,0.0,0.0,0.0,0.0,0.0,0.0,0.0,0.0,0.0,0.0,0.0,0.0,0.0,0.0,0.0,0.0,0.0,0.0,-1.9579,-1.9852,-2.2041,-2.3637,0.0,-2.5714,-2.6789,-2.8096,-2.9126,-3.094,-3.3367,-3.4125,-3.4884,-3.5629,-3.5842,-3.6735,-3.7975,-3.8211,-3.9396,-4.1194,-4.1655,-4.2468,-4.3303,-4.3061,-4.3423,-4.367,-4.1722,-4.0225,-3.8727,-3.6417,-3.3319,-3.0069,-2.7423,-2.4834,-2.2566,-2.1615,-2.0712,-2.0403,-2.1669,-1.9843,-1.8043,-1.8969,-1.9033,-1.9462,-2.1426,-2.2182,-2.2295,-2.1492,-2.1711,-2.142,-1.959,-1.8149,-1.7103,-1.668,-1.5651,-1.519,-1.5765,-1.5534,-1.5439,-1.5439,-1.5146,-1.4956,-1.4956,-1.4956,-1.4956,-1.4956,-1.3011,-1.175,-1.1463,-1.1463,-1.2021,-1.3012,-1.2681,-1.2706,-1.3161,-1.1425,-1.0167,0.7662,0.0,0.0,0.5893,0.0,0.4708,0.3078,0.079,0.0,0.0,0.0,0.0,0.0,0.0,0.0,0.0,0.0,0.0,0.0,0.0,0.0,0.0,0.0,0.0,0.0,0.0,0.0,0.0,0.0,0.0,0.0,0.0,0.0,0.0,-1.7887,-1.906,-1.8977,-2.1571,-2.3547,-2.4865,-2.6002,-2.7797,-3.0265,-3.0764,-3.2096,-3.4027,-3.4543,-3.4986,-3.5504,-3.5894,-3.6707,-3.7822,-3.8206,-3.9563,-4.1349,-4.1404,-4.2118,-4.3011,-4.2795,-4.2486,-4.1948,-4.0312,-3.8269,-3.6017,-3.3507,-3.0808,-2.8061,-2.5355,-2.3492,-2.2176,-2.1586,-2.1076,-2.1003,-2.2075,-2.1107,-1.9934,-2.0056,-2.036,-2.0964,-2.24,-2.3087,-2.3149,-2.2437,-2.173,-2.0991,-1.9913,-1.8789,-1.8172,-1.8222,-1.677,-1.5972,-1.6598,-1.6204,-1.5832,-1.5832,-1.5832,-1.5832,-1.5832,-1.5832,-1.5832,-1.5832,-1.4465,-1.3494,-1.2909,-1.2813,-1.3137,-1.3673,-1.2886,-1.3072,-1.4,-1.1509,-1.0178,0.7707,0.0,0.7145,0.6173,0.5502,0.0,0.3474,0.0554,0.0,0.0,0.0,0.0,0.0,0.0,0.0,0.0,0.0,0.0,0.0,0.0,0.0,0.0,0.0,0.0,0.0,0.0,0.0,0.0,0.0,0.0,0.0,0.0,-1.5157,-1.497,-1.7389,-1.8625,-1.8423,-2.1079,-2.3258,-2.5004,-2.6234,-2.8676,-3.2289,-3.2289,-3.3044,-3.4327,-3.5133,-3.5554,-3.5718,-3.6337,-3.7144,-3.8092,-3.8783,-4.0144,-4.1641,-4.1196,-4.1699,-4.2492,-4.1913,-4.098,-3.9805,-3.84,-3.6234,-3.3608,-3.0563,-2.8764,-2.7081,-2.4041,-2.3213,-2.3034,-2.2323,-2.2128,-2.2298,-2.3098,-2.3032,-2.2606,-2.1728,-2.2005,-2.2595,-2.3173,-2.352,-2.3593,-2.329,-2.1745,-2.0566,-2.0566,-1.9687,-1.9236,-1.9928,-1.8226,-1.7196,-1.7887,-1.685,-1.6109,-1.6109,-1.592,-1.5832,-1.5832,-1.5832,-1.5832,-1.5832,-1.5832,-1.5337,-1.4268,-1.4262,-1.4262,-1.4262,-1.2998,-1.345,-1.5299,-1.1595,-1.0292,0.8573,0.0,0.7371,0.0,0.5455,0.5109,0.0,0.0,0.0,0.0,0.0,0.0,0.0,0.0,0.0,0.0,0.0,0.0,0.0,0.0,0.0,0.0,0.0,0.0,0.0,0.0,0.0,0.0,0.0,0.0,0.0,-1.4756,-1.4736,-1.4957,-1.7255,-1.8465,-1.8415,-2.0801,-2.2961,-2.5004,-2.6932,-2.8962,-3.1046,-3.1046,-3.2592,-3.5294,-3.5424,-3.5831,-3.6446,-3.6554,-3.7483,-3.8783,-3.9443,-4.0279,-4.1148,-4.0939,-4.096,-4.0912,-3.9198,-3.8403,-3.7651,-3.4618,-3.2951,-3.1561,-2.8654,-2.7253,-2.6289,-2.445,-2.3935,-2.3935,-2.3806,-2.3806,-2.3992,-2.4827,-2.5021,-2.4593,-2.31,-2.2859,-2.2837,-2.2691,-2.2079,-2.1702,-2.2104,-2.1298,-2.0566,-2.0566,-1.9687,-1.9236,-1.9928,-1.8922,-1.8425,-1.9141,-1.8133,-1.7412,-1.7412,-1.6386,-1.5832,-1.5832,-1.5832,-1.5832,-1.5832,-1.5832,-1.573,-1.554,-1.554,-1.554,-1.554,-1.5305,-1.5256,-1.5299,-1.2609,-1.1351,0.8389,0.7937,0.7507,0.0,0.5942,0.5453,0.5421,0.0,0.0,0.0,0.0,0.0,0.0,0.0,0.0,0.0,0.0,0.0,0.0,0.0,0.0,0.0,0.0,0.0,0.0,0.0,0.0,0.0,0.0,0.0,-1.4462,-1.4502,-1.4509,-1.4476,-1.6838,0.0,-1.7813,-2.029,-2.2644,-2.4993,-2.6784,-2.8742,-3.0798,-3.0798,-3.2117,-3.4397,-3.4771,-3.5145,-3.5506,-3.6763,-3.76,-3.815,-3.9323,-3.9926,-4.0104,-3.9761,-3.9318,-3.8672,-3.7253,-3.578,-3.4207,-3.2179,-3.0487,-2.8853,-2.6856,-2.5844,-2.5217,-2.4491,-2.4299,-2.4422,-2.5218,-2.5425,-2.5658,-2.6467,-2.6336,-2.5714,-2.46,-2.3651,-2.2825,-2.2286,-2.1734,-2.1429,-2.1954,-2.1231,-2.0566,-2.0566,-2.0167,-2.0061,-2.0573,-1.9901,-1.9557,-2.0112,-1.8661,-1.7692,-1.7692,-1.6574,-1.5832,-1.5832,-1.5832,-1.5832,-1.5832,-1.5832,-1.5832,-1.5832,-1.5832,-1.5832,-1.5832,-1.5832,-1.5765,-1.5544,-1.3042,-1.1677,0.0,0.0,0.7806,0.7228,0.6473,0.5739,0.0,0.0,0.0,0.0,0.0,0.0,0.0,0.0,0.0,0.0,0.0,0.0,0.0,0.0,0.0,0.0,0.0,0.0,0.0,0.0,0.0,0.0,0.0,0.0,-1.3997,-1.4295,-1.4309,-1.4095,-1.6285,-1.7392,-1.7113,-2.0125,-2.2636,-2.4612,-2.6287,-2.8209,-3.0342,-3.0342,-3.1333,-3.3051,-3.4038,-3.4798,-3.5447,-3.7054,-3.7807,-3.8087,-3.9188,-3.9443,-3.9165,-3.8601,-3.7665,-3.6516,-3.5654,-3.3904,-3.1849,-3.0904,-2.9546,-2.7969,-2.6565,-2.5976,-2.5692,-2.548,-2.5417,-2.5664,-2.6718,-2.6916,-2.693,-2.7458,-2.6878,-2.5946,-2.4966,-2.378,-2.2636,-2.1788,-2.1674,-2.1723,-2.1662,-2.1451,-2.1231,-2.1011,-2.0934,-2.1093,-2.1551,-2.0803,-2.0512,-2.1112,-1.9289,-1.8049,-1.8133,-1.6756,-1.5832,-1.5832,-1.5832,-1.5832,-1.5832,-1.5832,-1.5832,-1.5832,-1.5832,-1.5832,-1.5832,-1.5439,-1.5343,-1.5242,-1.2624,-1.1376,0.0,0.9592,0.0,0.7836,0.6703,0.0,0.0,0.0,0.0,0.0,0.0,0.0,0.0,0.0,0.0,0.0,0.0,0.0,0.0,0.0,0.0,0.0,0.0,0.0,0.0,0.0,0.0,0.0,0.0,0.0,-1.3997,-1.4102,-1.4102,-1.4088,-1.5817,-1.6743,-1.6719,-2.0747,-2.305,-2.3593,-2.5618,-2.7416,-2.9085,-2.9085,-2.9988,-3.1676,-3.3649,-3.5707,-3.7636,-3.7503,-3.8288,-3.9558,-3.9463,-3.9138,-3.8645,-3.7906,-3.645,-3.4783,-3.4342,-3.3232,-3.1882,-3.1121,-3.0869,-3.048,-2.8681,-2.8637,-2.8992,-2.8295,-2.8198,-2.8306,-2.8352,-2.7993,-2.756,-2.7575,-2.6481,-2.5036,-2.3475,-2.2824,-2.2147,-2.0919,-2.1745,-2.2223,-2.0931,-2.2188,-2.2999,-2.2027,-2.1962,-2.2129,-2.259,-2.1769,-2.15,-2.2337,-2.021,-1.8938,-1.9372,-1.7203,-1.5832,-1.5832,-1.5832,-1.5832,-1.5832,-1.5832,-1.5832,-1.5832,-1.5832,-1.5832,-1.5832,-1.4561,-1.3974,-1.3974,-1.1356,-1.0092,0.0,0.0,0.0,0.9318,0.7663,0.0,0.0,0.0,0.0,0.0,0.0,0.0,0.0,0.0,0.0,0.0,0.0,0.0,0.0,0.0,0.0,0.0,0.0,0.0,0.0,0.0,0.0,0.0,0.0,0.0,-1.3997,-1.4088,-1.4001,-1.3808,-1.5663,-1.7398,-1.8736,-2.1755,-2.3346,-2.3514,-2.5569,-2.7095,-2.8182,-2.8748,-2.984,-3.1392,-3.311,-3.4315,-3.5162,-3.6779,-3.7483,-3.7591,-3.8341,-3.8042,-3.7186,-3.6929,-3.5734,-3.4193,-3.3783,-3.2836,-3.1661,-3.079,-3.0526,-3.0321,-2.917,-2.8982,-2.9205,-2.9218,-2.9074,-2.8904,-2.8894,-2.8545,-2.7978,-2.7086,-2.6496,-2.57,-2.4063,-2.286,-2.1911,-2.114,-2.1694,-2.2181,-2.1953,-2.2802,-2.3368,-2.2999,-2.2925,-2.2979,-2.3165,-2.2629,-2.2257,-2.2574,-2.0156,-1.8666,-1.9125,-1.6904,-1.5631,-1.5818,-1.5832,-1.5832,-1.5832,-1.5832,-1.5439,-1.4561,-1.4561,-1.4949,-1.5832,-1.4561,-1.3878,-1.3878,-1.1263,-0.9998,1.4471,0.0,0.0,0.0,0.0,0.0,0.0,0.0,0.0,0.0,0.0,0.0,0.0,0.0,0.0,0.0,0.0,0.0,0.0,0.0,0.0,0.0,0.0,0.0,0.0,0.0,0.0,0.0,0.0,0.0,-1.3858,-1.4035,-1.4227,-1.4438,-1.5819,-1.7525,-1.9707,-2.1723,-2.3066,-2.3514,-2.5205,-2.662,-2.7736,-2.862,-2.9715,-3.0968,-3.2285,-3.3379,-3.4376,-3.6026,-3.668,-3.66,-3.7044,-3.6801,-3.6224,-3.6151,-3.5237,-3.4004,-3.4038,-3.3313,-3.2291,-3.1741,-3.157,-3.1452,-3.0733,-3.0523,-3.0556,-3.073,-3.0451,-3.0032,-2.9765,-2.9278,-2.8528,-2.739,-2.7085,-2.6732,-2.5422,-2.405,-2.2824,-2.2092,-2.2947,-2.367,-2.3502,-2.4261,-2.4779,-2.4482,-2.4158,-2.4093,-2.4253,-2.3221,-2.2615,-2.293,-2.0393,-1.8776,-1.883,-1.7085,-1.5876,-1.5812,-1.5832,-1.5635,-1.5146,-1.5146,-1.4561,-1.3295,-1.3199,-1.3686,-1.4465,-1.3199,-1.2614,-1.2517,-1.0386,-0.9316,0.0,0.0,0.0,0.0,0.0,0.0,0.0,0.0,0.0,0.0,0.0,0.0,0.0,0.0,0.0,0.0,0.0,0.0,0.0,0.0,0.0,0.0,0.0,0.0,0.0,0.0,0.0,0.0,0.0,-1.2638,-1.3477,-1.3895,-1.4657,-1.5932,-1.6135,-1.7208,-1.9287,-2.0709,-2.2091,-2.3514,-2.4492,-2.5963,-2.767,-2.8542,-2.9414,-3.0257,-3.1162,-3.3081,-3.5508,-3.5226,-3.5889,-3.6875,-3.5662,-3.5472,-3.5867,-3.567,-3.4941,-3.4159,-3.5025,-3.4623,-3.3788,-3.4052,-3.4147,-3.4037,-3.3506,-3.3345,-3.3285,-3.3034,-3.2509,-3.1908,-3.1141,-3.0219,-2.9255,-2.8514,-2.8341,-2.8121,-2.7414,-2.6361,-2.5145,-2.3745,-2.5521,-2.6809,-2.542,-2.6594,-2.7445,-2.6493,-2.5603,-2.5266,-2.5731,-2.3583,-2.2394,-2.3377,-2.0972,-1.9181,-1.8797,-1.7702,-1.6586,-1.5812,-1.5832,-1.5242,-1.3974,-1.3878,-1.3295,-1.1853,-1.1848,-1.1848,-1.175,-1.0583,-0.9998,-0.9998,-0.8627,-0.8038,1.8524,0.0,0.0,0.0,0.0,0.0,0.0,0.6721,0.0,0.0,0.0,0.0,0.0,0.0,0.0,0.0,0.0,0.0,0.0,0.0,0.0,0.0,0.0,0.0,0.0,0.0,0.0,0.0,-1.004,-1.1194,-1.219,-1.2784,-1.3944,-1.5625,-1.584,-1.7011,-1.9287,-2.0709,-2.2091,-2.3514,-2.4492,-2.5639,-2.6824,-2.7301,-2.7601,-2.7939,-2.941,-3.0744,-3.199,-3.3283,-3.3968,-3.4251,-3.4746,-3.5117,-3.5378,-3.5326,-3.5279,-3.5257,-3.5513,-3.5399,-3.5156,-3.5233,-3.5225,-3.5113,-3.478,-3.4641,-3.4563,-3.4267,-3.3833,-3.3177,-3.1991,-3.1257,-3.0582,-2.9735,-2.9307,-2.9025,-2.884,-2.8529,-2.7758,-2.5849,-2.675,-2.7593,-2.6762,-2.7759,-2.8363,-2.7432,-2.7433,-2.6981,-2.5445,-2.4289,-2.346,-2.2966,-2.0142,-1.8422,-1.8797,-1.6995,-1.579,-1.5812,-1.5832,-1.5242,-1.3974,-1.3878,-1.2813,-1.0583,-1.0485,-1.0096,-0.9114,-0.9702,-0.9998,-0.9998,-0.8627,-0.8038,0.0,0.0,0.0,0.0,0.0,0.0,0.8971,0.7279,0.0,0.0,0.0,0.0,0.0,0.0,0.0,0.0,0.0,0.0,0.0,0.0,0.0,0.0,0.0,0.0,0.0,0.0,0.0,0.0,-0.9806,-1.1241,-1.224,-1.2596,-1.3636,-1.5544,-1.5765,-1.6826,-1.9014,-2.0179,-2.1639,-2.3295,-2.4016,-2.5027,-2.6156,-2.6648,-2.6924,-2.7066,-2.7878,-2.8921,-3.0102,-3.0908,-3.1866,-3.2889,-3.3689,-3.411,-3.4367,-3.4966,-3.5329,-3.5519,-3.5646,-3.5932,-3.6189,-3.5792,-3.6095,-3.6553,-3.6056,-3.5834,-3.5727,-3.5502,-3.4745,-3.3821,-3.3077,-3.2297,-3.1577,-3.1096,-3.054,-3.0064,-2.9805,-2.9761,-2.9358,-2.7893,-2.8203,-2.8651,-2.8589,-2.8867,-2.89,-2.8322,-2.8199,-2.7571,-2.5853,-2.482,-2.4029,-2.3425,-2.0595,-1.876,-1.8814,-1.7085,-1.5968,-1.5812,-1.5832,-1.4956,-1.3102,-1.3102,-1.1843,-0.9213,-0.9118,-0.8825,-0.8038,-0.8825,-0.9118,-0.9118,-0.8333,-0.8038,0.0,0.0,0.0,0.0,0.0,0.0,1.0229,0.7848,0.5365,0.0,0.0,0.0,0.0,0.0,0.0,0.0,0.0,0.0,0.0,0.0,0.0,0.0,0.0,0.0,0.0,0.0,-0.7981,-0.7795,-1.0131,-1.2061,-1.3028,-1.2846,-1.3579,-1.5487,-1.5748,-1.6738,-1.864,-1.9576,-2.102,-2.2958,-2.3413,-2.4284,-2.5586,-2.6298,-2.6663,-2.6813,-2.6465,-2.7373,-2.9084,-2.8608,-2.9922,-3.2263,-3.2675,-3.2958,-3.3287,-3.4626,-3.524,-3.5418,-3.562,-3.6262,-3.6856,-3.5918,-3.6604,-3.7693,-3.6965,-3.6671,-3.6543,-3.6426,-3.5369,-3.4251,-3.418,-3.3332,-3.2494,-3.2358,-3.17,-3.0958,-3.0435,-3.0251,-3.0021,-2.939,-2.9422,-2.9635,-3.0161,-2.9737,-2.9163,-2.8766,-2.8078,-2.7263,-2.6115,-2.4729,-2.3807,-2.37,-2.1248,-1.9282,-1.8645,-1.7522,-1.6501,-1.5805,-1.5832,-1.4663,-1.2042,-1.1945,-1.0681,-0.8038,-0.8038,-0.8038,-0.8038,-0.8038,-0.8038,-0.8038,-0.8038,-0.8038,0.0,0.0,0.0,0.0,0.0,0.0,1.099,0.8745,0.6522,0.0,0.0,0.0,0.0,0.0,0.0,0.0,0.0,0.0,0.0,0.0,0.0,0.0,0.0,0.0,0.0,0.0,-0.7119,-0.7718,-0.9748,-1.1401,-1.2404,-1.2425,-1.325,-1.5191,-1.5615,-1.687,-1.916,-2.0449,-2.1901,-2.3369,-2.3885,-2.459,-2.5573,-2.4887,-2.4645,-2.4718,-2.4792,-2.5575,-2.6915,-2.7985,-2.9502,-3.1281,-3.2228,-3.3099,-3.3896,-3.4544,-3.5541,-3.6488,-3.5856,-3.6228,-3.6858,-3.5965,-3.5872,-3.6051,-3.5907,-3.5794,-3.5741,-3.5759,-3.585,-3.5732,-3.4884,-3.4222,-3.3539,-3.2654,-3.1442,-3.0435,-3.0351,-2.9935,-2.9374,-2.8669,-2.9073,-2.9332,-2.8811,-2.9073,-2.8759,-2.7063,-2.7079,-2.6149,-2.3209,-2.2268,-2.1461,-2.0555,-1.833,-1.7031,-1.7468,-1.6366,-1.5697,-1.5812,-1.5832,-1.4663,-1.2042,-1.1945,-1.0681,-0.8038,-0.8038,-0.8038,-0.8038,-0.8038,-0.8038,-0.8038,-0.8038,-0.8038,0.0,0.0,0.0,1.6231,0.0,0.0,0.0,1.0554,0.8367,0.0,0.0,0.0,0.0,0.0,0.0,0.0,0.0,0.0,0.0,0.0,0.0,0.0,0.0,0.0,0.0,0.0,-0.7032,-0.847,-0.9518,-1.072,-1.2224,-1.2732,-1.3665,-1.5163,-1.5828,-1.7229,-1.9253,-2.0162,-2.1485,-2.3121,-2.3544,-2.3954,-2.4356,-2.416,-2.4008,-2.3851,-2.3927,-2.5058,-2.6898,-2.73,-2.8682,-3.0687,-3.1754,-3.2501,-3.3107,-3.3857,-3.484,-3.577,-3.5449,-3.6012,-3.6733,-3.5902,-3.6162,-3.6721,-3.6398,-3.625,-3.6094,-3.5557,-3.513,-3.4648,-3.3742,-3.2602,-3.1491,-3.0712,-2.9656,-2.8757,-2.8437,-2.8138,-2.7592,-2.641,-2.651,-2.6949,-2.7356,-2.7454,-2.7064,-2.5747,-2.5346,-2.4269,-2.185,-2.0839,-1.9996,-1.9213,-1.7539,-1.6623,-1.7206,-1.6099,-1.5518,-1.5812,-1.5242,-1.398,-1.1945,-1.1263,-0.9998,-0.8038,-0.8038,-0.8038,-0.8038,-0.8038,-0.8038,-0.8038,-0.8038,-0.8038,0.0,0.0,0.0,0.0,0.0,1.4546,0.0,0.0,0.0,0.0,0.0,0.0,0.0,0.0,0.0,0.0,0.0,0.0,0.0,0.0,0.0,0.0,0.0,0.0,0.0,0.0,-0.7203,-0.915,-0.942,-1.0324,-1.2218,-1.3025,-1.3954,-1.5163,-1.6,-1.743,-1.9435,-2.0012,-2.1073,-2.2662,-2.3102,-2.315,-2.2975,-2.3412,-2.3522,-2.3381,-2.3378,-2.4675,-2.6867,-2.658,-2.7785,-2.9912,-3.1233,-3.1943,-3.2303,-3.3411,-3.4307,-3.504,-3.5145,-3.5863,-3.6582,-3.5835,-3.6318,-3.7079,-3.6406,-3.6075,-3.5696,-3.4607,-3.3555,-3.2558,-3.1682,-3.0223,-2.8819,-2.8325,-2.7622,-2.686,-2.6266,-2.6021,-2.5492,-2.3918,-2.3709,-2.4236,-2.5668,-2.5555,-2.4935,-2.4048,-2.3195,-2.2147,-2.0572,-1.938,-1.8533,-1.8074,-1.7062,-1.6455,-1.6772,-1.5895,-1.5425,-1.5419,-1.4459,-1.3199,-1.1556,-1.0293,-0.9118,-0.8038,-0.8038,-0.8038,-0.8038,-0.8038,-0.8038,-0.8038,-0.8038,-0.7839,0.0,0.0,0.0,0.0,1.4547,0.0,0.0,0.0,0.0,0.0,0.0,0.0,0.0,0.0,0.0,0.0,0.0,0.0,0.0,0.0,0.0,0.0,0.0,0.0,0.0,0.0,0.0,-0.9041,-0.9817,-1.0895,-1.2198,-1.2372,-1.3302,-1.5163,-1.5685,-1.7125,-1.9829,-2.1098,-2.2014,-2.2509,-2.2947,-2.288,-2.2385,-2.2009,-2.2111,-2.2696,-2.274,-2.3467,-2.4818,-2.5885,-2.6951,-2.8142,-3.066,-3.2117,-3.2951,-3.4134,-3.5229,-3.6058,-3.5676,-3.6037,-3.6581,-3.5846,-3.5001,-3.4168,-3.3556,-3.2897,-3.218,-3.1303,-3.0914,-3.0481,-2.91,-2.8227,-2.7595,-2.728,-2.6397,-2.5546,-2.5233,-2.4737,-2.3874,-2.2286,-2.2255,-2.2747,-2.3453,-2.3508,-2.2913,-2.1165,-2.0785,-1.9955,-1.8014,-1.6804,-1.6079,-1.605,-1.5241,-1.4859,-1.5252,-1.5335,-1.5039,-1.4148,-1.3974,-1.2807,-1.0288,-0.8924,-0.8137,-0.8038,-0.8038,-0.8038,-0.8038,-0.8038,-0.8038,-0.8038,-0.8038,-0.7335,0.0,0.0,0.0,0.0,0.0,0.0,0.0,0.0,1.1059,0.0,0.0,0.0,0.0,0.0,0.0,0.0,0.0,0.0,0.0,0.0,0.0,0.0,0.0,0.0,0.0,0.0,0.0,0.0,0.0,-1.0682,-1.2031,-1.3281,-1.4378,-1.5163,-1.6166,-1.7504,-1.9107,-1.9931,-2.062,-2.1283,-2.1864,-2.1895,-2.1411,-2.1473,-2.1744,-2.2097,-2.2507,-2.3356,-2.4615,-2.5668,-2.6858,-2.8127,-3.0093,-3.1253,-3.1937,-3.2631,-3.3412,-3.4052,-3.379,-3.3952,-3.4215,-3.3551,-3.2855,-3.2191,-3.158,-3.1186,-3.0667,-2.9509,-2.834,-2.7155,-2.5733,-2.4564,-2.3608,-2.3168,-2.2899,-2.2681,-2.2541,-2.2326,-2.162,-1.9856,-1.9775,-1.9823,-1.9271,-2.0216,-2.0563,-1.8873,-1.8089,-1.7365,-1.6511,-1.5462,-1.4797,-1.4979,-1.4695,-1.471,-1.5177,-1.5331,-1.4946,-1.3957,-1.2517,-1.0769,-0.892,-0.8336,-0.8038,-0.8038,-0.8038,-0.8038,-0.8038,-0.8038,-0.8038,-0.8038,-0.8038,-0.7736,1.6772,0.0,0.0,0.0,0.0,0.0,0.0,0.0,0.0,0.0,0.0,0.0,0.0,0.0,0.0,0.0,0.0,0.0,0.0,0.0,0.0,0.0,0.0,0.0,0.0,0.0,0.0,0.0,0.0,0.0,-1.2191,-1.4034,-1.5155,-1.5356,-1.6312,-1.7352,-1.8417,-1.8868,-1.9458,-2.0208,-2.0909,-2.0966,-2.0479,-2.0926,-2.1215,-2.1472,-2.2161,-2.3122,-2.4372,-2.5242,-2.6389,-2.7825,-2.9142,-2.9984,-3.062,-3.153,-3.2137,-3.2493,-3.2436,-3.2407,-3.2259,-3.1461,-3.0876,-3.0359,-2.9407,-2.8989,-2.8478,-2.6955,-2.5527,-2.4017,-2.2376,-2.1118,-2.0118,-1.9471,-1.9517,-1.9701,-1.9565,-1.9599,-1.9158,-1.7609,-1.7571,-1.744,-1.6097,-1.7482,-1.8348,-1.7025,-1.5928,-1.5101,-1.4768,-1.4126,-1.3756,-1.4035,-1.4408,-1.4843,-1.5351,-1.5179,-1.4352,-1.2898,-1.0676,-0.9019,-0.8038,-0.8038,-0.8038,-0.8038,-0.8038,-0.8038,-0.8038,-0.8038,-0.8038,-0.8038,-0.8038,-0.7839,0.0,0.0,0.0,1.4533,0.0,0.0,0.0,0.0,1.004,0.0,0.0,0.0,0.0,0.0,0.0,0.0,0.0,0.0,0.0,0.0,0.0,0.0,0.0,0.0,0.0,0.0,0.0,0.0,0.0,0.0,-1.3137,-1.4085,-1.4976,-1.5847,-1.5546,-1.6237,-1.8006,-1.8764,-1.9286,-1.9614,-2.0353,-2.0388,-1.9823,-1.9823,-2.022,-2.0845,-2.1472,-2.2426,-2.3588,-2.4281,-2.5259,-2.6463,-2.7549,-2.8376,-2.925,-3.1673,-3.2536,-3.2521,-3.2643,-3.2305,-3.1607,-3.0359,-2.9412,-2.8453,-2.6684,-2.5589,-2.4595,-2.278,-2.2228,-2.1653,-1.9297,-1.86,-1.8316,-1.7243,-1.7051,-1.6927,-1.6587,-1.679,-1.6732,-1.5878,-1.6253,-1.6426,-1.5355,-1.6063,-1.658,-1.589,-1.4754,-1.3652,-1.2577,-1.2413,-1.2514,-1.2861,-1.4129,-1.507,-1.5371,-1.4496,-1.2802,-1.0288,-0.8825,-0.8038,-0.8038,-0.8038,-0.8038,-0.8038,-0.8038,-0.8038,-0.8038,-0.8038,-0.8038,-0.8038,-0.8038,-0.7335,0.0,0.0,1.7304,1.552,0.0,0.0,0.0,0.0,0.0,0.0,0.0,0.0,0.0,0.0,0.0,0.0,0.0,0.0,0.0,0.0,0.0,0.0,0.0,0.0,0.0,0.0,0.0,0.0,0.0,0.0,0.0,-1.36,-1.4596,-1.5453,-1.5722,-1.6137,-1.6759,-1.7673,-1.816,-1.8279,-1.9536,-1.9987,-1.9798,-1.9798,-2.0383,-2.1424,-2.2016,-2.3112,-2.4587,-2.5881,-2.6925,-2.7791,-2.8781,-2.9353,-2.9741,-3.0679,-3.0794,-3.0443,-2.9921,-2.9101,-2.8215,-2.7788,-2.6775,-2.555,-2.4645,-2.3486,-2.2333,-2.1218,-1.9617,-1.8087,-1.7284,-1.6336,-1.556,-1.5326,-1.5556,-1.5713,-1.5651,-1.5833,-1.574,-1.4813,-1.4569,-1.4114,-1.3166,-1.2806,-1.2866,-1.34,-1.248,-1.1627,-1.1209,-1.1809,-1.2498,-1.3028,-1.3429,-1.3842,-1.4383,-1.2475,-1.097,-1.0096,-0.8726,-0.8038,-0.8038,-0.8038,-0.8038,-0.8038,-0.8038,-0.8038,-0.8038,-0.8038,-0.8038,-0.8038,-0.8038,-0.7736,1.8944,1.8612,0.0,0.0,1.4607,0.0,1.229,0.0,0.0,0.0,0.0,0.0,0.0,0.0,0.0,0.0,0.0,0.0,0.0,-0.3485,0.0,0.0,0.0,0.0,0.0,0.0,0.0,0.0,0.0,0.0,0.0,0.0,-1.439,-1.5284,-1.552,-1.5851,-1.6237,-1.7129,-1.7731,-1.8004,-1.9202,-1.9798,-1.9798,-2.0055,-2.0752,-2.1903,-2.2804,-2.407,-2.566,-2.6825,-2.7717,-2.8345,-2.8904,-2.9082,-2.9079,-2.9658,-2.9402,-2.8651,-2.7965,-2.6926,-2.5839,-2.555,-2.443,-2.3066,-2.2357,-2.1315,-2.0202,-1.9057,-1.7592,-1.6079,-1.5056,-1.4104,-1.3263,-1.2763,-1.2892,-1.3107,-1.3107,-1.3362,-1.3355,-1.2762,-1.2506,-1.2135,-1.1573,-1.06,-1.0351,-1.1552,-1.0697,-1.0009,-1.0009,-1.0676,-1.1393,-1.1877,-1.2264,-1.2478,-1.2485,-1.097,-0.9801,-0.9312,-0.8432,-0.8038,-0.8038,-0.8038,-0.8038,-0.8038,-0.8038,-0.8038,-0.8038,-0.8038,-0.8038,-0.8038,-0.8038,-0.8038]}]]